<?xml version="1.0" encoding="UTF-8" standalone="no" ?>
<gpx xmlns="http://www.topografix.com/GPX/1/1" xmlns:xsi="http://www.w3.org/2001/XMLSchema-instance" xsi:schemaLocation="http://www.topografix.com/GPX/1/1 http://www.topografix.com/GPX/1/1/gpx.xsd" version="1.1" creator="VisuGPX - https://www.visugpx.com">
  <metadata>
    <name>Randonnée 17-11-2018-Corronsac</name>
    <desc><![CDATA[Boucle au départ de Corronsac via Espanes-]]></desc>
  </metadata>
  <trk>
    <name><![CDATA[Randonnée 17-11-2018-Corronsac_1]]></name>
    <trkseg>
      <trkpt lat="43.47324" lon="1.4974">
        <ele>242</ele>
        <time>2018-11-17T09:19:04Z</time>
      </trkpt>
      <trkpt lat="43.47324" lon="1.49738">
        <ele>242</ele>
        <time>2018-11-17T09:19:04Z</time>
      </trkpt>
      <trkpt lat="43.47324" lon="1.49735">
        <ele>242</ele>
        <time>2018-11-17T09:19:04Z</time>
      </trkpt>
      <trkpt lat="43.47324" lon="1.49731">
        <ele>242</ele>
        <time>2018-11-17T09:19:04Z</time>
      </trkpt>
      <trkpt lat="43.47324" lon="1.49727">
        <ele>242</ele>
        <time>2018-11-17T09:19:04Z</time>
      </trkpt>
      <trkpt lat="43.47323" lon="1.49724">
        <ele>242</ele>
        <time>2018-11-17T09:19:20Z</time>
      </trkpt>
      <trkpt lat="43.47323" lon="1.4972">
        <ele>242</ele>
        <time>2018-11-17T09:19:20Z</time>
      </trkpt>
      <trkpt lat="43.47324" lon="1.49714">
        <ele>242</ele>
        <time>2018-11-17T09:19:20Z</time>
      </trkpt>
      <trkpt lat="43.47326" lon="1.49707">
        <ele>241</ele>
        <time>2018-11-17T09:19:20Z</time>
      </trkpt>
      <trkpt lat="43.47326" lon="1.49702">
        <ele>241</ele>
        <time>2018-11-17T09:19:36Z</time>
      </trkpt>
      <trkpt lat="43.47328" lon="1.49695">
        <ele>241</ele>
        <time>2018-11-17T09:19:36Z</time>
      </trkpt>
      <trkpt lat="43.4733" lon="1.49689">
        <ele>241</ele>
        <time>2018-11-17T09:19:36Z</time>
      </trkpt>
      <trkpt lat="43.4733" lon="1.49685">
        <ele>241</ele>
        <time>2018-11-17T09:19:36Z</time>
      </trkpt>
      <trkpt lat="43.47331" lon="1.4968">
        <ele>241</ele>
        <time>2018-11-17T09:19:52Z</time>
      </trkpt>
      <trkpt lat="43.47332" lon="1.49675">
        <ele>241</ele>
        <time>2018-11-17T09:19:52Z</time>
      </trkpt>
      <trkpt lat="43.47334" lon="1.49667">
        <ele>241</ele>
        <time>2018-11-17T09:19:52Z</time>
      </trkpt>
      <trkpt lat="43.47336" lon="1.4966">
        <ele>241</ele>
        <time>2018-11-17T09:19:52Z</time>
      </trkpt>
      <trkpt lat="43.47338" lon="1.49653">
        <ele>241</ele>
        <time>2018-11-17T09:20:08Z</time>
      </trkpt>
      <trkpt lat="43.4734" lon="1.49647">
        <ele>241</ele>
        <time>2018-11-17T09:20:08Z</time>
      </trkpt>
      <trkpt lat="43.47339" lon="1.49643">
        <ele>241</ele>
        <time>2018-11-17T09:20:08Z</time>
      </trkpt>
      <trkpt lat="43.4734" lon="1.49639">
        <ele>241</ele>
        <time>2018-11-17T09:20:08Z</time>
      </trkpt>
      <trkpt lat="43.47343" lon="1.49632">
        <ele>241</ele>
        <time>2018-11-17T09:20:24Z</time>
      </trkpt>
      <trkpt lat="43.47344" lon="1.49626">
        <ele>241</ele>
        <time>2018-11-17T09:20:24Z</time>
      </trkpt>
      <trkpt lat="43.47346" lon="1.49619">
        <ele>240</ele>
        <time>2018-11-17T09:20:24Z</time>
      </trkpt>
      <trkpt lat="43.47347" lon="1.49613">
        <ele>240</ele>
        <time>2018-11-17T09:20:24Z</time>
      </trkpt>
      <trkpt lat="43.47349" lon="1.49605">
        <ele>240</ele>
        <time>2018-11-17T09:20:40Z</time>
      </trkpt>
      <trkpt lat="43.4735" lon="1.49599">
        <ele>240</ele>
        <time>2018-11-17T09:20:40Z</time>
      </trkpt>
      <trkpt lat="43.4735" lon="1.49594">
        <ele>240</ele>
        <time>2018-11-17T09:20:40Z</time>
      </trkpt>
      <trkpt lat="43.4735" lon="1.49589">
        <ele>240</ele>
        <time>2018-11-17T09:20:40Z</time>
      </trkpt>
      <trkpt lat="43.4735" lon="1.49582">
        <ele>240</ele>
        <time>2018-11-17T09:20:56Z</time>
      </trkpt>
      <trkpt lat="43.47348" lon="1.49577">
        <ele>240</ele>
        <time>2018-11-17T09:20:56Z</time>
      </trkpt>
      <trkpt lat="43.47345" lon="1.49573">
        <ele>240</ele>
        <time>2018-11-17T09:20:56Z</time>
      </trkpt>
      <trkpt lat="43.47343" lon="1.49566">
        <ele>240</ele>
        <time>2018-11-17T09:20:56Z</time>
      </trkpt>
      <trkpt lat="43.47342" lon="1.49557">
        <ele>240</ele>
        <time>2018-11-17T09:21:12Z</time>
      </trkpt>
      <trkpt lat="43.47343" lon="1.49551">
        <ele>240</ele>
        <time>2018-11-17T09:21:12Z</time>
      </trkpt>
      <trkpt lat="43.47344" lon="1.49545">
        <ele>240</ele>
        <time>2018-11-17T09:21:12Z</time>
      </trkpt>
      <trkpt lat="43.47341" lon="1.49541">
        <ele>237</ele>
        <time>2018-11-17T09:21:12Z</time>
      </trkpt>
      <trkpt lat="43.47339" lon="1.49535">
        <ele>237</ele>
        <time>2018-11-17T09:21:28Z</time>
      </trkpt>
      <trkpt lat="43.47339" lon="1.4953">
        <ele>237</ele>
        <time>2018-11-17T09:21:28Z</time>
      </trkpt>
      <trkpt lat="43.4734" lon="1.49523">
        <ele>237</ele>
        <time>2018-11-17T09:21:28Z</time>
      </trkpt>
      <trkpt lat="43.4734" lon="1.49515">
        <ele>237</ele>
        <time>2018-11-17T09:21:28Z</time>
      </trkpt>
      <trkpt lat="43.47338" lon="1.49506">
        <ele>237</ele>
        <time>2018-11-17T09:21:44Z</time>
      </trkpt>
      <trkpt lat="43.47337" lon="1.49494">
        <ele>237</ele>
        <time>2018-11-17T09:21:44Z</time>
      </trkpt>
      <trkpt lat="43.47336" lon="1.49486">
        <ele>237</ele>
        <time>2018-11-17T09:21:44Z</time>
      </trkpt>
      <trkpt lat="43.47336" lon="1.4948">
        <ele>237</ele>
        <time>2018-11-17T09:21:44Z</time>
      </trkpt>
      <trkpt lat="43.47333" lon="1.49474">
        <ele>237</ele>
        <time>2018-11-17T09:22:20Z</time>
      </trkpt>
      <trkpt lat="43.4733" lon="1.49471">
        <ele>237</ele>
        <time>2018-11-17T09:22:20Z</time>
      </trkpt>
      <trkpt lat="43.47327" lon="1.49463">
        <ele>237</ele>
        <time>2018-11-17T09:22:20Z</time>
      </trkpt>
      <trkpt lat="43.47325" lon="1.49457">
        <ele>233</ele>
        <time>2018-11-17T09:22:20Z</time>
      </trkpt>
      <trkpt lat="43.47325" lon="1.49455">
        <ele>233</ele>
        <time>2018-11-17T09:22:20Z</time>
      </trkpt>
      <trkpt lat="43.47327" lon="1.49452">
        <ele>233</ele>
        <time>2018-11-17T09:22:40Z</time>
      </trkpt>
      <trkpt lat="43.47327" lon="1.49451">
        <ele>233</ele>
        <time>2018-11-17T09:22:40Z</time>
      </trkpt>
      <trkpt lat="43.47327" lon="1.49451">
        <ele>233</ele>
        <time>2018-11-17T09:22:40Z</time>
      </trkpt>
      <trkpt lat="43.47327" lon="1.49445">
        <ele>233</ele>
        <time>2018-11-17T09:22:40Z</time>
      </trkpt>
      <trkpt lat="43.47327" lon="1.49437">
        <ele>233</ele>
        <time>2018-11-17T09:22:40Z</time>
      </trkpt>
      <trkpt lat="43.47328" lon="1.49432">
        <ele>233</ele>
        <time>2018-11-17T09:22:56Z</time>
      </trkpt>
      <trkpt lat="43.47334" lon="1.49429">
        <ele>233</ele>
        <time>2018-11-17T09:22:56Z</time>
      </trkpt>
      <trkpt lat="43.47337" lon="1.49418">
        <ele>233</ele>
        <time>2018-11-17T09:22:56Z</time>
      </trkpt>
      <trkpt lat="43.47338" lon="1.49407">
        <ele>233</ele>
        <time>2018-11-17T09:22:56Z</time>
      </trkpt>
      <trkpt lat="43.4734" lon="1.49403">
        <ele>233</ele>
        <time>2018-11-17T09:23:12Z</time>
      </trkpt>
      <trkpt lat="43.47339" lon="1.49396">
        <ele>233</ele>
        <time>2018-11-17T09:23:12Z</time>
      </trkpt>
      <trkpt lat="43.47343" lon="1.49392">
        <ele>233</ele>
        <time>2018-11-17T09:23:12Z</time>
      </trkpt>
      <trkpt lat="43.47344" lon="1.49388">
        <ele>233</ele>
        <time>2018-11-17T09:23:12Z</time>
      </trkpt>
      <trkpt lat="43.47348" lon="1.49386">
        <ele>233</ele>
        <time>2018-11-17T09:23:32Z</time>
      </trkpt>
      <trkpt lat="43.4735" lon="1.49383">
        <ele>233</ele>
        <time>2018-11-17T09:23:32Z</time>
      </trkpt>
      <trkpt lat="43.47351" lon="1.49381">
        <ele>233</ele>
        <time>2018-11-17T09:23:32Z</time>
      </trkpt>
      <trkpt lat="43.47349" lon="1.49377">
        <ele>233</ele>
        <time>2018-11-17T09:23:32Z</time>
      </trkpt>
      <trkpt lat="43.47348" lon="1.49374">
        <ele>226</ele>
        <time>2018-11-17T09:23:32Z</time>
      </trkpt>
      <trkpt lat="43.47348" lon="1.49373">
        <ele>226</ele>
        <time>2018-11-17T09:23:48Z</time>
      </trkpt>
      <trkpt lat="43.47348" lon="1.49371">
        <ele>226</ele>
        <time>2018-11-17T09:23:48Z</time>
      </trkpt>
      <trkpt lat="43.47347" lon="1.49369">
        <ele>226</ele>
        <time>2018-11-17T09:23:48Z</time>
      </trkpt>
      <trkpt lat="43.47344" lon="1.4936">
        <ele>226</ele>
        <time>2018-11-17T09:23:48Z</time>
      </trkpt>
      <trkpt lat="43.4734" lon="1.4935">
        <ele>226</ele>
        <time>2018-11-17T09:24:04Z</time>
      </trkpt>
      <trkpt lat="43.47338" lon="1.4934">
        <ele>226</ele>
        <time>2018-11-17T09:24:04Z</time>
      </trkpt>
      <trkpt lat="43.47338" lon="1.49329">
        <ele>226</ele>
        <time>2018-11-17T09:24:04Z</time>
      </trkpt>
      <trkpt lat="43.47338" lon="1.49321">
        <ele>226</ele>
        <time>2018-11-17T09:24:04Z</time>
      </trkpt>
      <trkpt lat="43.47337" lon="1.49313">
        <ele>226</ele>
        <time>2018-11-17T09:24:20Z</time>
      </trkpt>
      <trkpt lat="43.47335" lon="1.49308">
        <ele>226</ele>
        <time>2018-11-17T09:24:20Z</time>
      </trkpt>
      <trkpt lat="43.47334" lon="1.49303">
        <ele>226</ele>
        <time>2018-11-17T09:24:20Z</time>
      </trkpt>
      <trkpt lat="43.47333" lon="1.49296">
        <ele>226</ele>
        <time>2018-11-17T09:24:20Z</time>
      </trkpt>
      <trkpt lat="43.47333" lon="1.49285">
        <ele>218</ele>
        <time>2018-11-17T09:24:36Z</time>
      </trkpt>
      <trkpt lat="43.47331" lon="1.49279">
        <ele>218</ele>
        <time>2018-11-17T09:24:36Z</time>
      </trkpt>
      <trkpt lat="43.4733" lon="1.49274">
        <ele>218</ele>
        <time>2018-11-17T09:24:36Z</time>
      </trkpt>
      <trkpt lat="43.47327" lon="1.4927">
        <ele>218</ele>
        <time>2018-11-17T09:24:36Z</time>
      </trkpt>
      <trkpt lat="43.47325" lon="1.49265">
        <ele>218</ele>
        <time>2018-11-17T09:24:52Z</time>
      </trkpt>
      <trkpt lat="43.47321" lon="1.49259">
        <ele>218</ele>
        <time>2018-11-17T09:24:52Z</time>
      </trkpt>
      <trkpt lat="43.4732" lon="1.49254">
        <ele>218</ele>
        <time>2018-11-17T09:24:52Z</time>
      </trkpt>
      <trkpt lat="43.47319" lon="1.49249">
        <ele>218</ele>
        <time>2018-11-17T09:24:52Z</time>
      </trkpt>
      <trkpt lat="43.47315" lon="1.49243">
        <ele>218</ele>
        <time>2018-11-17T09:25:08Z</time>
      </trkpt>
      <trkpt lat="43.47311" lon="1.49236">
        <ele>218</ele>
        <time>2018-11-17T09:25:08Z</time>
      </trkpt>
      <trkpt lat="43.47309" lon="1.49231">
        <ele>218</ele>
        <time>2018-11-17T09:25:08Z</time>
      </trkpt>
      <trkpt lat="43.47307" lon="1.49225">
        <ele>218</ele>
        <time>2018-11-17T09:25:08Z</time>
      </trkpt>
      <trkpt lat="43.47304" lon="1.4922">
        <ele>218</ele>
        <time>2018-11-17T09:25:24Z</time>
      </trkpt>
      <trkpt lat="43.47302" lon="1.49214">
        <ele>218</ele>
        <time>2018-11-17T09:25:24Z</time>
      </trkpt>
      <trkpt lat="43.47299" lon="1.49209">
        <ele>218</ele>
        <time>2018-11-17T09:25:24Z</time>
      </trkpt>
      <trkpt lat="43.47296" lon="1.49204">
        <ele>212</ele>
        <time>2018-11-17T09:25:24Z</time>
      </trkpt>
      <trkpt lat="43.47293" lon="1.49198">
        <ele>212</ele>
        <time>2018-11-17T09:25:40Z</time>
      </trkpt>
      <trkpt lat="43.47293" lon="1.49194">
        <ele>212</ele>
        <time>2018-11-17T09:25:40Z</time>
      </trkpt>
      <trkpt lat="43.4729" lon="1.49189">
        <ele>205</ele>
        <time>2018-11-17T09:25:40Z</time>
      </trkpt>
      <trkpt lat="43.47286" lon="1.49183">
        <ele>205</ele>
        <time>2018-11-17T09:25:40Z</time>
      </trkpt>
      <trkpt lat="43.47285" lon="1.49179">
        <ele>205</ele>
        <time>2018-11-17T09:25:56Z</time>
      </trkpt>
      <trkpt lat="43.47282" lon="1.49173">
        <ele>205</ele>
        <time>2018-11-17T09:25:56Z</time>
      </trkpt>
      <trkpt lat="43.47278" lon="1.49165">
        <ele>205</ele>
        <time>2018-11-17T09:25:56Z</time>
      </trkpt>
      <trkpt lat="43.47274" lon="1.49159">
        <ele>205</ele>
        <time>2018-11-17T09:25:56Z</time>
      </trkpt>
      <trkpt lat="43.47271" lon="1.49153">
        <ele>205</ele>
        <time>2018-11-17T09:26:12Z</time>
      </trkpt>
      <trkpt lat="43.47266" lon="1.49149">
        <ele>205</ele>
        <time>2018-11-17T09:26:12Z</time>
      </trkpt>
      <trkpt lat="43.47264" lon="1.49143">
        <ele>205</ele>
        <time>2018-11-17T09:26:12Z</time>
      </trkpt>
      <trkpt lat="43.47262" lon="1.49136">
        <ele>205</ele>
        <time>2018-11-17T09:26:12Z</time>
      </trkpt>
      <trkpt lat="43.47261" lon="1.4913">
        <ele>205</ele>
        <time>2018-11-17T09:26:28Z</time>
      </trkpt>
      <trkpt lat="43.47259" lon="1.49125">
        <ele>205</ele>
        <time>2018-11-17T09:26:28Z</time>
      </trkpt>
      <trkpt lat="43.47257" lon="1.4912">
        <ele>204</ele>
        <time>2018-11-17T09:26:28Z</time>
      </trkpt>
      <trkpt lat="43.47254" lon="1.49116">
        <ele>204</ele>
        <time>2018-11-17T09:26:28Z</time>
      </trkpt>
      <trkpt lat="43.47251" lon="1.49113">
        <ele>204</ele>
        <time>2018-11-17T09:26:44Z</time>
      </trkpt>
      <trkpt lat="43.47246" lon="1.49107">
        <ele>204</ele>
        <time>2018-11-17T09:26:44Z</time>
      </trkpt>
      <trkpt lat="43.4724" lon="1.49104">
        <ele>204</ele>
        <time>2018-11-17T09:26:44Z</time>
      </trkpt>
      <trkpt lat="43.47236" lon="1.49101">
        <ele>204</ele>
        <time>2018-11-17T09:26:44Z</time>
      </trkpt>
      <trkpt lat="43.47232" lon="1.49096">
        <ele>204</ele>
        <time>2018-11-17T09:27:00Z</time>
      </trkpt>
      <trkpt lat="43.47227" lon="1.49096">
        <ele>204</ele>
        <time>2018-11-17T09:27:00Z</time>
      </trkpt>
      <trkpt lat="43.47221" lon="1.49093">
        <ele>204</ele>
        <time>2018-11-17T09:27:00Z</time>
      </trkpt>
      <trkpt lat="43.47217" lon="1.49097">
        <ele>204</ele>
        <time>2018-11-17T09:27:00Z</time>
      </trkpt>
      <trkpt lat="43.47213" lon="1.491">
        <ele>204</ele>
        <time>2018-11-17T09:27:16Z</time>
      </trkpt>
      <trkpt lat="43.47207" lon="1.491">
        <ele>208</ele>
        <time>2018-11-17T09:27:16Z</time>
      </trkpt>
      <trkpt lat="43.47202" lon="1.49097">
        <ele>208</ele>
        <time>2018-11-17T09:27:16Z</time>
      </trkpt>
      <trkpt lat="43.47196" lon="1.49095">
        <ele>208</ele>
        <time>2018-11-17T09:27:16Z</time>
      </trkpt>
      <trkpt lat="43.47192" lon="1.49094">
        <ele>208</ele>
        <time>2018-11-17T09:27:32Z</time>
      </trkpt>
      <trkpt lat="43.47188" lon="1.49094">
        <ele>208</ele>
        <time>2018-11-17T09:27:32Z</time>
      </trkpt>
      <trkpt lat="43.47184" lon="1.49094">
        <ele>208</ele>
        <time>2018-11-17T09:27:32Z</time>
      </trkpt>
      <trkpt lat="43.4718" lon="1.49095">
        <ele>208</ele>
        <time>2018-11-17T09:27:32Z</time>
      </trkpt>
      <trkpt lat="43.47176" lon="1.49097">
        <ele>208</ele>
        <time>2018-11-17T09:27:48Z</time>
      </trkpt>
      <trkpt lat="43.47172" lon="1.49098">
        <ele>208</ele>
        <time>2018-11-17T09:27:48Z</time>
      </trkpt>
      <trkpt lat="43.47167" lon="1.49098">
        <ele>208</ele>
        <time>2018-11-17T09:27:48Z</time>
      </trkpt>
      <trkpt lat="43.47162" lon="1.49099">
        <ele>208</ele>
        <time>2018-11-17T09:27:48Z</time>
      </trkpt>
      <trkpt lat="43.47157" lon="1.49097">
        <ele>208</ele>
        <time>2018-11-17T09:28:04Z</time>
      </trkpt>
      <trkpt lat="43.47153" lon="1.49096">
        <ele>208</ele>
        <time>2018-11-17T09:28:04Z</time>
      </trkpt>
      <trkpt lat="43.47149" lon="1.49094">
        <ele>208</ele>
        <time>2018-11-17T09:28:04Z</time>
      </trkpt>
      <trkpt lat="43.47145" lon="1.49092">
        <ele>208</ele>
        <time>2018-11-17T09:28:04Z</time>
      </trkpt>
      <trkpt lat="43.4714" lon="1.49091">
        <ele>208</ele>
        <time>2018-11-17T09:28:20Z</time>
      </trkpt>
      <trkpt lat="43.47136" lon="1.49088">
        <ele>208</ele>
        <time>2018-11-17T09:28:20Z</time>
      </trkpt>
      <trkpt lat="43.47132" lon="1.49085">
        <ele>208</ele>
        <time>2018-11-17T09:28:20Z</time>
      </trkpt>
      <trkpt lat="43.47128" lon="1.49085">
        <ele>208</ele>
        <time>2018-11-17T09:28:20Z</time>
      </trkpt>
      <trkpt lat="43.47123" lon="1.49081">
        <ele>212</ele>
        <time>2018-11-17T09:28:36Z</time>
      </trkpt>
      <trkpt lat="43.47118" lon="1.49079">
        <ele>212</ele>
        <time>2018-11-17T09:28:36Z</time>
      </trkpt>
      <trkpt lat="43.47113" lon="1.49078">
        <ele>212</ele>
        <time>2018-11-17T09:28:36Z</time>
      </trkpt>
      <trkpt lat="43.47107" lon="1.49079">
        <ele>212</ele>
        <time>2018-11-17T09:28:36Z</time>
      </trkpt>
      <trkpt lat="43.47102" lon="1.49079">
        <ele>212</ele>
        <time>2018-11-17T09:28:52Z</time>
      </trkpt>
      <trkpt lat="43.47098" lon="1.49081">
        <ele>212</ele>
        <time>2018-11-17T09:28:52Z</time>
      </trkpt>
      <trkpt lat="43.47096" lon="1.49077">
        <ele>212</ele>
        <time>2018-11-17T09:28:52Z</time>
      </trkpt>
      <trkpt lat="43.47095" lon="1.49072">
        <ele>212</ele>
        <time>2018-11-17T09:28:52Z</time>
      </trkpt>
      <trkpt lat="43.47092" lon="1.49071">
        <ele>212</ele>
        <time>2018-11-17T09:29:08Z</time>
      </trkpt>
      <trkpt lat="43.47088" lon="1.49069">
        <ele>212</ele>
        <time>2018-11-17T09:29:08Z</time>
      </trkpt>
      <trkpt lat="43.47084" lon="1.4907">
        <ele>212</ele>
        <time>2018-11-17T09:29:08Z</time>
      </trkpt>
      <trkpt lat="43.47079" lon="1.49072">
        <ele>212</ele>
        <time>2018-11-17T09:29:08Z</time>
      </trkpt>
      <trkpt lat="43.47074" lon="1.49071">
        <ele>212</ele>
        <time>2018-11-17T09:29:24Z</time>
      </trkpt>
      <trkpt lat="43.47068" lon="1.49074">
        <ele>212</ele>
        <time>2018-11-17T09:29:24Z</time>
      </trkpt>
      <trkpt lat="43.47062" lon="1.49074">
        <ele>212</ele>
        <time>2018-11-17T09:29:24Z</time>
      </trkpt>
      <trkpt lat="43.47056" lon="1.49074">
        <ele>212</ele>
        <time>2018-11-17T09:29:24Z</time>
      </trkpt>
      <trkpt lat="43.47051" lon="1.49073">
        <ele>212</ele>
        <time>2018-11-17T09:29:40Z</time>
      </trkpt>
      <trkpt lat="43.47047" lon="1.49074">
        <ele>212</ele>
        <time>2018-11-17T09:29:40Z</time>
      </trkpt>
      <trkpt lat="43.47044" lon="1.49073">
        <ele>212</ele>
        <time>2018-11-17T09:29:40Z</time>
      </trkpt>
      <trkpt lat="43.47035" lon="1.49076">
        <ele>218</ele>
        <time>2018-11-17T09:29:40Z</time>
      </trkpt>
      <trkpt lat="43.4703" lon="1.49074">
        <ele>218</ele>
        <time>2018-11-17T09:29:56Z</time>
      </trkpt>
      <trkpt lat="43.47027" lon="1.49075">
        <ele>218</ele>
        <time>2018-11-17T09:29:56Z</time>
      </trkpt>
      <trkpt lat="43.47026" lon="1.4908">
        <ele>218</ele>
        <time>2018-11-17T09:29:56Z</time>
      </trkpt>
      <trkpt lat="43.47022" lon="1.4908">
        <ele>218</ele>
        <time>2018-11-17T09:29:56Z</time>
      </trkpt>
      <trkpt lat="43.47018" lon="1.49081">
        <ele>218</ele>
        <time>2018-11-17T09:30:12Z</time>
      </trkpt>
      <trkpt lat="43.47013" lon="1.4908">
        <ele>218</ele>
        <time>2018-11-17T09:30:12Z</time>
      </trkpt>
      <trkpt lat="43.47009" lon="1.49079">
        <ele>218</ele>
        <time>2018-11-17T09:30:12Z</time>
      </trkpt>
      <trkpt lat="43.47003" lon="1.49076">
        <ele>218</ele>
        <time>2018-11-17T09:30:12Z</time>
      </trkpt>
      <trkpt lat="43.46996" lon="1.49075">
        <ele>218</ele>
        <time>2018-11-17T09:30:28Z</time>
      </trkpt>
      <trkpt lat="43.46992" lon="1.49077">
        <ele>218</ele>
        <time>2018-11-17T09:30:28Z</time>
      </trkpt>
      <trkpt lat="43.46991" lon="1.49079">
        <ele>218</ele>
        <time>2018-11-17T09:30:28Z</time>
      </trkpt>
      <trkpt lat="43.46986" lon="1.49077">
        <ele>218</ele>
        <time>2018-11-17T09:30:28Z</time>
      </trkpt>
      <trkpt lat="43.46981" lon="1.49074">
        <ele>218</ele>
        <time>2018-11-17T09:30:44Z</time>
      </trkpt>
      <trkpt lat="43.46975" lon="1.49076">
        <ele>218</ele>
        <time>2018-11-17T09:30:44Z</time>
      </trkpt>
      <trkpt lat="43.46971" lon="1.49076">
        <ele>218</ele>
        <time>2018-11-17T09:30:44Z</time>
      </trkpt>
      <trkpt lat="43.46967" lon="1.49077">
        <ele>218</ele>
        <time>2018-11-17T09:30:44Z</time>
      </trkpt>
      <trkpt lat="43.46963" lon="1.49078">
        <ele>218</ele>
        <time>2018-11-17T09:31:00Z</time>
      </trkpt>
      <trkpt lat="43.46958" lon="1.49079">
        <ele>222</ele>
        <time>2018-11-17T09:31:00Z</time>
      </trkpt>
      <trkpt lat="43.46952" lon="1.49078">
        <ele>222</ele>
        <time>2018-11-17T09:31:00Z</time>
      </trkpt>
      <trkpt lat="43.46947" lon="1.49079">
        <ele>222</ele>
        <time>2018-11-17T09:31:00Z</time>
      </trkpt>
      <trkpt lat="43.46943" lon="1.49081">
        <ele>222</ele>
        <time>2018-11-17T09:31:16Z</time>
      </trkpt>
      <trkpt lat="43.4694" lon="1.49081">
        <ele>222</ele>
        <time>2018-11-17T09:31:16Z</time>
      </trkpt>
      <trkpt lat="43.46936" lon="1.49082">
        <ele>222</ele>
        <time>2018-11-17T09:31:16Z</time>
      </trkpt>
      <trkpt lat="43.46933" lon="1.49083">
        <ele>222</ele>
        <time>2018-11-17T09:31:16Z</time>
      </trkpt>
      <trkpt lat="43.46929" lon="1.49082">
        <ele>222</ele>
        <time>2018-11-17T09:31:32Z</time>
      </trkpt>
      <trkpt lat="43.46924" lon="1.49081">
        <ele>222</ele>
        <time>2018-11-17T09:31:32Z</time>
      </trkpt>
      <trkpt lat="43.46919" lon="1.49079">
        <ele>222</ele>
        <time>2018-11-17T09:31:32Z</time>
      </trkpt>
      <trkpt lat="43.46914" lon="1.49077">
        <ele>222</ele>
        <time>2018-11-17T09:31:32Z</time>
      </trkpt>
      <trkpt lat="43.46905" lon="1.49071">
        <ele>222</ele>
        <time>2018-11-17T09:32:00Z</time>
      </trkpt>
      <trkpt lat="43.46905" lon="1.49072">
        <ele>222</ele>
        <time>2018-11-17T09:32:00Z</time>
      </trkpt>
      <trkpt lat="43.46903" lon="1.4907">
        <ele>222</ele>
        <time>2018-11-17T09:32:00Z</time>
      </trkpt>
      <trkpt lat="43.46898" lon="1.49068">
        <ele>222</ele>
        <time>2018-11-17T09:32:00Z</time>
      </trkpt>
      <trkpt lat="43.46891" lon="1.49065">
        <ele>222</ele>
        <time>2018-11-17T09:32:00Z</time>
      </trkpt>
      <trkpt lat="43.46885" lon="1.4906">
        <ele>222</ele>
        <time>2018-11-17T09:32:16Z</time>
      </trkpt>
      <trkpt lat="43.46878" lon="1.49057">
        <ele>222</ele>
        <time>2018-11-17T09:32:16Z</time>
      </trkpt>
      <trkpt lat="43.46872" lon="1.49057">
        <ele>230</ele>
        <time>2018-11-17T09:32:16Z</time>
      </trkpt>
      <trkpt lat="43.46868" lon="1.49054">
        <ele>230</ele>
        <time>2018-11-17T09:32:16Z</time>
      </trkpt>
      <trkpt lat="43.46864" lon="1.49052">
        <ele>230</ele>
        <time>2018-11-17T09:32:32Z</time>
      </trkpt>
      <trkpt lat="43.4686" lon="1.4905">
        <ele>230</ele>
        <time>2018-11-17T09:32:32Z</time>
      </trkpt>
      <trkpt lat="43.46856" lon="1.49046">
        <ele>230</ele>
        <time>2018-11-17T09:32:32Z</time>
      </trkpt>
      <trkpt lat="43.46852" lon="1.49044">
        <ele>230</ele>
        <time>2018-11-17T09:32:32Z</time>
      </trkpt>
      <trkpt lat="43.46848" lon="1.49044">
        <ele>230</ele>
        <time>2018-11-17T09:32:48Z</time>
      </trkpt>
      <trkpt lat="43.46844" lon="1.49044">
        <ele>230</ele>
        <time>2018-11-17T09:32:48Z</time>
      </trkpt>
      <trkpt lat="43.46841" lon="1.49044">
        <ele>230</ele>
        <time>2018-11-17T09:32:48Z</time>
      </trkpt>
      <trkpt lat="43.46838" lon="1.49042">
        <ele>230</ele>
        <time>2018-11-17T09:32:48Z</time>
      </trkpt>
      <trkpt lat="43.46834" lon="1.4904">
        <ele>233</ele>
        <time>2018-11-17T09:33:04Z</time>
      </trkpt>
      <trkpt lat="43.46831" lon="1.49038">
        <ele>233</ele>
        <time>2018-11-17T09:33:04Z</time>
      </trkpt>
      <trkpt lat="43.46829" lon="1.49033">
        <ele>233</ele>
        <time>2018-11-17T09:33:04Z</time>
      </trkpt>
      <trkpt lat="43.46827" lon="1.49031">
        <ele>233</ele>
        <time>2018-11-17T09:33:04Z</time>
      </trkpt>
      <trkpt lat="43.46826" lon="1.49031">
        <ele>233</ele>
        <time>2018-11-17T09:33:24Z</time>
      </trkpt>
      <trkpt lat="43.46825" lon="1.49031">
        <ele>233</ele>
        <time>2018-11-17T09:33:24Z</time>
      </trkpt>
      <trkpt lat="43.46822" lon="1.4903">
        <ele>233</ele>
        <time>2018-11-17T09:33:24Z</time>
      </trkpt>
      <trkpt lat="43.46819" lon="1.49029">
        <ele>233</ele>
        <time>2018-11-17T09:33:24Z</time>
      </trkpt>
      <trkpt lat="43.46815" lon="1.49027">
        <ele>233</ele>
        <time>2018-11-17T09:33:24Z</time>
      </trkpt>
      <trkpt lat="43.46809" lon="1.49024">
        <ele>233</ele>
        <time>2018-11-17T09:33:40Z</time>
      </trkpt>
      <trkpt lat="43.46803" lon="1.49021">
        <ele>233</ele>
        <time>2018-11-17T09:33:40Z</time>
      </trkpt>
      <trkpt lat="43.46798" lon="1.49019">
        <ele>233</ele>
        <time>2018-11-17T09:33:40Z</time>
      </trkpt>
      <trkpt lat="43.46792" lon="1.49016">
        <ele>233</ele>
        <time>2018-11-17T09:33:40Z</time>
      </trkpt>
      <trkpt lat="43.46787" lon="1.49013">
        <ele>247</ele>
        <time>2018-11-17T09:33:56Z</time>
      </trkpt>
      <trkpt lat="43.46783" lon="1.49013">
        <ele>247</ele>
        <time>2018-11-17T09:33:56Z</time>
      </trkpt>
      <trkpt lat="43.46778" lon="1.4901">
        <ele>247</ele>
        <time>2018-11-17T09:33:56Z</time>
      </trkpt>
      <trkpt lat="43.46775" lon="1.49008">
        <ele>247</ele>
        <time>2018-11-17T09:33:56Z</time>
      </trkpt>
      <trkpt lat="43.46771" lon="1.49005">
        <ele>247</ele>
        <time>2018-11-17T09:34:12Z</time>
      </trkpt>
      <trkpt lat="43.46767" lon="1.49007">
        <ele>247</ele>
        <time>2018-11-17T09:34:12Z</time>
      </trkpt>
      <trkpt lat="43.46764" lon="1.49004">
        <ele>247</ele>
        <time>2018-11-17T09:34:12Z</time>
      </trkpt>
      <trkpt lat="43.46762" lon="1.49">
        <ele>247</ele>
        <time>2018-11-17T09:34:12Z</time>
      </trkpt>
      <trkpt lat="43.4676" lon="1.48995">
        <ele>247</ele>
        <time>2018-11-17T09:34:28Z</time>
      </trkpt>
      <trkpt lat="43.46757" lon="1.48991">
        <ele>247</ele>
        <time>2018-11-17T09:34:28Z</time>
      </trkpt>
      <trkpt lat="43.46754" lon="1.48987">
        <ele>247</ele>
        <time>2018-11-17T09:34:28Z</time>
      </trkpt>
      <trkpt lat="43.46751" lon="1.48985">
        <ele>247</ele>
        <time>2018-11-17T09:34:28Z</time>
      </trkpt>
      <trkpt lat="43.46748" lon="1.48983">
        <ele>247</ele>
        <time>2018-11-17T09:34:44Z</time>
      </trkpt>
      <trkpt lat="43.46744" lon="1.48984">
        <ele>247</ele>
        <time>2018-11-17T09:34:44Z</time>
      </trkpt>
      <trkpt lat="43.46739" lon="1.48983">
        <ele>247</ele>
        <time>2018-11-17T09:34:44Z</time>
      </trkpt>
      <trkpt lat="43.46734" lon="1.48982">
        <ele>247</ele>
        <time>2018-11-17T09:34:44Z</time>
      </trkpt>
      <trkpt lat="43.4673" lon="1.48981">
        <ele>247</ele>
        <time>2018-11-17T09:35:00Z</time>
      </trkpt>
      <trkpt lat="43.46727" lon="1.48984">
        <ele>247</ele>
        <time>2018-11-17T09:35:00Z</time>
      </trkpt>
      <trkpt lat="43.46722" lon="1.48985">
        <ele>247</ele>
        <time>2018-11-17T09:35:00Z</time>
      </trkpt>
      <trkpt lat="43.46718" lon="1.48987">
        <ele>247</ele>
        <time>2018-11-17T09:35:00Z</time>
      </trkpt>
      <trkpt lat="43.46712" lon="1.48986">
        <ele>247</ele>
        <time>2018-11-17T09:35:16Z</time>
      </trkpt>
      <trkpt lat="43.46708" lon="1.48985">
        <ele>247</ele>
        <time>2018-11-17T09:35:16Z</time>
      </trkpt>
      <trkpt lat="43.46706" lon="1.48986">
        <ele>248</ele>
        <time>2018-11-17T09:35:16Z</time>
      </trkpt>
      <trkpt lat="43.46702" lon="1.48985">
        <ele>248</ele>
        <time>2018-11-17T09:35:16Z</time>
      </trkpt>
      <trkpt lat="43.46699" lon="1.48981">
        <ele>248</ele>
        <time>2018-11-17T09:35:32Z</time>
      </trkpt>
      <trkpt lat="43.46694" lon="1.48978">
        <ele>248</ele>
        <time>2018-11-17T09:35:32Z</time>
      </trkpt>
      <trkpt lat="43.46689" lon="1.48977">
        <ele>248</ele>
        <time>2018-11-17T09:35:32Z</time>
      </trkpt>
      <trkpt lat="43.46684" lon="1.48977">
        <ele>248</ele>
        <time>2018-11-17T09:35:32Z</time>
      </trkpt>
      <trkpt lat="43.4668" lon="1.48979">
        <ele>248</ele>
        <time>2018-11-17T09:35:48Z</time>
      </trkpt>
      <trkpt lat="43.46675" lon="1.4898">
        <ele>248</ele>
        <time>2018-11-17T09:35:48Z</time>
      </trkpt>
      <trkpt lat="43.46671" lon="1.48982">
        <ele>248</ele>
        <time>2018-11-17T09:35:48Z</time>
      </trkpt>
      <trkpt lat="43.46668" lon="1.48986">
        <ele>248</ele>
        <time>2018-11-17T09:35:48Z</time>
      </trkpt>
      <trkpt lat="43.46663" lon="1.48988">
        <ele>248</ele>
        <time>2018-11-17T09:36:04Z</time>
      </trkpt>
      <trkpt lat="43.46658" lon="1.48989">
        <ele>248</ele>
        <time>2018-11-17T09:36:04Z</time>
      </trkpt>
      <trkpt lat="43.46654" lon="1.48991">
        <ele>248</ele>
        <time>2018-11-17T09:36:04Z</time>
      </trkpt>
      <trkpt lat="43.46652" lon="1.48995">
        <ele>248</ele>
        <time>2018-11-17T09:36:04Z</time>
      </trkpt>
      <trkpt lat="43.46649" lon="1.48999">
        <ele>248</ele>
        <time>2018-11-17T09:36:20Z</time>
      </trkpt>
      <trkpt lat="43.46644" lon="1.49">
        <ele>248</ele>
        <time>2018-11-17T09:36:20Z</time>
      </trkpt>
      <trkpt lat="43.46639" lon="1.49001">
        <ele>248</ele>
        <time>2018-11-17T09:36:20Z</time>
      </trkpt>
      <trkpt lat="43.46635" lon="1.49002">
        <ele>248</ele>
        <time>2018-11-17T09:36:20Z</time>
      </trkpt>
      <trkpt lat="43.4663" lon="1.49002">
        <ele>248</ele>
        <time>2018-11-17T09:36:36Z</time>
      </trkpt>
      <trkpt lat="43.46625" lon="1.49002">
        <ele>248</ele>
        <time>2018-11-17T09:36:36Z</time>
      </trkpt>
      <trkpt lat="43.46621" lon="1.49003">
        <ele>244</ele>
        <time>2018-11-17T09:36:36Z</time>
      </trkpt>
      <trkpt lat="43.46617" lon="1.49005">
        <ele>244</ele>
        <time>2018-11-17T09:36:36Z</time>
      </trkpt>
      <trkpt lat="43.46614" lon="1.49001">
        <ele>244</ele>
        <time>2018-11-17T09:36:52Z</time>
      </trkpt>
      <trkpt lat="43.46613" lon="1.48994">
        <ele>244</ele>
        <time>2018-11-17T09:36:52Z</time>
      </trkpt>
      <trkpt lat="43.46613" lon="1.4899">
        <ele>244</ele>
        <time>2018-11-17T09:36:52Z</time>
      </trkpt>
      <trkpt lat="43.46612" lon="1.48986">
        <ele>244</ele>
        <time>2018-11-17T09:36:52Z</time>
      </trkpt>
      <trkpt lat="43.46613" lon="1.48983">
        <ele>244</ele>
        <time>2018-11-17T09:37:08Z</time>
      </trkpt>
      <trkpt lat="43.46614" lon="1.48978">
        <ele>244</ele>
        <time>2018-11-17T09:37:08Z</time>
      </trkpt>
      <trkpt lat="43.46615" lon="1.48973">
        <ele>244</ele>
        <time>2018-11-17T09:37:08Z</time>
      </trkpt>
      <trkpt lat="43.46616" lon="1.48967">
        <ele>244</ele>
        <time>2018-11-17T09:37:08Z</time>
      </trkpt>
      <trkpt lat="43.46618" lon="1.48961">
        <ele>244</ele>
        <time>2018-11-17T09:37:24Z</time>
      </trkpt>
      <trkpt lat="43.46619" lon="1.48956">
        <ele>236</ele>
        <time>2018-11-17T09:37:24Z</time>
      </trkpt>
      <trkpt lat="43.4662" lon="1.4895">
        <ele>236</ele>
        <time>2018-11-17T09:37:24Z</time>
      </trkpt>
      <trkpt lat="43.46621" lon="1.48945">
        <ele>236</ele>
        <time>2018-11-17T09:37:24Z</time>
      </trkpt>
      <trkpt lat="43.46622" lon="1.48941">
        <ele>236</ele>
        <time>2018-11-17T09:37:40Z</time>
      </trkpt>
      <trkpt lat="43.46623" lon="1.48938">
        <ele>236</ele>
        <time>2018-11-17T09:37:40Z</time>
      </trkpt>
      <trkpt lat="43.46624" lon="1.48933">
        <ele>236</ele>
        <time>2018-11-17T09:37:40Z</time>
      </trkpt>
      <trkpt lat="43.46626" lon="1.48929">
        <ele>241</ele>
        <time>2018-11-17T09:37:40Z</time>
      </trkpt>
      <trkpt lat="43.46627" lon="1.48924">
        <ele>241</ele>
        <time>2018-11-17T09:37:56Z</time>
      </trkpt>
      <trkpt lat="43.46628" lon="1.4892">
        <ele>241</ele>
        <time>2018-11-17T09:37:56Z</time>
      </trkpt>
      <trkpt lat="43.4663" lon="1.48917">
        <ele>241</ele>
        <time>2018-11-17T09:37:56Z</time>
      </trkpt>
      <trkpt lat="43.4663" lon="1.48912">
        <ele>241</ele>
        <time>2018-11-17T09:37:56Z</time>
      </trkpt>
      <trkpt lat="43.46631" lon="1.48906">
        <ele>241</ele>
        <time>2018-11-17T09:38:16Z</time>
      </trkpt>
      <trkpt lat="43.46632" lon="1.48901">
        <ele>241</ele>
        <time>2018-11-17T09:38:16Z</time>
      </trkpt>
      <trkpt lat="43.46633" lon="1.48897">
        <ele>241</ele>
        <time>2018-11-17T09:38:16Z</time>
      </trkpt>
      <trkpt lat="43.46633" lon="1.48895">
        <ele>241</ele>
        <time>2018-11-17T09:38:16Z</time>
      </trkpt>
      <trkpt lat="43.46634" lon="1.48893">
        <ele>241</ele>
        <time>2018-11-17T09:38:16Z</time>
      </trkpt>
      <trkpt lat="43.46635" lon="1.48889">
        <ele>241</ele>
        <time>2018-11-17T09:38:32Z</time>
      </trkpt>
      <trkpt lat="43.46637" lon="1.48885">
        <ele>241</ele>
        <time>2018-11-17T09:38:32Z</time>
      </trkpt>
      <trkpt lat="43.46638" lon="1.48879">
        <ele>241</ele>
        <time>2018-11-17T09:38:32Z</time>
      </trkpt>
      <trkpt lat="43.46639" lon="1.4887">
        <ele>231</ele>
        <time>2018-11-17T09:38:32Z</time>
      </trkpt>
      <trkpt lat="43.46641" lon="1.48864">
        <ele>231</ele>
        <time>2018-11-17T09:38:48Z</time>
      </trkpt>
      <trkpt lat="43.46643" lon="1.48859">
        <ele>231</ele>
        <time>2018-11-17T09:38:48Z</time>
      </trkpt>
      <trkpt lat="43.46645" lon="1.48853">
        <ele>231</ele>
        <time>2018-11-17T09:38:48Z</time>
      </trkpt>
      <trkpt lat="43.46646" lon="1.48848">
        <ele>231</ele>
        <time>2018-11-17T09:38:48Z</time>
      </trkpt>
      <trkpt lat="43.46647" lon="1.48842">
        <ele>231</ele>
        <time>2018-11-17T09:39:04Z</time>
      </trkpt>
      <trkpt lat="43.46647" lon="1.48836">
        <ele>231</ele>
        <time>2018-11-17T09:39:04Z</time>
      </trkpt>
      <trkpt lat="43.46649" lon="1.48831">
        <ele>231</ele>
        <time>2018-11-17T09:39:04Z</time>
      </trkpt>
      <trkpt lat="43.4665" lon="1.48826">
        <ele>231</ele>
        <time>2018-11-17T09:39:04Z</time>
      </trkpt>
      <trkpt lat="43.4665" lon="1.48821">
        <ele>231</ele>
        <time>2018-11-17T09:39:24Z</time>
      </trkpt>
      <trkpt lat="43.46652" lon="1.48815">
        <ele>231</ele>
        <time>2018-11-17T09:39:24Z</time>
      </trkpt>
      <trkpt lat="43.46653" lon="1.48813">
        <ele>231</ele>
        <time>2018-11-17T09:39:24Z</time>
      </trkpt>
      <trkpt lat="43.46655" lon="1.48812">
        <ele>231</ele>
        <time>2018-11-17T09:39:24Z</time>
      </trkpt>
      <trkpt lat="43.46655" lon="1.48808">
        <ele>231</ele>
        <time>2018-11-17T09:39:24Z</time>
      </trkpt>
      <trkpt lat="43.46655" lon="1.48802">
        <ele>231</ele>
        <time>2018-11-17T09:39:40Z</time>
      </trkpt>
      <trkpt lat="43.46656" lon="1.48795">
        <ele>231</ele>
        <time>2018-11-17T09:39:40Z</time>
      </trkpt>
      <trkpt lat="43.46656" lon="1.48789">
        <ele>225</ele>
        <time>2018-11-17T09:39:40Z</time>
      </trkpt>
      <trkpt lat="43.46657" lon="1.48783">
        <ele>225</ele>
        <time>2018-11-17T09:39:40Z</time>
      </trkpt>
      <trkpt lat="43.46657" lon="1.48777">
        <ele>225</ele>
        <time>2018-11-17T09:39:56Z</time>
      </trkpt>
      <trkpt lat="43.46658" lon="1.48771">
        <ele>225</ele>
        <time>2018-11-17T09:39:56Z</time>
      </trkpt>
      <trkpt lat="43.46659" lon="1.48764">
        <ele>225</ele>
        <time>2018-11-17T09:39:56Z</time>
      </trkpt>
      <trkpt lat="43.46661" lon="1.48758">
        <ele>225</ele>
        <time>2018-11-17T09:39:56Z</time>
      </trkpt>
      <trkpt lat="43.46662" lon="1.48755">
        <ele>225</ele>
        <time>2018-11-17T09:40:12Z</time>
      </trkpt>
      <trkpt lat="43.46661" lon="1.4875">
        <ele>225</ele>
        <time>2018-11-17T09:40:12Z</time>
      </trkpt>
      <trkpt lat="43.46661" lon="1.48745">
        <ele>225</ele>
        <time>2018-11-17T09:40:12Z</time>
      </trkpt>
      <trkpt lat="43.46661" lon="1.48742">
        <ele>225</ele>
        <time>2018-11-17T09:40:12Z</time>
      </trkpt>
      <trkpt lat="43.46661" lon="1.48737">
        <ele>225</ele>
        <time>2018-11-17T09:40:28Z</time>
      </trkpt>
      <trkpt lat="43.46662" lon="1.48732">
        <ele>225</ele>
        <time>2018-11-17T09:40:28Z</time>
      </trkpt>
      <trkpt lat="43.46662" lon="1.48727">
        <ele>225</ele>
        <time>2018-11-17T09:40:28Z</time>
      </trkpt>
      <trkpt lat="43.46662" lon="1.48723">
        <ele>225</ele>
        <time>2018-11-17T09:40:28Z</time>
      </trkpt>
      <trkpt lat="43.46661" lon="1.48717">
        <ele>225</ele>
        <time>2018-11-17T09:40:44Z</time>
      </trkpt>
      <trkpt lat="43.46661" lon="1.48711">
        <ele>225</ele>
        <time>2018-11-17T09:40:44Z</time>
      </trkpt>
      <trkpt lat="43.46661" lon="1.48705">
        <ele>219</ele>
        <time>2018-11-17T09:40:44Z</time>
      </trkpt>
      <trkpt lat="43.4666" lon="1.487">
        <ele>219</ele>
        <time>2018-11-17T09:40:44Z</time>
      </trkpt>
      <trkpt lat="43.4666" lon="1.48695">
        <ele>219</ele>
        <time>2018-11-17T09:41:04Z</time>
      </trkpt>
      <trkpt lat="43.4666" lon="1.4869">
        <ele>219</ele>
        <time>2018-11-17T09:41:04Z</time>
      </trkpt>
      <trkpt lat="43.4666" lon="1.48688">
        <ele>219</ele>
        <time>2018-11-17T09:41:04Z</time>
      </trkpt>
      <trkpt lat="43.46659" lon="1.48683">
        <ele>219</ele>
        <time>2018-11-17T09:41:04Z</time>
      </trkpt>
      <trkpt lat="43.4666" lon="1.48682">
        <ele>219</ele>
        <time>2018-11-17T09:41:04Z</time>
      </trkpt>
      <trkpt lat="43.4666" lon="1.48681">
        <ele>219</ele>
        <time>2018-11-17T09:41:20Z</time>
      </trkpt>
      <trkpt lat="43.4666" lon="1.48675">
        <ele>219</ele>
        <time>2018-11-17T09:41:20Z</time>
      </trkpt>
      <trkpt lat="43.4666" lon="1.48669">
        <ele>219</ele>
        <time>2018-11-17T09:41:20Z</time>
      </trkpt>
      <trkpt lat="43.46659" lon="1.48661">
        <ele>219</ele>
        <time>2018-11-17T09:41:20Z</time>
      </trkpt>
      <trkpt lat="43.4666" lon="1.48652">
        <ele>219</ele>
        <time>2018-11-17T09:41:36Z</time>
      </trkpt>
      <trkpt lat="43.46661" lon="1.48646">
        <ele>219</ele>
        <time>2018-11-17T09:41:36Z</time>
      </trkpt>
      <trkpt lat="43.46663" lon="1.48641">
        <ele>219</ele>
        <time>2018-11-17T09:41:36Z</time>
      </trkpt>
      <trkpt lat="43.46662" lon="1.48636">
        <ele>219</ele>
        <time>2018-11-17T09:41:36Z</time>
      </trkpt>
      <trkpt lat="43.46665" lon="1.48631">
        <ele>219</ele>
        <time>2018-11-17T09:41:52Z</time>
      </trkpt>
      <trkpt lat="43.46668" lon="1.48622">
        <ele>211</ele>
        <time>2018-11-17T09:41:52Z</time>
      </trkpt>
      <trkpt lat="43.46672" lon="1.48615">
        <ele>211</ele>
        <time>2018-11-17T09:41:52Z</time>
      </trkpt>
      <trkpt lat="43.46676" lon="1.48608">
        <ele>211</ele>
        <time>2018-11-17T09:41:52Z</time>
      </trkpt>
      <trkpt lat="43.4668" lon="1.48601">
        <ele>211</ele>
        <time>2018-11-17T09:42:08Z</time>
      </trkpt>
      <trkpt lat="43.46685" lon="1.48595">
        <ele>211</ele>
        <time>2018-11-17T09:42:08Z</time>
      </trkpt>
      <trkpt lat="43.46688" lon="1.48591">
        <ele>211</ele>
        <time>2018-11-17T09:42:08Z</time>
      </trkpt>
      <trkpt lat="43.46692" lon="1.48586">
        <ele>211</ele>
        <time>2018-11-17T09:42:08Z</time>
      </trkpt>
      <trkpt lat="43.46694" lon="1.48581">
        <ele>211</ele>
        <time>2018-11-17T09:42:24Z</time>
      </trkpt>
      <trkpt lat="43.46694" lon="1.48575">
        <ele>211</ele>
        <time>2018-11-17T09:42:24Z</time>
      </trkpt>
      <trkpt lat="43.46695" lon="1.48569">
        <ele>211</ele>
        <time>2018-11-17T09:42:24Z</time>
      </trkpt>
      <trkpt lat="43.46696" lon="1.48564">
        <ele>211</ele>
        <time>2018-11-17T09:42:24Z</time>
      </trkpt>
      <trkpt lat="43.46697" lon="1.48558">
        <ele>211</ele>
        <time>2018-11-17T09:42:40Z</time>
      </trkpt>
      <trkpt lat="43.46699" lon="1.48553">
        <ele>211</ele>
        <time>2018-11-17T09:42:40Z</time>
      </trkpt>
      <trkpt lat="43.46701" lon="1.48548">
        <ele>211</ele>
        <time>2018-11-17T09:42:40Z</time>
      </trkpt>
      <trkpt lat="43.46702" lon="1.48544">
        <ele>211</ele>
        <time>2018-11-17T09:42:40Z</time>
      </trkpt>
      <trkpt lat="43.46702" lon="1.4854">
        <ele>206</ele>
        <time>2018-11-17T09:42:56Z</time>
      </trkpt>
      <trkpt lat="43.46704" lon="1.48533">
        <ele>206</ele>
        <time>2018-11-17T09:42:56Z</time>
      </trkpt>
      <trkpt lat="43.46708" lon="1.48528">
        <ele>206</ele>
        <time>2018-11-17T09:42:56Z</time>
      </trkpt>
      <trkpt lat="43.4671" lon="1.48521">
        <ele>210</ele>
        <time>2018-11-17T09:42:56Z</time>
      </trkpt>
      <trkpt lat="43.46712" lon="1.48515">
        <ele>210</ele>
        <time>2018-11-17T09:43:12Z</time>
      </trkpt>
      <trkpt lat="43.46713" lon="1.4851">
        <ele>210</ele>
        <time>2018-11-17T09:43:12Z</time>
      </trkpt>
      <trkpt lat="43.46714" lon="1.48505">
        <ele>210</ele>
        <time>2018-11-17T09:43:12Z</time>
      </trkpt>
      <trkpt lat="43.46716" lon="1.48498">
        <ele>210</ele>
        <time>2018-11-17T09:43:12Z</time>
      </trkpt>
      <trkpt lat="43.46718" lon="1.48493">
        <ele>210</ele>
        <time>2018-11-17T09:43:28Z</time>
      </trkpt>
      <trkpt lat="43.46719" lon="1.48488">
        <ele>210</ele>
        <time>2018-11-17T09:43:28Z</time>
      </trkpt>
      <trkpt lat="43.46721" lon="1.48484">
        <ele>210</ele>
        <time>2018-11-17T09:43:28Z</time>
      </trkpt>
      <trkpt lat="43.46722" lon="1.48478">
        <ele>210</ele>
        <time>2018-11-17T09:43:28Z</time>
      </trkpt>
      <trkpt lat="43.46724" lon="1.4847">
        <ele>210</ele>
        <time>2018-11-17T09:43:44Z</time>
      </trkpt>
      <trkpt lat="43.46726" lon="1.48463">
        <ele>210</ele>
        <time>2018-11-17T09:43:44Z</time>
      </trkpt>
      <trkpt lat="43.46727" lon="1.48457">
        <ele>203</ele>
        <time>2018-11-17T09:43:44Z</time>
      </trkpt>
      <trkpt lat="43.46727" lon="1.48449">
        <ele>203</ele>
        <time>2018-11-17T09:43:44Z</time>
      </trkpt>
      <trkpt lat="43.46726" lon="1.48443">
        <ele>203</ele>
        <time>2018-11-17T09:44:00Z</time>
      </trkpt>
      <trkpt lat="43.46725" lon="1.48436">
        <ele>203</ele>
        <time>2018-11-17T09:44:00Z</time>
      </trkpt>
      <trkpt lat="43.46724" lon="1.4843">
        <ele>203</ele>
        <time>2018-11-17T09:44:00Z</time>
      </trkpt>
      <trkpt lat="43.46722" lon="1.48423">
        <ele>203</ele>
        <time>2018-11-17T09:44:00Z</time>
      </trkpt>
      <trkpt lat="43.4672" lon="1.48415">
        <ele>203</ele>
        <time>2018-11-17T09:44:16Z</time>
      </trkpt>
      <trkpt lat="43.46718" lon="1.4841">
        <ele>203</ele>
        <time>2018-11-17T09:44:16Z</time>
      </trkpt>
      <trkpt lat="43.46716" lon="1.48401">
        <ele>203</ele>
        <time>2018-11-17T09:44:16Z</time>
      </trkpt>
      <trkpt lat="43.46713" lon="1.48396">
        <ele>203</ele>
        <time>2018-11-17T09:44:16Z</time>
      </trkpt>
      <trkpt lat="43.46711" lon="1.48391">
        <ele>203</ele>
        <time>2018-11-17T09:44:32Z</time>
      </trkpt>
      <trkpt lat="43.46709" lon="1.48387">
        <ele>203</ele>
        <time>2018-11-17T09:44:32Z</time>
      </trkpt>
      <trkpt lat="43.46706" lon="1.48382">
        <ele>203</ele>
        <time>2018-11-17T09:44:32Z</time>
      </trkpt>
      <trkpt lat="43.46703" lon="1.48376">
        <ele>203</ele>
        <time>2018-11-17T09:44:32Z</time>
      </trkpt>
      <trkpt lat="43.467" lon="1.48371">
        <ele>203</ele>
        <time>2018-11-17T09:44:48Z</time>
      </trkpt>
      <trkpt lat="43.46697" lon="1.48365">
        <ele>203</ele>
        <time>2018-11-17T09:44:48Z</time>
      </trkpt>
      <trkpt lat="43.46694" lon="1.48359">
        <ele>203</ele>
        <time>2018-11-17T09:44:48Z</time>
      </trkpt>
      <trkpt lat="43.46692" lon="1.48354">
        <ele>203</ele>
        <time>2018-11-17T09:44:48Z</time>
      </trkpt>
      <trkpt lat="43.4669" lon="1.48348">
        <ele>203</ele>
        <time>2018-11-17T09:45:04Z</time>
      </trkpt>
      <trkpt lat="43.46687" lon="1.48345">
        <ele>203</ele>
        <time>2018-11-17T09:45:04Z</time>
      </trkpt>
      <trkpt lat="43.46684" lon="1.48346">
        <ele>203</ele>
        <time>2018-11-17T09:45:04Z</time>
      </trkpt>
      <trkpt lat="43.46681" lon="1.48349">
        <ele>203</ele>
        <time>2018-11-17T09:45:04Z</time>
      </trkpt>
      <trkpt lat="43.46678" lon="1.48353">
        <ele>203</ele>
        <time>2018-11-17T09:45:20Z</time>
      </trkpt>
      <trkpt lat="43.46674" lon="1.48354">
        <ele>203</ele>
        <time>2018-11-17T09:45:20Z</time>
      </trkpt>
      <trkpt lat="43.46669" lon="1.48354">
        <ele>203</ele>
        <time>2018-11-17T09:45:20Z</time>
      </trkpt>
      <trkpt lat="43.46664" lon="1.48356">
        <ele>203</ele>
        <time>2018-11-17T09:45:20Z</time>
      </trkpt>
      <trkpt lat="43.46658" lon="1.48357">
        <ele>203</ele>
        <time>2018-11-17T09:45:36Z</time>
      </trkpt>
      <trkpt lat="43.46652" lon="1.48356">
        <ele>203</ele>
        <time>2018-11-17T09:45:36Z</time>
      </trkpt>
      <trkpt lat="43.46647" lon="1.48359">
        <ele>203</ele>
        <time>2018-11-17T09:45:36Z</time>
      </trkpt>
      <trkpt lat="43.46645" lon="1.48364">
        <ele>203</ele>
        <time>2018-11-17T09:45:36Z</time>
      </trkpt>
      <trkpt lat="43.46639" lon="1.48364">
        <ele>203</ele>
        <time>2018-11-17T09:45:52Z</time>
      </trkpt>
      <trkpt lat="43.46632" lon="1.48365">
        <ele>203</ele>
        <time>2018-11-17T09:45:52Z</time>
      </trkpt>
      <trkpt lat="43.46628" lon="1.48367">
        <ele>203</ele>
        <time>2018-11-17T09:45:52Z</time>
      </trkpt>
      <trkpt lat="43.46624" lon="1.48369">
        <ele>207</ele>
        <time>2018-11-17T09:45:52Z</time>
      </trkpt>
      <trkpt lat="43.4662" lon="1.48371">
        <ele>207</ele>
        <time>2018-11-17T09:46:08Z</time>
      </trkpt>
      <trkpt lat="43.46617" lon="1.48374">
        <ele>207</ele>
        <time>2018-11-17T09:46:08Z</time>
      </trkpt>
      <trkpt lat="43.46614" lon="1.48379">
        <ele>205</ele>
        <time>2018-11-17T09:46:08Z</time>
      </trkpt>
      <trkpt lat="43.4661" lon="1.48383">
        <ele>205</ele>
        <time>2018-11-17T09:46:08Z</time>
      </trkpt>
      <trkpt lat="43.46604" lon="1.48383">
        <ele>205</ele>
        <time>2018-11-17T09:46:24Z</time>
      </trkpt>
      <trkpt lat="43.466" lon="1.48385">
        <ele>205</ele>
        <time>2018-11-17T09:46:24Z</time>
      </trkpt>
      <trkpt lat="43.46595" lon="1.48387">
        <ele>205</ele>
        <time>2018-11-17T09:46:24Z</time>
      </trkpt>
      <trkpt lat="43.46589" lon="1.4839">
        <ele>205</ele>
        <time>2018-11-17T09:46:24Z</time>
      </trkpt>
      <trkpt lat="43.46583" lon="1.48392">
        <ele>205</ele>
        <time>2018-11-17T09:46:40Z</time>
      </trkpt>
      <trkpt lat="43.46578" lon="1.48395">
        <ele>205</ele>
        <time>2018-11-17T09:46:40Z</time>
      </trkpt>
      <trkpt lat="43.46575" lon="1.484">
        <ele>205</ele>
        <time>2018-11-17T09:46:40Z</time>
      </trkpt>
      <trkpt lat="43.46573" lon="1.48406">
        <ele>205</ele>
        <time>2018-11-17T09:46:40Z</time>
      </trkpt>
      <trkpt lat="43.46574" lon="1.48414">
        <ele>205</ele>
        <time>2018-11-17T09:46:56Z</time>
      </trkpt>
      <trkpt lat="43.46571" lon="1.48417">
        <ele>205</ele>
        <time>2018-11-17T09:46:56Z</time>
      </trkpt>
      <trkpt lat="43.46567" lon="1.48421">
        <ele>205</ele>
        <time>2018-11-17T09:46:56Z</time>
      </trkpt>
      <trkpt lat="43.46567" lon="1.48427">
        <ele>205</ele>
        <time>2018-11-17T09:46:56Z</time>
      </trkpt>
      <trkpt lat="43.46564" lon="1.48433">
        <ele>205</ele>
        <time>2018-11-17T09:47:12Z</time>
      </trkpt>
      <trkpt lat="43.46562" lon="1.48438">
        <ele>205</ele>
        <time>2018-11-17T09:47:12Z</time>
      </trkpt>
      <trkpt lat="43.4656" lon="1.48442">
        <ele>205</ele>
        <time>2018-11-17T09:47:12Z</time>
      </trkpt>
      <trkpt lat="43.46557" lon="1.48446">
        <ele>205</ele>
        <time>2018-11-17T09:47:12Z</time>
      </trkpt>
      <trkpt lat="43.46554" lon="1.48449">
        <ele>205</ele>
        <time>2018-11-17T09:47:28Z</time>
      </trkpt>
      <trkpt lat="43.46549" lon="1.48453">
        <ele>205</ele>
        <time>2018-11-17T09:47:28Z</time>
      </trkpt>
      <trkpt lat="43.46545" lon="1.48458">
        <ele>205</ele>
        <time>2018-11-17T09:47:28Z</time>
      </trkpt>
      <trkpt lat="43.46541" lon="1.48461">
        <ele>202</ele>
        <time>2018-11-17T09:47:28Z</time>
      </trkpt>
      <trkpt lat="43.46537" lon="1.48466">
        <ele>202</ele>
        <time>2018-11-17T09:47:44Z</time>
      </trkpt>
      <trkpt lat="43.46531" lon="1.48469">
        <ele>202</ele>
        <time>2018-11-17T09:47:44Z</time>
      </trkpt>
      <trkpt lat="43.46526" lon="1.48474">
        <ele>202</ele>
        <time>2018-11-17T09:47:44Z</time>
      </trkpt>
      <trkpt lat="43.4652" lon="1.4848">
        <ele>202</ele>
        <time>2018-11-17T09:47:44Z</time>
      </trkpt>
      <trkpt lat="43.46515" lon="1.48477">
        <ele>202</ele>
        <time>2018-11-17T09:48:04Z</time>
      </trkpt>
      <trkpt lat="43.46514" lon="1.48476">
        <ele>202</ele>
        <time>2018-11-17T09:48:04Z</time>
      </trkpt>
      <trkpt lat="43.46512" lon="1.48476">
        <ele>202</ele>
        <time>2018-11-17T09:48:04Z</time>
      </trkpt>
      <trkpt lat="43.4651" lon="1.48477">
        <ele>202</ele>
        <time>2018-11-17T09:48:04Z</time>
      </trkpt>
      <trkpt lat="43.46504" lon="1.48479">
        <ele>202</ele>
        <time>2018-11-17T09:48:04Z</time>
      </trkpt>
      <trkpt lat="43.46499" lon="1.4848">
        <ele>202</ele>
        <time>2018-11-17T09:48:20Z</time>
      </trkpt>
      <trkpt lat="43.46493" lon="1.4848">
        <ele>202</ele>
        <time>2018-11-17T09:48:20Z</time>
      </trkpt>
      <trkpt lat="43.4649" lon="1.4848">
        <ele>202</ele>
        <time>2018-11-17T09:48:20Z</time>
      </trkpt>
      <trkpt lat="43.46486" lon="1.48483">
        <ele>202</ele>
        <time>2018-11-17T09:48:20Z</time>
      </trkpt>
      <trkpt lat="43.46482" lon="1.48484">
        <ele>202</ele>
        <time>2018-11-17T09:48:36Z</time>
      </trkpt>
      <trkpt lat="43.46477" lon="1.48483">
        <ele>202</ele>
        <time>2018-11-17T09:48:36Z</time>
      </trkpt>
      <trkpt lat="43.46473" lon="1.48483">
        <ele>202</ele>
        <time>2018-11-17T09:48:36Z</time>
      </trkpt>
      <trkpt lat="43.46466" lon="1.48483">
        <ele>202</ele>
        <time>2018-11-17T09:48:36Z</time>
      </trkpt>
      <trkpt lat="43.46462" lon="1.48484">
        <ele>202</ele>
        <time>2018-11-17T09:48:52Z</time>
      </trkpt>
      <trkpt lat="43.46456" lon="1.48485">
        <ele>207</ele>
        <time>2018-11-17T09:48:52Z</time>
      </trkpt>
      <trkpt lat="43.46452" lon="1.48484">
        <ele>207</ele>
        <time>2018-11-17T09:48:52Z</time>
      </trkpt>
      <trkpt lat="43.46447" lon="1.48481">
        <ele>207</ele>
        <time>2018-11-17T09:48:52Z</time>
      </trkpt>
      <trkpt lat="43.46443" lon="1.48481">
        <ele>207</ele>
        <time>2018-11-17T09:49:08Z</time>
      </trkpt>
      <trkpt lat="43.46438" lon="1.48481">
        <ele>207</ele>
        <time>2018-11-17T09:49:08Z</time>
      </trkpt>
      <trkpt lat="43.46434" lon="1.48478">
        <ele>207</ele>
        <time>2018-11-17T09:49:08Z</time>
      </trkpt>
      <trkpt lat="43.46431" lon="1.48476">
        <ele>207</ele>
        <time>2018-11-17T09:49:08Z</time>
      </trkpt>
      <trkpt lat="43.4643" lon="1.48475">
        <ele>207</ele>
        <time>2018-11-17T09:49:24Z</time>
      </trkpt>
      <trkpt lat="43.46426" lon="1.48474">
        <ele>207</ele>
        <time>2018-11-17T09:49:24Z</time>
      </trkpt>
      <trkpt lat="43.46423" lon="1.48472">
        <ele>207</ele>
        <time>2018-11-17T09:49:24Z</time>
      </trkpt>
      <trkpt lat="43.4642" lon="1.48471">
        <ele>207</ele>
        <time>2018-11-17T09:49:24Z</time>
      </trkpt>
      <trkpt lat="43.46419" lon="1.48471">
        <ele>207</ele>
        <time>2018-11-17T09:49:40Z</time>
      </trkpt>
      <trkpt lat="43.46417" lon="1.48467">
        <ele>207</ele>
        <time>2018-11-17T09:49:40Z</time>
      </trkpt>
      <trkpt lat="43.46413" lon="1.48463">
        <ele>207</ele>
        <time>2018-11-17T09:49:40Z</time>
      </trkpt>
      <trkpt lat="43.46412" lon="1.48461">
        <ele>207</ele>
        <time>2018-11-17T09:49:40Z</time>
      </trkpt>
      <trkpt lat="43.4641" lon="1.4846">
        <ele>207</ele>
        <time>2018-11-17T09:49:56Z</time>
      </trkpt>
      <trkpt lat="43.46405" lon="1.48456">
        <ele>211</ele>
        <time>2018-11-17T09:49:56Z</time>
      </trkpt>
      <trkpt lat="43.46399" lon="1.48451">
        <ele>211</ele>
        <time>2018-11-17T09:49:56Z</time>
      </trkpt>
      <trkpt lat="43.46395" lon="1.48448">
        <ele>211</ele>
        <time>2018-11-17T09:49:56Z</time>
      </trkpt>
      <trkpt lat="43.4639" lon="1.48445">
        <ele>211</ele>
        <time>2018-11-17T09:50:12Z</time>
      </trkpt>
      <trkpt lat="43.46386" lon="1.48444">
        <ele>211</ele>
        <time>2018-11-17T09:50:12Z</time>
      </trkpt>
      <trkpt lat="43.46381" lon="1.48438">
        <ele>211</ele>
        <time>2018-11-17T09:50:12Z</time>
      </trkpt>
      <trkpt lat="43.46378" lon="1.48436">
        <ele>211</ele>
        <time>2018-11-17T09:50:12Z</time>
      </trkpt>
      <trkpt lat="43.46372" lon="1.48434">
        <ele>217</ele>
        <time>2018-11-17T09:50:28Z</time>
      </trkpt>
      <trkpt lat="43.46365" lon="1.48431">
        <ele>217</ele>
        <time>2018-11-17T09:50:28Z</time>
      </trkpt>
      <trkpt lat="43.46359" lon="1.48428">
        <ele>217</ele>
        <time>2018-11-17T09:50:28Z</time>
      </trkpt>
      <trkpt lat="43.46352" lon="1.48426">
        <ele>217</ele>
        <time>2018-11-17T09:50:28Z</time>
      </trkpt>
      <trkpt lat="43.46346" lon="1.48425">
        <ele>217</ele>
        <time>2018-11-17T09:50:44Z</time>
      </trkpt>
      <trkpt lat="43.46341" lon="1.48422">
        <ele>217</ele>
        <time>2018-11-17T09:50:44Z</time>
      </trkpt>
      <trkpt lat="43.46336" lon="1.48419">
        <ele>217</ele>
        <time>2018-11-17T09:50:44Z</time>
      </trkpt>
      <trkpt lat="43.46331" lon="1.48416">
        <ele>217</ele>
        <time>2018-11-17T09:50:44Z</time>
      </trkpt>
      <trkpt lat="43.46327" lon="1.48415">
        <ele>217</ele>
        <time>2018-11-17T09:51:00Z</time>
      </trkpt>
      <trkpt lat="43.46323" lon="1.48414">
        <ele>217</ele>
        <time>2018-11-17T09:51:00Z</time>
      </trkpt>
      <trkpt lat="43.46318" lon="1.48413">
        <ele>217</ele>
        <time>2018-11-17T09:51:00Z</time>
      </trkpt>
      <trkpt lat="43.46315" lon="1.48411">
        <ele>217</ele>
        <time>2018-11-17T09:51:00Z</time>
      </trkpt>
      <trkpt lat="43.4631" lon="1.48408">
        <ele>217</ele>
        <time>2018-11-17T09:51:16Z</time>
      </trkpt>
      <trkpt lat="43.46305" lon="1.48407">
        <ele>217</ele>
        <time>2018-11-17T09:51:16Z</time>
      </trkpt>
      <trkpt lat="43.46301" lon="1.48404">
        <ele>217</ele>
        <time>2018-11-17T09:51:16Z</time>
      </trkpt>
      <trkpt lat="43.46298" lon="1.48403">
        <ele>217</ele>
        <time>2018-11-17T09:51:16Z</time>
      </trkpt>
      <trkpt lat="43.46294" lon="1.48402">
        <ele>217</ele>
        <time>2018-11-17T09:51:32Z</time>
      </trkpt>
      <trkpt lat="43.46289" lon="1.48401">
        <ele>224</ele>
        <time>2018-11-17T09:51:32Z</time>
      </trkpt>
      <trkpt lat="43.46286" lon="1.484">
        <ele>224</ele>
        <time>2018-11-17T09:51:32Z</time>
      </trkpt>
      <trkpt lat="43.46282" lon="1.484">
        <ele>224</ele>
        <time>2018-11-17T09:51:32Z</time>
      </trkpt>
      <trkpt lat="43.46277" lon="1.48398">
        <ele>224</ele>
        <time>2018-11-17T09:51:52Z</time>
      </trkpt>
      <trkpt lat="43.46273" lon="1.48395">
        <ele>224</ele>
        <time>2018-11-17T09:51:52Z</time>
      </trkpt>
      <trkpt lat="43.46272" lon="1.48393">
        <ele>224</ele>
        <time>2018-11-17T09:51:52Z</time>
      </trkpt>
      <trkpt lat="43.46271" lon="1.48393">
        <ele>224</ele>
        <time>2018-11-17T09:51:52Z</time>
      </trkpt>
      <trkpt lat="43.46267" lon="1.48392">
        <ele>224</ele>
        <time>2018-11-17T09:51:52Z</time>
      </trkpt>
      <trkpt lat="43.46264" lon="1.4839">
        <ele>224</ele>
        <time>2018-11-17T09:52:08Z</time>
      </trkpt>
      <trkpt lat="43.4626" lon="1.48388">
        <ele>224</ele>
        <time>2018-11-17T09:52:08Z</time>
      </trkpt>
      <trkpt lat="43.46256" lon="1.48388">
        <ele>224</ele>
        <time>2018-11-17T09:52:08Z</time>
      </trkpt>
      <trkpt lat="43.46251" lon="1.48388">
        <ele>224</ele>
        <time>2018-11-17T09:52:08Z</time>
      </trkpt>
      <trkpt lat="43.46244" lon="1.48386">
        <ele>224</ele>
        <time>2018-11-17T09:52:24Z</time>
      </trkpt>
      <trkpt lat="43.4624" lon="1.48384">
        <ele>224</ele>
        <time>2018-11-17T09:52:24Z</time>
      </trkpt>
      <trkpt lat="43.46236" lon="1.48382">
        <ele>224</ele>
        <time>2018-11-17T09:52:24Z</time>
      </trkpt>
      <trkpt lat="43.46231" lon="1.48384">
        <ele>224</ele>
        <time>2018-11-17T09:52:24Z</time>
      </trkpt>
      <trkpt lat="43.46226" lon="1.48392">
        <ele>224</ele>
        <time>2018-11-17T09:52:40Z</time>
      </trkpt>
      <trkpt lat="43.46222" lon="1.48394">
        <ele>224</ele>
        <time>2018-11-17T09:52:40Z</time>
      </trkpt>
      <trkpt lat="43.46219" lon="1.48397">
        <ele>224</ele>
        <time>2018-11-17T09:52:40Z</time>
      </trkpt>
      <trkpt lat="43.46215" lon="1.48403">
        <ele>224</ele>
        <time>2018-11-17T09:52:40Z</time>
      </trkpt>
      <trkpt lat="43.46209" lon="1.4841">
        <ele>224</ele>
        <time>2018-11-17T09:52:56Z</time>
      </trkpt>
      <trkpt lat="43.46204" lon="1.48417">
        <ele>225</ele>
        <time>2018-11-17T09:52:56Z</time>
      </trkpt>
      <trkpt lat="43.46204" lon="1.4842">
        <ele>225</ele>
        <time>2018-11-17T09:52:56Z</time>
      </trkpt>
      <trkpt lat="43.46204" lon="1.48422">
        <ele>225</ele>
        <time>2018-11-17T09:52:56Z</time>
      </trkpt>
      <trkpt lat="43.46203" lon="1.48423">
        <ele>225</ele>
        <time>2018-11-17T09:53:16Z</time>
      </trkpt>
      <trkpt lat="43.46202" lon="1.48424">
        <ele>225</ele>
        <time>2018-11-17T09:53:16Z</time>
      </trkpt>
      <trkpt lat="43.462" lon="1.48426">
        <ele>225</ele>
        <time>2018-11-17T09:53:16Z</time>
      </trkpt>
      <trkpt lat="43.46197" lon="1.48428">
        <ele>225</ele>
        <time>2018-11-17T09:53:16Z</time>
      </trkpt>
      <trkpt lat="43.46192" lon="1.48436">
        <ele>225</ele>
        <time>2018-11-17T09:53:16Z</time>
      </trkpt>
      <trkpt lat="43.46188" lon="1.48442">
        <ele>225</ele>
        <time>2018-11-17T09:53:32Z</time>
      </trkpt>
      <trkpt lat="43.46185" lon="1.48449">
        <ele>225</ele>
        <time>2018-11-17T09:53:32Z</time>
      </trkpt>
      <trkpt lat="43.4618" lon="1.48456">
        <ele>225</ele>
        <time>2018-11-17T09:53:32Z</time>
      </trkpt>
      <trkpt lat="43.46178" lon="1.48462">
        <ele>230</ele>
        <time>2018-11-17T09:53:32Z</time>
      </trkpt>
      <trkpt lat="43.46175" lon="1.48466">
        <ele>230</ele>
        <time>2018-11-17T09:53:48Z</time>
      </trkpt>
      <trkpt lat="43.46172" lon="1.4847">
        <ele>230</ele>
        <time>2018-11-17T09:53:48Z</time>
      </trkpt>
      <trkpt lat="43.46167" lon="1.48475">
        <ele>230</ele>
        <time>2018-11-17T09:53:48Z</time>
      </trkpt>
      <trkpt lat="43.46163" lon="1.48481">
        <ele>230</ele>
        <time>2018-11-17T09:53:48Z</time>
      </trkpt>
      <trkpt lat="43.46161" lon="1.48488">
        <ele>230</ele>
        <time>2018-11-17T09:54:04Z</time>
      </trkpt>
      <trkpt lat="43.46154" lon="1.48499">
        <ele>230</ele>
        <time>2018-11-17T09:54:04Z</time>
      </trkpt>
      <trkpt lat="43.46149" lon="1.4851">
        <ele>230</ele>
        <time>2018-11-17T09:54:04Z</time>
      </trkpt>
      <trkpt lat="43.46148" lon="1.48515">
        <ele>230</ele>
        <time>2018-11-17T09:54:04Z</time>
      </trkpt>
      <trkpt lat="43.46149" lon="1.48516">
        <ele>230</ele>
        <time>2018-11-17T09:54:24Z</time>
      </trkpt>
      <trkpt lat="43.46149" lon="1.48515">
        <ele>230</ele>
        <time>2018-11-17T09:54:24Z</time>
      </trkpt>
      <trkpt lat="43.46146" lon="1.48515">
        <ele>230</ele>
        <time>2018-11-17T09:54:24Z</time>
      </trkpt>
      <trkpt lat="43.46143" lon="1.48517">
        <ele>230</ele>
        <time>2018-11-17T09:54:24Z</time>
      </trkpt>
      <trkpt lat="43.4614" lon="1.48524">
        <ele>230</ele>
        <time>2018-11-17T09:54:24Z</time>
      </trkpt>
      <trkpt lat="43.46139" lon="1.48524">
        <ele>230</ele>
        <time>2018-11-17T09:57:20Z</time>
      </trkpt>
      <trkpt lat="43.46138" lon="1.48528">
        <ele>230</ele>
        <time>2018-11-17T09:57:20Z</time>
      </trkpt>
      <trkpt lat="43.46121" lon="1.4856">
        <ele>240</ele>
        <time>2018-11-17T09:57:20Z</time>
      </trkpt>
      <trkpt lat="43.46024" lon="1.48719">
        <ele>246</ele>
        <time>2018-11-17T09:57:20Z</time>
      </trkpt>
      <trkpt lat="43.46027" lon="1.48727">
        <ele>246</ele>
        <time>2018-11-17T09:57:36Z</time>
      </trkpt>
      <trkpt lat="43.46025" lon="1.48732">
        <ele>246</ele>
        <time>2018-11-17T09:57:36Z</time>
      </trkpt>
      <trkpt lat="43.46024" lon="1.48738">
        <ele>246</ele>
        <time>2018-11-17T09:57:36Z</time>
      </trkpt>
      <trkpt lat="43.46023" lon="1.48744">
        <ele>246</ele>
        <time>2018-11-17T09:57:36Z</time>
      </trkpt>
      <trkpt lat="43.4602" lon="1.48751">
        <ele>246</ele>
        <time>2018-11-17T09:57:52Z</time>
      </trkpt>
      <trkpt lat="43.46016" lon="1.48758">
        <ele>246</ele>
        <time>2018-11-17T09:57:52Z</time>
      </trkpt>
      <trkpt lat="43.46012" lon="1.48764">
        <ele>246</ele>
        <time>2018-11-17T09:57:52Z</time>
      </trkpt>
      <trkpt lat="43.46009" lon="1.4877">
        <ele>246</ele>
        <time>2018-11-17T09:57:52Z</time>
      </trkpt>
      <trkpt lat="43.46005" lon="1.48776">
        <ele>246</ele>
        <time>2018-11-17T09:58:08Z</time>
      </trkpt>
      <trkpt lat="43.46001" lon="1.48781">
        <ele>246</ele>
        <time>2018-11-17T09:58:08Z</time>
      </trkpt>
      <trkpt lat="43.45998" lon="1.48787">
        <ele>246</ele>
        <time>2018-11-17T09:58:08Z</time>
      </trkpt>
      <trkpt lat="43.45995" lon="1.48793">
        <ele>249</ele>
        <time>2018-11-17T09:58:08Z</time>
      </trkpt>
      <trkpt lat="43.45992" lon="1.488">
        <ele>249</ele>
        <time>2018-11-17T09:58:24Z</time>
      </trkpt>
      <trkpt lat="43.45991" lon="1.48804">
        <ele>249</ele>
        <time>2018-11-17T09:58:24Z</time>
      </trkpt>
      <trkpt lat="43.45989" lon="1.48808">
        <ele>249</ele>
        <time>2018-11-17T09:58:24Z</time>
      </trkpt>
      <trkpt lat="43.45987" lon="1.48813">
        <ele>249</ele>
        <time>2018-11-17T09:58:24Z</time>
      </trkpt>
      <trkpt lat="43.45984" lon="1.48818">
        <ele>249</ele>
        <time>2018-11-17T09:58:40Z</time>
      </trkpt>
      <trkpt lat="43.4598" lon="1.48824">
        <ele>249</ele>
        <time>2018-11-17T09:58:40Z</time>
      </trkpt>
      <trkpt lat="43.45978" lon="1.48829">
        <ele>249</ele>
        <time>2018-11-17T09:58:40Z</time>
      </trkpt>
      <trkpt lat="43.45975" lon="1.48833">
        <ele>249</ele>
        <time>2018-11-17T09:58:40Z</time>
      </trkpt>
      <trkpt lat="43.45974" lon="1.48837">
        <ele>249</ele>
        <time>2018-11-17T09:58:56Z</time>
      </trkpt>
      <trkpt lat="43.45971" lon="1.48842">
        <ele>249</ele>
        <time>2018-11-17T09:58:56Z</time>
      </trkpt>
      <trkpt lat="43.45968" lon="1.48847">
        <ele>249</ele>
        <time>2018-11-17T09:58:56Z</time>
      </trkpt>
      <trkpt lat="43.45965" lon="1.48851">
        <ele>249</ele>
        <time>2018-11-17T09:58:56Z</time>
      </trkpt>
      <trkpt lat="43.45963" lon="1.48857">
        <ele>249</ele>
        <time>2018-11-17T09:59:12Z</time>
      </trkpt>
      <trkpt lat="43.45961" lon="1.48862">
        <ele>249</ele>
        <time>2018-11-17T09:59:12Z</time>
      </trkpt>
      <trkpt lat="43.45958" lon="1.48867">
        <ele>251</ele>
        <time>2018-11-17T09:59:12Z</time>
      </trkpt>
      <trkpt lat="43.45955" lon="1.48872">
        <ele>251</ele>
        <time>2018-11-17T09:59:12Z</time>
      </trkpt>
      <trkpt lat="43.45952" lon="1.48877">
        <ele>254</ele>
        <time>2018-11-17T09:59:28Z</time>
      </trkpt>
      <trkpt lat="43.45951" lon="1.48882">
        <ele>254</ele>
        <time>2018-11-17T09:59:28Z</time>
      </trkpt>
      <trkpt lat="43.45949" lon="1.48884">
        <ele>254</ele>
        <time>2018-11-17T09:59:28Z</time>
      </trkpt>
      <trkpt lat="43.45947" lon="1.4889">
        <ele>254</ele>
        <time>2018-11-17T09:59:28Z</time>
      </trkpt>
      <trkpt lat="43.45947" lon="1.48891">
        <ele>254</ele>
        <time>2018-11-17T09:59:44Z</time>
      </trkpt>
      <trkpt lat="43.45946" lon="1.48892">
        <ele>254</ele>
        <time>2018-11-17T09:59:44Z</time>
      </trkpt>
      <trkpt lat="43.45943" lon="1.48899">
        <ele>254</ele>
        <time>2018-11-17T09:59:44Z</time>
      </trkpt>
      <trkpt lat="43.45938" lon="1.48904">
        <ele>254</ele>
        <time>2018-11-17T09:59:44Z</time>
      </trkpt>
      <trkpt lat="43.45933" lon="1.48908">
        <ele>254</ele>
        <time>2018-11-17T10:00:00Z</time>
      </trkpt>
      <trkpt lat="43.45932" lon="1.48911">
        <ele>254</ele>
        <time>2018-11-17T10:00:00Z</time>
      </trkpt>
      <trkpt lat="43.45928" lon="1.48917">
        <ele>254</ele>
        <time>2018-11-17T10:00:00Z</time>
      </trkpt>
      <trkpt lat="43.45925" lon="1.48924">
        <ele>254</ele>
        <time>2018-11-17T10:00:00Z</time>
      </trkpt>
      <trkpt lat="43.45919" lon="1.4893">
        <ele>254</ele>
        <time>2018-11-17T10:00:16Z</time>
      </trkpt>
      <trkpt lat="43.45918" lon="1.48932">
        <ele>254</ele>
        <time>2018-11-17T10:00:16Z</time>
      </trkpt>
      <trkpt lat="43.45915" lon="1.48937">
        <ele>254</ele>
        <time>2018-11-17T10:00:16Z</time>
      </trkpt>
      <trkpt lat="43.4591" lon="1.48944">
        <ele>254</ele>
        <time>2018-11-17T10:00:16Z</time>
      </trkpt>
      <trkpt lat="43.45904" lon="1.48954">
        <ele>254</ele>
        <time>2018-11-17T10:00:32Z</time>
      </trkpt>
      <trkpt lat="43.45899" lon="1.48962">
        <ele>255</ele>
        <time>2018-11-17T10:00:32Z</time>
      </trkpt>
      <trkpt lat="43.45897" lon="1.48967">
        <ele>255</ele>
        <time>2018-11-17T10:00:32Z</time>
      </trkpt>
      <trkpt lat="43.45894" lon="1.48973">
        <ele>255</ele>
        <time>2018-11-17T10:00:32Z</time>
      </trkpt>
      <trkpt lat="43.45889" lon="1.48985">
        <ele>255</ele>
        <time>2018-11-17T10:02:28Z</time>
      </trkpt>
      <trkpt lat="43.45887" lon="1.48985">
        <ele>255</ele>
        <time>2018-11-17T10:02:28Z</time>
      </trkpt>
      <trkpt lat="43.45887" lon="1.48986">
        <ele>255</ele>
        <time>2018-11-17T10:02:28Z</time>
      </trkpt>
      <trkpt lat="43.45888" lon="1.48986">
        <ele>255</ele>
        <time>2018-11-17T10:02:28Z</time>
      </trkpt>
      <trkpt lat="43.45888" lon="1.48986">
        <ele>255</ele>
        <time>2018-11-17T10:02:28Z</time>
      </trkpt>
      <trkpt lat="43.45883" lon="1.48989">
        <ele>255</ele>
        <time>2018-11-17T10:06:16Z</time>
      </trkpt>
      <trkpt lat="43.45882" lon="1.48989">
        <ele>255</ele>
        <time>2018-11-17T10:06:16Z</time>
      </trkpt>
      <trkpt lat="43.45881" lon="1.48993">
        <ele>255</ele>
        <time>2018-11-17T10:06:16Z</time>
      </trkpt>
      <trkpt lat="43.45878" lon="1.48997">
        <ele>255</ele>
        <time>2018-11-17T10:06:16Z</time>
      </trkpt>
      <trkpt lat="43.45876" lon="1.49">
        <ele>255</ele>
        <time>2018-11-17T10:06:16Z</time>
      </trkpt>
      <trkpt lat="43.45872" lon="1.49004">
        <ele>260</ele>
        <time>2018-11-17T10:06:32Z</time>
      </trkpt>
      <trkpt lat="43.45868" lon="1.4901">
        <ele>260</ele>
        <time>2018-11-17T10:06:32Z</time>
      </trkpt>
      <trkpt lat="43.45864" lon="1.49015">
        <ele>260</ele>
        <time>2018-11-17T10:06:32Z</time>
      </trkpt>
      <trkpt lat="43.45862" lon="1.49019">
        <ele>260</ele>
        <time>2018-11-17T10:06:32Z</time>
      </trkpt>
      <trkpt lat="43.4586" lon="1.49023">
        <ele>260</ele>
        <time>2018-11-17T10:06:48Z</time>
      </trkpt>
      <trkpt lat="43.45858" lon="1.49029">
        <ele>260</ele>
        <time>2018-11-17T10:06:48Z</time>
      </trkpt>
      <trkpt lat="43.45855" lon="1.49037">
        <ele>260</ele>
        <time>2018-11-17T10:06:48Z</time>
      </trkpt>
      <trkpt lat="43.45851" lon="1.49044">
        <ele>264</ele>
        <time>2018-11-17T10:06:48Z</time>
      </trkpt>
      <trkpt lat="43.45847" lon="1.4905">
        <ele>264</ele>
        <time>2018-11-17T10:07:04Z</time>
      </trkpt>
      <trkpt lat="43.45843" lon="1.49054">
        <ele>264</ele>
        <time>2018-11-17T10:07:04Z</time>
      </trkpt>
      <trkpt lat="43.45841" lon="1.4906">
        <ele>264</ele>
        <time>2018-11-17T10:07:04Z</time>
      </trkpt>
      <trkpt lat="43.45838" lon="1.49065">
        <ele>264</ele>
        <time>2018-11-17T10:07:04Z</time>
      </trkpt>
      <trkpt lat="43.45835" lon="1.49072">
        <ele>264</ele>
        <time>2018-11-17T10:07:20Z</time>
      </trkpt>
      <trkpt lat="43.45833" lon="1.49077">
        <ele>264</ele>
        <time>2018-11-17T10:07:20Z</time>
      </trkpt>
      <trkpt lat="43.45831" lon="1.4908">
        <ele>264</ele>
        <time>2018-11-17T10:07:20Z</time>
      </trkpt>
      <trkpt lat="43.45829" lon="1.49083">
        <ele>264</ele>
        <time>2018-11-17T10:07:20Z</time>
      </trkpt>
      <trkpt lat="43.45826" lon="1.49089">
        <ele>264</ele>
        <time>2018-11-17T10:07:36Z</time>
      </trkpt>
      <trkpt lat="43.45823" lon="1.49095">
        <ele>264</ele>
        <time>2018-11-17T10:07:36Z</time>
      </trkpt>
      <trkpt lat="43.45819" lon="1.49101">
        <ele>264</ele>
        <time>2018-11-17T10:07:36Z</time>
      </trkpt>
      <trkpt lat="43.45816" lon="1.49107">
        <ele>264</ele>
        <time>2018-11-17T10:07:36Z</time>
      </trkpt>
      <trkpt lat="43.45813" lon="1.4911">
        <ele>264</ele>
        <time>2018-11-17T10:07:52Z</time>
      </trkpt>
      <trkpt lat="43.45809" lon="1.49117">
        <ele>264</ele>
        <time>2018-11-17T10:07:52Z</time>
      </trkpt>
      <trkpt lat="43.45805" lon="1.49123">
        <ele>264</ele>
        <time>2018-11-17T10:07:52Z</time>
      </trkpt>
      <trkpt lat="43.45802" lon="1.49127">
        <ele>262</ele>
        <time>2018-11-17T10:07:52Z</time>
      </trkpt>
      <trkpt lat="43.45802" lon="1.49128">
        <ele>262</ele>
        <time>2018-11-17T10:08:08Z</time>
      </trkpt>
      <trkpt lat="43.45801" lon="1.4913">
        <ele>262</ele>
        <time>2018-11-17T10:08:08Z</time>
      </trkpt>
      <trkpt lat="43.45798" lon="1.49137">
        <ele>262</ele>
        <time>2018-11-17T10:08:08Z</time>
      </trkpt>
      <trkpt lat="43.45794" lon="1.49143">
        <ele>262</ele>
        <time>2018-11-17T10:08:08Z</time>
      </trkpt>
      <trkpt lat="43.4579" lon="1.49149">
        <ele>269</ele>
        <time>2018-11-17T10:08:24Z</time>
      </trkpt>
      <trkpt lat="43.45786" lon="1.49156">
        <ele>269</ele>
        <time>2018-11-17T10:08:24Z</time>
      </trkpt>
      <trkpt lat="43.45783" lon="1.4916">
        <ele>269</ele>
        <time>2018-11-17T10:08:24Z</time>
      </trkpt>
      <trkpt lat="43.45778" lon="1.49166">
        <ele>269</ele>
        <time>2018-11-17T10:08:24Z</time>
      </trkpt>
      <trkpt lat="43.45775" lon="1.49172">
        <ele>269</ele>
        <time>2018-11-17T10:08:40Z</time>
      </trkpt>
      <trkpt lat="43.45773" lon="1.49178">
        <ele>269</ele>
        <time>2018-11-17T10:08:40Z</time>
      </trkpt>
      <trkpt lat="43.45768" lon="1.49184">
        <ele>269</ele>
        <time>2018-11-17T10:08:40Z</time>
      </trkpt>
      <trkpt lat="43.45764" lon="1.49191">
        <ele>269</ele>
        <time>2018-11-17T10:08:40Z</time>
      </trkpt>
      <trkpt lat="43.4576" lon="1.49195">
        <ele>269</ele>
        <time>2018-11-17T10:08:56Z</time>
      </trkpt>
      <trkpt lat="43.45757" lon="1.49202">
        <ele>269</ele>
        <time>2018-11-17T10:08:56Z</time>
      </trkpt>
      <trkpt lat="43.45753" lon="1.49207">
        <ele>269</ele>
        <time>2018-11-17T10:08:56Z</time>
      </trkpt>
      <trkpt lat="43.45752" lon="1.4921">
        <ele>271</ele>
        <time>2018-11-17T10:08:56Z</time>
      </trkpt>
      <trkpt lat="43.4575" lon="1.49213">
        <ele>271</ele>
        <time>2018-11-17T10:09:12Z</time>
      </trkpt>
      <trkpt lat="43.45749" lon="1.49216">
        <ele>271</ele>
        <time>2018-11-17T10:09:12Z</time>
      </trkpt>
      <trkpt lat="43.45747" lon="1.49221">
        <ele>271</ele>
        <time>2018-11-17T10:09:12Z</time>
      </trkpt>
      <trkpt lat="43.45745" lon="1.49225">
        <ele>271</ele>
        <time>2018-11-17T10:09:12Z</time>
      </trkpt>
      <trkpt lat="43.45742" lon="1.4923">
        <ele>271</ele>
        <time>2018-11-17T10:09:28Z</time>
      </trkpt>
      <trkpt lat="43.45739" lon="1.49235">
        <ele>271</ele>
        <time>2018-11-17T10:09:28Z</time>
      </trkpt>
      <trkpt lat="43.45736" lon="1.49241">
        <ele>271</ele>
        <time>2018-11-17T10:09:28Z</time>
      </trkpt>
      <trkpt lat="43.45732" lon="1.49248">
        <ele>271</ele>
        <time>2018-11-17T10:09:28Z</time>
      </trkpt>
      <trkpt lat="43.45728" lon="1.49252">
        <ele>271</ele>
        <time>2018-11-17T10:09:48Z</time>
      </trkpt>
      <trkpt lat="43.45725" lon="1.49254">
        <ele>271</ele>
        <time>2018-11-17T10:09:48Z</time>
      </trkpt>
      <trkpt lat="43.45724" lon="1.49255">
        <ele>271</ele>
        <time>2018-11-17T10:09:48Z</time>
      </trkpt>
      <trkpt lat="43.45723" lon="1.49256">
        <ele>271</ele>
        <time>2018-11-17T10:09:48Z</time>
      </trkpt>
      <trkpt lat="43.4572" lon="1.49259">
        <ele>271</ele>
        <time>2018-11-17T10:09:48Z</time>
      </trkpt>
      <trkpt lat="43.45718" lon="1.49264">
        <ele>271</ele>
        <time>2018-11-17T10:10:04Z</time>
      </trkpt>
      <trkpt lat="43.45715" lon="1.49269">
        <ele>271</ele>
        <time>2018-11-17T10:10:04Z</time>
      </trkpt>
      <trkpt lat="43.45714" lon="1.49273">
        <ele>271</ele>
        <time>2018-11-17T10:10:04Z</time>
      </trkpt>
      <trkpt lat="43.45711" lon="1.49276">
        <ele>271</ele>
        <time>2018-11-17T10:10:04Z</time>
      </trkpt>
      <trkpt lat="43.45709" lon="1.49279">
        <ele>271</ele>
        <time>2018-11-17T10:10:20Z</time>
      </trkpt>
      <trkpt lat="43.45707" lon="1.49283">
        <ele>271</ele>
        <time>2018-11-17T10:10:20Z</time>
      </trkpt>
      <trkpt lat="43.45703" lon="1.49286">
        <ele>271</ele>
        <time>2018-11-17T10:10:20Z</time>
      </trkpt>
      <trkpt lat="43.457" lon="1.49293">
        <ele>274</ele>
        <time>2018-11-17T10:10:20Z</time>
      </trkpt>
      <trkpt lat="43.45695" lon="1.49298">
        <ele>274</ele>
        <time>2018-11-17T10:10:36Z</time>
      </trkpt>
      <trkpt lat="43.45692" lon="1.49304">
        <ele>274</ele>
        <time>2018-11-17T10:10:36Z</time>
      </trkpt>
      <trkpt lat="43.45687" lon="1.49311">
        <ele>274</ele>
        <time>2018-11-17T10:10:36Z</time>
      </trkpt>
      <trkpt lat="43.45683" lon="1.49316">
        <ele>274</ele>
        <time>2018-11-17T10:10:36Z</time>
      </trkpt>
      <trkpt lat="43.45679" lon="1.49319">
        <ele>274</ele>
        <time>2018-11-17T10:10:52Z</time>
      </trkpt>
      <trkpt lat="43.45675" lon="1.49324">
        <ele>274</ele>
        <time>2018-11-17T10:10:52Z</time>
      </trkpt>
      <trkpt lat="43.4567" lon="1.49329">
        <ele>274</ele>
        <time>2018-11-17T10:10:52Z</time>
      </trkpt>
      <trkpt lat="43.45666" lon="1.49334">
        <ele>274</ele>
        <time>2018-11-17T10:10:52Z</time>
      </trkpt>
      <trkpt lat="43.45661" lon="1.49339">
        <ele>274</ele>
        <time>2018-11-17T10:11:08Z</time>
      </trkpt>
      <trkpt lat="43.45657" lon="1.49344">
        <ele>274</ele>
        <time>2018-11-17T10:11:08Z</time>
      </trkpt>
      <trkpt lat="43.45655" lon="1.49347">
        <ele>274</ele>
        <time>2018-11-17T10:11:08Z</time>
      </trkpt>
      <trkpt lat="43.4565" lon="1.49352">
        <ele>274</ele>
        <time>2018-11-17T10:11:08Z</time>
      </trkpt>
      <trkpt lat="43.45646" lon="1.49357">
        <ele>274</ele>
        <time>2018-11-17T10:11:24Z</time>
      </trkpt>
      <trkpt lat="43.45642" lon="1.49362">
        <ele>274</ele>
        <time>2018-11-17T10:11:24Z</time>
      </trkpt>
      <trkpt lat="43.45639" lon="1.49366">
        <ele>274</ele>
        <time>2018-11-17T10:11:24Z</time>
      </trkpt>
      <trkpt lat="43.45636" lon="1.4937">
        <ele>274</ele>
        <time>2018-11-17T10:11:24Z</time>
      </trkpt>
      <trkpt lat="43.45634" lon="1.49372">
        <ele>274</ele>
        <time>2018-11-17T10:11:40Z</time>
      </trkpt>
      <trkpt lat="43.4563" lon="1.49376">
        <ele>271</ele>
        <time>2018-11-17T10:11:40Z</time>
      </trkpt>
      <trkpt lat="43.45625" lon="1.49382">
        <ele>275</ele>
        <time>2018-11-17T10:11:40Z</time>
      </trkpt>
      <trkpt lat="43.45621" lon="1.49387">
        <ele>275</ele>
        <time>2018-11-17T10:11:40Z</time>
      </trkpt>
      <trkpt lat="43.45617" lon="1.49391">
        <ele>275</ele>
        <time>2018-11-17T10:11:56Z</time>
      </trkpt>
      <trkpt lat="43.45613" lon="1.49397">
        <ele>275</ele>
        <time>2018-11-17T10:11:56Z</time>
      </trkpt>
      <trkpt lat="43.4561" lon="1.494">
        <ele>275</ele>
        <time>2018-11-17T10:11:56Z</time>
      </trkpt>
      <trkpt lat="43.45608" lon="1.49403">
        <ele>275</ele>
        <time>2018-11-17T10:11:56Z</time>
      </trkpt>
      <trkpt lat="43.45603" lon="1.49409">
        <ele>275</ele>
        <time>2018-11-17T10:12:12Z</time>
      </trkpt>
      <trkpt lat="43.45598" lon="1.49415">
        <ele>275</ele>
        <time>2018-11-17T10:12:12Z</time>
      </trkpt>
      <trkpt lat="43.45594" lon="1.49419">
        <ele>275</ele>
        <time>2018-11-17T10:12:12Z</time>
      </trkpt>
      <trkpt lat="43.4559" lon="1.49426">
        <ele>275</ele>
        <time>2018-11-17T10:12:12Z</time>
      </trkpt>
      <trkpt lat="43.45586" lon="1.49431">
        <ele>275</ele>
        <time>2018-11-17T10:12:28Z</time>
      </trkpt>
      <trkpt lat="43.45582" lon="1.49436">
        <ele>275</ele>
        <time>2018-11-17T10:12:28Z</time>
      </trkpt>
      <trkpt lat="43.45579" lon="1.4944">
        <ele>275</ele>
        <time>2018-11-17T10:12:28Z</time>
      </trkpt>
      <trkpt lat="43.45576" lon="1.49445">
        <ele>275</ele>
        <time>2018-11-17T10:12:28Z</time>
      </trkpt>
      <trkpt lat="43.45572" lon="1.4945">
        <ele>275</ele>
        <time>2018-11-17T10:12:44Z</time>
      </trkpt>
      <trkpt lat="43.45568" lon="1.49455">
        <ele>275</ele>
        <time>2018-11-17T10:12:44Z</time>
      </trkpt>
      <trkpt lat="43.45563" lon="1.4946">
        <ele>272</ele>
        <time>2018-11-17T10:12:44Z</time>
      </trkpt>
      <trkpt lat="43.45559" lon="1.49466">
        <ele>272</ele>
        <time>2018-11-17T10:12:44Z</time>
      </trkpt>
      <trkpt lat="43.45555" lon="1.49471">
        <ele>272</ele>
        <time>2018-11-17T10:13:00Z</time>
      </trkpt>
      <trkpt lat="43.45553" lon="1.49475">
        <ele>272</ele>
        <time>2018-11-17T10:13:00Z</time>
      </trkpt>
      <trkpt lat="43.45551" lon="1.49478">
        <ele>272</ele>
        <time>2018-11-17T10:13:00Z</time>
      </trkpt>
      <trkpt lat="43.45549" lon="1.49481">
        <ele>272</ele>
        <time>2018-11-17T10:13:00Z</time>
      </trkpt>
      <trkpt lat="43.45547" lon="1.49485">
        <ele>272</ele>
        <time>2018-11-17T10:13:16Z</time>
      </trkpt>
      <trkpt lat="43.45544" lon="1.49492">
        <ele>272</ele>
        <time>2018-11-17T10:13:16Z</time>
      </trkpt>
      <trkpt lat="43.4554" lon="1.49498">
        <ele>273</ele>
        <time>2018-11-17T10:13:16Z</time>
      </trkpt>
      <trkpt lat="43.45538" lon="1.49505">
        <ele>273</ele>
        <time>2018-11-17T10:13:16Z</time>
      </trkpt>
      <trkpt lat="43.45535" lon="1.49511">
        <ele>273</ele>
        <time>2018-11-17T10:13:32Z</time>
      </trkpt>
      <trkpt lat="43.45533" lon="1.49518">
        <ele>273</ele>
        <time>2018-11-17T10:13:32Z</time>
      </trkpt>
      <trkpt lat="43.45531" lon="1.49525">
        <ele>273</ele>
        <time>2018-11-17T10:13:32Z</time>
      </trkpt>
      <trkpt lat="43.4553" lon="1.4953">
        <ele>273</ele>
        <time>2018-11-17T10:13:32Z</time>
      </trkpt>
      <trkpt lat="43.45528" lon="1.49536">
        <ele>273</ele>
        <time>2018-11-17T10:13:48Z</time>
      </trkpt>
      <trkpt lat="43.45524" lon="1.49544">
        <ele>277</ele>
        <time>2018-11-17T10:13:48Z</time>
      </trkpt>
      <trkpt lat="43.4552" lon="1.49553">
        <ele>277</ele>
        <time>2018-11-17T10:13:48Z</time>
      </trkpt>
      <trkpt lat="43.45516" lon="1.49562">
        <ele>277</ele>
        <time>2018-11-17T10:13:48Z</time>
      </trkpt>
      <trkpt lat="43.45513" lon="1.49567">
        <ele>277</ele>
        <time>2018-11-17T10:14:04Z</time>
      </trkpt>
      <trkpt lat="43.45512" lon="1.49574">
        <ele>277</ele>
        <time>2018-11-17T10:14:04Z</time>
      </trkpt>
      <trkpt lat="43.4551" lon="1.4958">
        <ele>277</ele>
        <time>2018-11-17T10:14:04Z</time>
      </trkpt>
      <trkpt lat="43.45508" lon="1.49586">
        <ele>277</ele>
        <time>2018-11-17T10:14:04Z</time>
      </trkpt>
      <trkpt lat="43.45505" lon="1.49592">
        <ele>277</ele>
        <time>2018-11-17T10:14:20Z</time>
      </trkpt>
      <trkpt lat="43.45503" lon="1.49598">
        <ele>277</ele>
        <time>2018-11-17T10:14:20Z</time>
      </trkpt>
      <trkpt lat="43.45501" lon="1.49603">
        <ele>277</ele>
        <time>2018-11-17T10:14:20Z</time>
      </trkpt>
      <trkpt lat="43.45499" lon="1.49608">
        <ele>277</ele>
        <time>2018-11-17T10:14:20Z</time>
      </trkpt>
      <trkpt lat="43.45498" lon="1.4961">
        <ele>277</ele>
        <time>2018-11-17T10:14:36Z</time>
      </trkpt>
      <trkpt lat="43.45495" lon="1.49616">
        <ele>277</ele>
        <time>2018-11-17T10:14:36Z</time>
      </trkpt>
      <trkpt lat="43.45495" lon="1.49617">
        <ele>277</ele>
        <time>2018-11-17T10:14:36Z</time>
      </trkpt>
      <trkpt lat="43.45492" lon="1.49622">
        <ele>277</ele>
        <time>2018-11-17T10:14:36Z</time>
      </trkpt>
      <trkpt lat="43.45491" lon="1.49629">
        <ele>274</ele>
        <time>2018-11-17T10:14:52Z</time>
      </trkpt>
      <trkpt lat="43.45488" lon="1.49635">
        <ele>274</ele>
        <time>2018-11-17T10:14:52Z</time>
      </trkpt>
      <trkpt lat="43.45485" lon="1.49642">
        <ele>274</ele>
        <time>2018-11-17T10:14:52Z</time>
      </trkpt>
      <trkpt lat="43.45482" lon="1.49649">
        <ele>274</ele>
        <time>2018-11-17T10:14:52Z</time>
      </trkpt>
      <trkpt lat="43.45482" lon="1.49653">
        <ele>274</ele>
        <time>2018-11-17T10:15:08Z</time>
      </trkpt>
      <trkpt lat="43.4548" lon="1.49658">
        <ele>274</ele>
        <time>2018-11-17T10:15:08Z</time>
      </trkpt>
      <trkpt lat="43.45478" lon="1.49662">
        <ele>274</ele>
        <time>2018-11-17T10:15:08Z</time>
      </trkpt>
      <trkpt lat="43.45476" lon="1.49665">
        <ele>274</ele>
        <time>2018-11-17T10:15:08Z</time>
      </trkpt>
      <trkpt lat="43.45476" lon="1.49667">
        <ele>274</ele>
        <time>2018-11-17T10:15:24Z</time>
      </trkpt>
      <trkpt lat="43.45473" lon="1.49672">
        <ele>274</ele>
        <time>2018-11-17T10:15:24Z</time>
      </trkpt>
      <trkpt lat="43.4547" lon="1.49679">
        <ele>274</ele>
        <time>2018-11-17T10:15:24Z</time>
      </trkpt>
      <trkpt lat="43.45466" lon="1.49687">
        <ele>274</ele>
        <time>2018-11-17T10:15:24Z</time>
      </trkpt>
      <trkpt lat="43.45463" lon="1.49694">
        <ele>274</ele>
        <time>2018-11-17T10:15:40Z</time>
      </trkpt>
      <trkpt lat="43.4546" lon="1.497">
        <ele>274</ele>
        <time>2018-11-17T10:15:40Z</time>
      </trkpt>
      <trkpt lat="43.45457" lon="1.49706">
        <ele>275</ele>
        <time>2018-11-17T10:15:40Z</time>
      </trkpt>
      <trkpt lat="43.45455" lon="1.49713">
        <ele>279</ele>
        <time>2018-11-17T10:15:40Z</time>
      </trkpt>
      <trkpt lat="43.45454" lon="1.4972">
        <ele>279</ele>
        <time>2018-11-17T10:16:16Z</time>
      </trkpt>
      <trkpt lat="43.45454" lon="1.4972">
        <ele>279</ele>
        <time>2018-11-17T10:16:16Z</time>
      </trkpt>
      <trkpt lat="43.45453" lon="1.49721">
        <ele>279</ele>
        <time>2018-11-17T10:16:16Z</time>
      </trkpt>
      <trkpt lat="43.45452" lon="1.49722">
        <ele>279</ele>
        <time>2018-11-17T10:16:16Z</time>
      </trkpt>
      <trkpt lat="43.45447" lon="1.49727">
        <ele>279</ele>
        <time>2018-11-17T10:16:16Z</time>
      </trkpt>
      <trkpt lat="43.45442" lon="1.49729">
        <ele>279</ele>
        <time>2018-11-17T10:16:32Z</time>
      </trkpt>
      <trkpt lat="43.45438" lon="1.49735">
        <ele>279</ele>
        <time>2018-11-17T10:16:32Z</time>
      </trkpt>
      <trkpt lat="43.45437" lon="1.49737">
        <ele>279</ele>
        <time>2018-11-17T10:16:32Z</time>
      </trkpt>
      <trkpt lat="43.45435" lon="1.4974">
        <ele>279</ele>
        <time>2018-11-17T10:16:32Z</time>
      </trkpt>
      <trkpt lat="43.45433" lon="1.49745">
        <ele>279</ele>
        <time>2018-11-17T10:16:48Z</time>
      </trkpt>
      <trkpt lat="43.45429" lon="1.49751">
        <ele>279</ele>
        <time>2018-11-17T10:16:48Z</time>
      </trkpt>
      <trkpt lat="43.45426" lon="1.4976">
        <ele>279</ele>
        <time>2018-11-17T10:16:48Z</time>
      </trkpt>
      <trkpt lat="43.45424" lon="1.49764">
        <ele>279</ele>
        <time>2018-11-17T10:16:48Z</time>
      </trkpt>
      <trkpt lat="43.45424" lon="1.49767">
        <ele>279</ele>
        <time>2018-11-17T10:17:04Z</time>
      </trkpt>
      <trkpt lat="43.45423" lon="1.49769">
        <ele>279</ele>
        <time>2018-11-17T10:17:04Z</time>
      </trkpt>
      <trkpt lat="43.45421" lon="1.49775">
        <ele>279</ele>
        <time>2018-11-17T10:17:04Z</time>
      </trkpt>
      <trkpt lat="43.45416" lon="1.49785">
        <ele>279</ele>
        <time>2018-11-17T10:17:04Z</time>
      </trkpt>
      <trkpt lat="43.45412" lon="1.49795">
        <ele>278</ele>
        <time>2018-11-17T10:17:20Z</time>
      </trkpt>
      <trkpt lat="43.4541" lon="1.49802">
        <ele>278</ele>
        <time>2018-11-17T10:17:20Z</time>
      </trkpt>
      <trkpt lat="43.45407" lon="1.49805">
        <ele>278</ele>
        <time>2018-11-17T10:17:20Z</time>
      </trkpt>
      <trkpt lat="43.45405" lon="1.49809">
        <ele>278</ele>
        <time>2018-11-17T10:17:20Z</time>
      </trkpt>
      <trkpt lat="43.45403" lon="1.49815">
        <ele>278</ele>
        <time>2018-11-17T10:17:36Z</time>
      </trkpt>
      <trkpt lat="43.454" lon="1.49824">
        <ele>278</ele>
        <time>2018-11-17T10:17:36Z</time>
      </trkpt>
      <trkpt lat="43.45397" lon="1.4983">
        <ele>278</ele>
        <time>2018-11-17T10:17:36Z</time>
      </trkpt>
      <trkpt lat="43.45395" lon="1.49835">
        <ele>278</ele>
        <time>2018-11-17T10:17:36Z</time>
      </trkpt>
      <trkpt lat="43.45395" lon="1.49838">
        <ele>278</ele>
        <time>2018-11-17T10:17:52Z</time>
      </trkpt>
      <trkpt lat="43.45393" lon="1.49842">
        <ele>278</ele>
        <time>2018-11-17T10:17:52Z</time>
      </trkpt>
      <trkpt lat="43.4539" lon="1.49848">
        <ele>278</ele>
        <time>2018-11-17T10:17:52Z</time>
      </trkpt>
      <trkpt lat="43.45384" lon="1.49858">
        <ele>278</ele>
        <time>2018-11-17T10:17:52Z</time>
      </trkpt>
      <trkpt lat="43.45381" lon="1.49866">
        <ele>278</ele>
        <time>2018-11-17T10:18:08Z</time>
      </trkpt>
      <trkpt lat="43.45378" lon="1.49874">
        <ele>278</ele>
        <time>2018-11-17T10:18:08Z</time>
      </trkpt>
      <trkpt lat="43.45375" lon="1.49882">
        <ele>275</ele>
        <time>2018-11-17T10:18:08Z</time>
      </trkpt>
      <trkpt lat="43.45371" lon="1.49889">
        <ele>275</ele>
        <time>2018-11-17T10:18:08Z</time>
      </trkpt>
      <trkpt lat="43.45369" lon="1.49895">
        <ele>275</ele>
        <time>2018-11-17T10:18:24Z</time>
      </trkpt>
      <trkpt lat="43.45367" lon="1.49901">
        <ele>275</ele>
        <time>2018-11-17T10:18:24Z</time>
      </trkpt>
      <trkpt lat="43.45363" lon="1.49909">
        <ele>275</ele>
        <time>2018-11-17T10:18:24Z</time>
      </trkpt>
      <trkpt lat="43.45362" lon="1.49915">
        <ele>275</ele>
        <time>2018-11-17T10:18:24Z</time>
      </trkpt>
      <trkpt lat="43.45359" lon="1.4992">
        <ele>275</ele>
        <time>2018-11-17T10:18:40Z</time>
      </trkpt>
      <trkpt lat="43.45355" lon="1.49925">
        <ele>275</ele>
        <time>2018-11-17T10:18:40Z</time>
      </trkpt>
      <trkpt lat="43.45352" lon="1.49931">
        <ele>275</ele>
        <time>2018-11-17T10:18:40Z</time>
      </trkpt>
      <trkpt lat="43.45348" lon="1.49937">
        <ele>275</ele>
        <time>2018-11-17T10:18:40Z</time>
      </trkpt>
      <trkpt lat="43.45344" lon="1.49943">
        <ele>275</ele>
        <time>2018-11-17T10:18:56Z</time>
      </trkpt>
      <trkpt lat="43.45343" lon="1.49948">
        <ele>275</ele>
        <time>2018-11-17T10:18:56Z</time>
      </trkpt>
      <trkpt lat="43.4534" lon="1.49953">
        <ele>275</ele>
        <time>2018-11-17T10:18:56Z</time>
      </trkpt>
      <trkpt lat="43.45335" lon="1.49958">
        <ele>271</ele>
        <time>2018-11-17T10:18:56Z</time>
      </trkpt>
      <trkpt lat="43.45331" lon="1.49964">
        <ele>271</ele>
        <time>2018-11-17T10:19:12Z</time>
      </trkpt>
      <trkpt lat="43.45326" lon="1.4997">
        <ele>271</ele>
        <time>2018-11-17T10:19:12Z</time>
      </trkpt>
      <trkpt lat="43.45323" lon="1.49974">
        <ele>271</ele>
        <time>2018-11-17T10:19:12Z</time>
      </trkpt>
      <trkpt lat="43.45322" lon="1.49976">
        <ele>271</ele>
        <time>2018-11-17T10:19:12Z</time>
      </trkpt>
      <trkpt lat="43.45319" lon="1.49978">
        <ele>271</ele>
        <time>2018-11-17T10:19:28Z</time>
      </trkpt>
      <trkpt lat="43.45316" lon="1.4998">
        <ele>271</ele>
        <time>2018-11-17T10:19:28Z</time>
      </trkpt>
      <trkpt lat="43.45313" lon="1.49986">
        <ele>271</ele>
        <time>2018-11-17T10:19:28Z</time>
      </trkpt>
      <trkpt lat="43.4531" lon="1.49991">
        <ele>271</ele>
        <time>2018-11-17T10:19:28Z</time>
      </trkpt>
      <trkpt lat="43.45309" lon="1.49994">
        <ele>271</ele>
        <time>2018-11-17T10:19:44Z</time>
      </trkpt>
      <trkpt lat="43.45307" lon="1.49998">
        <ele>271</ele>
        <time>2018-11-17T10:19:44Z</time>
      </trkpt>
      <trkpt lat="43.45305" lon="1.50001">
        <ele>271</ele>
        <time>2018-11-17T10:19:44Z</time>
      </trkpt>
      <trkpt lat="43.45304" lon="1.50004">
        <ele>271</ele>
        <time>2018-11-17T10:19:44Z</time>
      </trkpt>
      <trkpt lat="43.45303" lon="1.50008">
        <ele>271</ele>
        <time>2018-11-17T10:20:08Z</time>
      </trkpt>
      <trkpt lat="43.45302" lon="1.5001">
        <ele>271</ele>
        <time>2018-11-17T10:20:08Z</time>
      </trkpt>
      <trkpt lat="43.45302" lon="1.50011">
        <ele>271</ele>
        <time>2018-11-17T10:20:08Z</time>
      </trkpt>
      <trkpt lat="43.453" lon="1.50014">
        <ele>271</ele>
        <time>2018-11-17T10:20:08Z</time>
      </trkpt>
      <trkpt lat="43.45295" lon="1.5002">
        <ele>271</ele>
        <time>2018-11-17T10:20:08Z</time>
      </trkpt>
      <trkpt lat="43.45292" lon="1.50027">
        <ele>271</ele>
        <time>2018-11-17T10:20:24Z</time>
      </trkpt>
      <trkpt lat="43.45288" lon="1.50032">
        <ele>271</ele>
        <time>2018-11-17T10:20:24Z</time>
      </trkpt>
      <trkpt lat="43.45283" lon="1.50039">
        <ele>271</ele>
        <time>2018-11-17T10:20:24Z</time>
      </trkpt>
      <trkpt lat="43.45279" lon="1.50046">
        <ele>271</ele>
        <time>2018-11-17T10:20:24Z</time>
      </trkpt>
      <trkpt lat="43.45275" lon="1.50052">
        <ele>271</ele>
        <time>2018-11-17T10:20:40Z</time>
      </trkpt>
      <trkpt lat="43.45271" lon="1.50059">
        <ele>271</ele>
        <time>2018-11-17T10:20:40Z</time>
      </trkpt>
      <trkpt lat="43.45266" lon="1.50066">
        <ele>271</ele>
        <time>2018-11-17T10:20:40Z</time>
      </trkpt>
      <trkpt lat="43.45263" lon="1.50069">
        <ele>271</ele>
        <time>2018-11-17T10:20:40Z</time>
      </trkpt>
      <trkpt lat="43.4526" lon="1.50074">
        <ele>271</ele>
        <time>2018-11-17T10:20:56Z</time>
      </trkpt>
      <trkpt lat="43.45256" lon="1.50079">
        <ele>271</ele>
        <time>2018-11-17T10:20:56Z</time>
      </trkpt>
      <trkpt lat="43.45252" lon="1.50085">
        <ele>271</ele>
        <time>2018-11-17T10:20:56Z</time>
      </trkpt>
      <trkpt lat="43.45249" lon="1.50091">
        <ele>271</ele>
        <time>2018-11-17T10:20:56Z</time>
      </trkpt>
      <trkpt lat="43.45246" lon="1.50097">
        <ele>271</ele>
        <time>2018-11-17T10:21:12Z</time>
      </trkpt>
      <trkpt lat="43.45243" lon="1.50103">
        <ele>271</ele>
        <time>2018-11-17T10:21:12Z</time>
      </trkpt>
      <trkpt lat="43.45239" lon="1.50108">
        <ele>271</ele>
        <time>2018-11-17T10:21:12Z</time>
      </trkpt>
      <trkpt lat="43.45236" lon="1.50113">
        <ele>271</ele>
        <time>2018-11-17T10:21:12Z</time>
      </trkpt>
      <trkpt lat="43.45233" lon="1.50119">
        <ele>271</ele>
        <time>2018-11-17T10:21:28Z</time>
      </trkpt>
      <trkpt lat="43.45229" lon="1.50124">
        <ele>271</ele>
        <time>2018-11-17T10:21:28Z</time>
      </trkpt>
      <trkpt lat="43.45225" lon="1.50129">
        <ele>266</ele>
        <time>2018-11-17T10:21:28Z</time>
      </trkpt>
      <trkpt lat="43.45221" lon="1.50135">
        <ele>266</ele>
        <time>2018-11-17T10:21:28Z</time>
      </trkpt>
      <trkpt lat="43.45216" lon="1.50143">
        <ele>266</ele>
        <time>2018-11-17T10:21:44Z</time>
      </trkpt>
      <trkpt lat="43.45212" lon="1.50149">
        <ele>266</ele>
        <time>2018-11-17T10:21:44Z</time>
      </trkpt>
      <trkpt lat="43.45208" lon="1.50154">
        <ele>272</ele>
        <time>2018-11-17T10:21:44Z</time>
      </trkpt>
      <trkpt lat="43.45204" lon="1.5016">
        <ele>272</ele>
        <time>2018-11-17T10:21:44Z</time>
      </trkpt>
      <trkpt lat="43.45202" lon="1.50166">
        <ele>272</ele>
        <time>2018-11-17T10:22:00Z</time>
      </trkpt>
      <trkpt lat="43.45198" lon="1.50171">
        <ele>272</ele>
        <time>2018-11-17T10:22:00Z</time>
      </trkpt>
      <trkpt lat="43.45195" lon="1.50176">
        <ele>272</ele>
        <time>2018-11-17T10:22:00Z</time>
      </trkpt>
      <trkpt lat="43.45192" lon="1.50181">
        <ele>272</ele>
        <time>2018-11-17T10:22:00Z</time>
      </trkpt>
      <trkpt lat="43.45188" lon="1.50186">
        <ele>272</ele>
        <time>2018-11-17T10:22:16Z</time>
      </trkpt>
      <trkpt lat="43.45186" lon="1.5019">
        <ele>272</ele>
        <time>2018-11-17T10:22:16Z</time>
      </trkpt>
      <trkpt lat="43.45182" lon="1.50195">
        <ele>272</ele>
        <time>2018-11-17T10:22:16Z</time>
      </trkpt>
      <trkpt lat="43.45182" lon="1.50197">
        <ele>272</ele>
        <time>2018-11-17T10:22:16Z</time>
      </trkpt>
      <trkpt lat="43.45178" lon="1.502">
        <ele>272</ele>
        <time>2018-11-17T10:22:32Z</time>
      </trkpt>
      <trkpt lat="43.45174" lon="1.50204">
        <ele>272</ele>
        <time>2018-11-17T10:22:32Z</time>
      </trkpt>
      <trkpt lat="43.45172" lon="1.50209">
        <ele>269</ele>
        <time>2018-11-17T10:22:32Z</time>
      </trkpt>
      <trkpt lat="43.45167" lon="1.50213">
        <ele>269</ele>
        <time>2018-11-17T10:22:32Z</time>
      </trkpt>
      <trkpt lat="43.45163" lon="1.50218">
        <ele>269</ele>
        <time>2018-11-17T10:22:48Z</time>
      </trkpt>
      <trkpt lat="43.45159" lon="1.50223">
        <ele>269</ele>
        <time>2018-11-17T10:22:48Z</time>
      </trkpt>
      <trkpt lat="43.45155" lon="1.50227">
        <ele>269</ele>
        <time>2018-11-17T10:22:48Z</time>
      </trkpt>
      <trkpt lat="43.4515" lon="1.50231">
        <ele>269</ele>
        <time>2018-11-17T10:22:48Z</time>
      </trkpt>
      <trkpt lat="43.45147" lon="1.50234">
        <ele>269</ele>
        <time>2018-11-17T10:23:04Z</time>
      </trkpt>
      <trkpt lat="43.45143" lon="1.50238">
        <ele>269</ele>
        <time>2018-11-17T10:23:04Z</time>
      </trkpt>
      <trkpt lat="43.4514" lon="1.50243">
        <ele>269</ele>
        <time>2018-11-17T10:23:04Z</time>
      </trkpt>
      <trkpt lat="43.45137" lon="1.50247">
        <ele>269</ele>
        <time>2018-11-17T10:23:04Z</time>
      </trkpt>
      <trkpt lat="43.45133" lon="1.50252">
        <ele>269</ele>
        <time>2018-11-17T10:23:20Z</time>
      </trkpt>
      <trkpt lat="43.4513" lon="1.50256">
        <ele>269</ele>
        <time>2018-11-17T10:23:20Z</time>
      </trkpt>
      <trkpt lat="43.45125" lon="1.5026">
        <ele>269</ele>
        <time>2018-11-17T10:23:20Z</time>
      </trkpt>
      <trkpt lat="43.45122" lon="1.50263">
        <ele>268</ele>
        <time>2018-11-17T10:23:20Z</time>
      </trkpt>
      <trkpt lat="43.45118" lon="1.50266">
        <ele>268</ele>
        <time>2018-11-17T10:23:36Z</time>
      </trkpt>
      <trkpt lat="43.45114" lon="1.50271">
        <ele>268</ele>
        <time>2018-11-17T10:23:36Z</time>
      </trkpt>
      <trkpt lat="43.45111" lon="1.50275">
        <ele>268</ele>
        <time>2018-11-17T10:23:36Z</time>
      </trkpt>
      <trkpt lat="43.45109" lon="1.50278">
        <ele>268</ele>
        <time>2018-11-17T10:23:36Z</time>
      </trkpt>
      <trkpt lat="43.45104" lon="1.50284">
        <ele>268</ele>
        <time>2018-11-17T10:23:52Z</time>
      </trkpt>
      <trkpt lat="43.45099" lon="1.50291">
        <ele>268</ele>
        <time>2018-11-17T10:23:52Z</time>
      </trkpt>
      <trkpt lat="43.45095" lon="1.50295">
        <ele>268</ele>
        <time>2018-11-17T10:23:52Z</time>
      </trkpt>
      <trkpt lat="43.4509" lon="1.50301">
        <ele>268</ele>
        <time>2018-11-17T10:23:52Z</time>
      </trkpt>
      <trkpt lat="43.45086" lon="1.50307">
        <ele>268</ele>
        <time>2018-11-17T10:24:08Z</time>
      </trkpt>
      <trkpt lat="43.45081" lon="1.50314">
        <ele>268</ele>
        <time>2018-11-17T10:24:08Z</time>
      </trkpt>
      <trkpt lat="43.45077" lon="1.5032">
        <ele>268</ele>
        <time>2018-11-17T10:24:08Z</time>
      </trkpt>
      <trkpt lat="43.45072" lon="1.50326">
        <ele>268</ele>
        <time>2018-11-17T10:24:08Z</time>
      </trkpt>
      <trkpt lat="43.45069" lon="1.50329">
        <ele>268</ele>
        <time>2018-11-17T10:24:24Z</time>
      </trkpt>
      <trkpt lat="43.45063" lon="1.50337">
        <ele>268</ele>
        <time>2018-11-17T10:24:24Z</time>
      </trkpt>
      <trkpt lat="43.45059" lon="1.50344">
        <ele>268</ele>
        <time>2018-11-17T10:24:24Z</time>
      </trkpt>
      <trkpt lat="43.45055" lon="1.50348">
        <ele>268</ele>
        <time>2018-11-17T10:24:24Z</time>
      </trkpt>
      <trkpt lat="43.45052" lon="1.50352">
        <ele>268</ele>
        <time>2018-11-17T10:24:40Z</time>
      </trkpt>
      <trkpt lat="43.45049" lon="1.50356">
        <ele>268</ele>
        <time>2018-11-17T10:24:40Z</time>
      </trkpt>
      <trkpt lat="43.45047" lon="1.5036">
        <ele>268</ele>
        <time>2018-11-17T10:24:40Z</time>
      </trkpt>
      <trkpt lat="43.45044" lon="1.50364">
        <ele>268</ele>
        <time>2018-11-17T10:24:40Z</time>
      </trkpt>
      <trkpt lat="43.4504" lon="1.50369">
        <ele>263</ele>
        <time>2018-11-17T10:24:56Z</time>
      </trkpt>
      <trkpt lat="43.45036" lon="1.50373">
        <ele>263</ele>
        <time>2018-11-17T10:24:56Z</time>
      </trkpt>
      <trkpt lat="43.45031" lon="1.50379">
        <ele>264</ele>
        <time>2018-11-17T10:24:56Z</time>
      </trkpt>
      <trkpt lat="43.45028" lon="1.50383">
        <ele>264</ele>
        <time>2018-11-17T10:24:56Z</time>
      </trkpt>
      <trkpt lat="43.45025" lon="1.50389">
        <ele>264</ele>
        <time>2018-11-17T10:25:12Z</time>
      </trkpt>
      <trkpt lat="43.45021" lon="1.50395">
        <ele>264</ele>
        <time>2018-11-17T10:25:12Z</time>
      </trkpt>
      <trkpt lat="43.45019" lon="1.50397">
        <ele>264</ele>
        <time>2018-11-17T10:25:12Z</time>
      </trkpt>
      <trkpt lat="43.45016" lon="1.50401">
        <ele>264</ele>
        <time>2018-11-17T10:25:12Z</time>
      </trkpt>
      <trkpt lat="43.45013" lon="1.50406">
        <ele>264</ele>
        <time>2018-11-17T10:25:28Z</time>
      </trkpt>
      <trkpt lat="43.4501" lon="1.50409">
        <ele>264</ele>
        <time>2018-11-17T10:25:28Z</time>
      </trkpt>
      <trkpt lat="43.45006" lon="1.50413">
        <ele>264</ele>
        <time>2018-11-17T10:25:28Z</time>
      </trkpt>
      <trkpt lat="43.45001" lon="1.50419">
        <ele>264</ele>
        <time>2018-11-17T10:25:28Z</time>
      </trkpt>
      <trkpt lat="43.44998" lon="1.50424">
        <ele>264</ele>
        <time>2018-11-17T10:25:44Z</time>
      </trkpt>
      <trkpt lat="43.44994" lon="1.5043">
        <ele>264</ele>
        <time>2018-11-17T10:25:44Z</time>
      </trkpt>
      <trkpt lat="43.44992" lon="1.50434">
        <ele>264</ele>
        <time>2018-11-17T10:25:44Z</time>
      </trkpt>
      <trkpt lat="43.44989" lon="1.50439">
        <ele>264</ele>
        <time>2018-11-17T10:25:44Z</time>
      </trkpt>
      <trkpt lat="43.4499" lon="1.50439">
        <ele>264</ele>
        <time>2018-11-17T10:26:04Z</time>
      </trkpt>
      <trkpt lat="43.44989" lon="1.50439">
        <ele>264</ele>
        <time>2018-11-17T10:26:04Z</time>
      </trkpt>
      <trkpt lat="43.44987" lon="1.5044">
        <ele>264</ele>
        <time>2018-11-17T10:26:04Z</time>
      </trkpt>
      <trkpt lat="43.44984" lon="1.50446">
        <ele>264</ele>
        <time>2018-11-17T10:26:04Z</time>
      </trkpt>
      <trkpt lat="43.4498" lon="1.50453">
        <ele>264</ele>
        <time>2018-11-17T10:26:04Z</time>
      </trkpt>
      <trkpt lat="43.44973" lon="1.50459">
        <ele>256</ele>
        <time>2018-11-17T10:26:20Z</time>
      </trkpt>
      <trkpt lat="43.44969" lon="1.50463">
        <ele>256</ele>
        <time>2018-11-17T10:26:20Z</time>
      </trkpt>
      <trkpt lat="43.44965" lon="1.50468">
        <ele>256</ele>
        <time>2018-11-17T10:26:20Z</time>
      </trkpt>
      <trkpt lat="43.44958" lon="1.50475">
        <ele>262</ele>
        <time>2018-11-17T10:26:20Z</time>
      </trkpt>
      <trkpt lat="43.44953" lon="1.50488">
        <ele>262</ele>
        <time>2018-11-17T10:27:08Z</time>
      </trkpt>
      <trkpt lat="43.44953" lon="1.50489">
        <ele>262</ele>
        <time>2018-11-17T10:27:08Z</time>
      </trkpt>
      <trkpt lat="43.44953" lon="1.50489">
        <ele>262</ele>
        <time>2018-11-17T10:27:08Z</time>
      </trkpt>
      <trkpt lat="43.44953" lon="1.50489">
        <ele>262</ele>
        <time>2018-11-17T10:27:08Z</time>
      </trkpt>
      <trkpt lat="43.44952" lon="1.50492">
        <ele>262</ele>
        <time>2018-11-17T10:27:08Z</time>
      </trkpt>
      <trkpt lat="43.44948" lon="1.50497">
        <ele>262</ele>
        <time>2018-11-17T10:28:20Z</time>
      </trkpt>
      <trkpt lat="43.44948" lon="1.50497">
        <ele>262</ele>
        <time>2018-11-17T10:28:20Z</time>
      </trkpt>
      <trkpt lat="43.44948" lon="1.50496">
        <ele>262</ele>
        <time>2018-11-17T10:28:20Z</time>
      </trkpt>
      <trkpt lat="43.44946" lon="1.50497">
        <ele>262</ele>
        <time>2018-11-17T10:28:20Z</time>
      </trkpt>
      <trkpt lat="43.44944" lon="1.50499">
        <ele>262</ele>
        <time>2018-11-17T10:28:20Z</time>
      </trkpt>
      <trkpt lat="43.44944" lon="1.50498">
        <ele>262</ele>
        <time>2018-11-17T10:28:36Z</time>
      </trkpt>
      <trkpt lat="43.44943" lon="1.505">
        <ele>262</ele>
        <time>2018-11-17T10:28:36Z</time>
      </trkpt>
      <trkpt lat="43.4494" lon="1.50506">
        <ele>262</ele>
        <time>2018-11-17T10:28:36Z</time>
      </trkpt>
      <trkpt lat="43.44935" lon="1.50508">
        <ele>262</ele>
        <time>2018-11-17T10:28:36Z</time>
      </trkpt>
      <trkpt lat="43.44933" lon="1.50508">
        <ele>262</ele>
        <time>2018-11-17T10:28:52Z</time>
      </trkpt>
      <trkpt lat="43.4493" lon="1.50511">
        <ele>262</ele>
        <time>2018-11-17T10:28:52Z</time>
      </trkpt>
      <trkpt lat="43.44926" lon="1.50515">
        <ele>262</ele>
        <time>2018-11-17T10:28:52Z</time>
      </trkpt>
      <trkpt lat="43.44921" lon="1.50519">
        <ele>262</ele>
        <time>2018-11-17T10:28:52Z</time>
      </trkpt>
      <trkpt lat="43.44917" lon="1.50524">
        <ele>262</ele>
        <time>2018-11-17T10:29:08Z</time>
      </trkpt>
      <trkpt lat="43.44913" lon="1.50529">
        <ele>262</ele>
        <time>2018-11-17T10:29:08Z</time>
      </trkpt>
      <trkpt lat="43.44907" lon="1.50536">
        <ele>262</ele>
        <time>2018-11-17T10:29:08Z</time>
      </trkpt>
      <trkpt lat="43.44903" lon="1.50541">
        <ele>262</ele>
        <time>2018-11-17T10:29:08Z</time>
      </trkpt>
      <trkpt lat="43.449" lon="1.50544">
        <ele>253</ele>
        <time>2018-11-17T10:29:24Z</time>
      </trkpt>
      <trkpt lat="43.44895" lon="1.50549">
        <ele>253</ele>
        <time>2018-11-17T10:29:24Z</time>
      </trkpt>
      <trkpt lat="43.44889" lon="1.50553">
        <ele>253</ele>
        <time>2018-11-17T10:29:24Z</time>
      </trkpt>
      <trkpt lat="43.44887" lon="1.50556">
        <ele>253</ele>
        <time>2018-11-17T10:29:24Z</time>
      </trkpt>
      <trkpt lat="43.44883" lon="1.50561">
        <ele>253</ele>
        <time>2018-11-17T10:29:40Z</time>
      </trkpt>
      <trkpt lat="43.44879" lon="1.50564">
        <ele>253</ele>
        <time>2018-11-17T10:29:40Z</time>
      </trkpt>
      <trkpt lat="43.44874" lon="1.50568">
        <ele>256</ele>
        <time>2018-11-17T10:29:40Z</time>
      </trkpt>
      <trkpt lat="43.44868" lon="1.50572">
        <ele>256</ele>
        <time>2018-11-17T10:29:40Z</time>
      </trkpt>
      <trkpt lat="43.44863" lon="1.50575">
        <ele>256</ele>
        <time>2018-11-17T10:29:56Z</time>
      </trkpt>
      <trkpt lat="43.44858" lon="1.5058">
        <ele>256</ele>
        <time>2018-11-17T10:29:56Z</time>
      </trkpt>
      <trkpt lat="43.44853" lon="1.50585">
        <ele>256</ele>
        <time>2018-11-17T10:29:56Z</time>
      </trkpt>
      <trkpt lat="43.44849" lon="1.50588">
        <ele>256</ele>
        <time>2018-11-17T10:29:56Z</time>
      </trkpt>
      <trkpt lat="43.44843" lon="1.50593">
        <ele>256</ele>
        <time>2018-11-17T10:30:12Z</time>
      </trkpt>
      <trkpt lat="43.4484" lon="1.50597">
        <ele>256</ele>
        <time>2018-11-17T10:30:12Z</time>
      </trkpt>
      <trkpt lat="43.44836" lon="1.506">
        <ele>256</ele>
        <time>2018-11-17T10:30:12Z</time>
      </trkpt>
      <trkpt lat="43.44831" lon="1.50604">
        <ele>256</ele>
        <time>2018-11-17T10:30:12Z</time>
      </trkpt>
      <trkpt lat="43.44825" lon="1.50609">
        <ele>256</ele>
        <time>2018-11-17T10:30:28Z</time>
      </trkpt>
      <trkpt lat="43.4482" lon="1.50615">
        <ele>256</ele>
        <time>2018-11-17T10:30:28Z</time>
      </trkpt>
      <trkpt lat="43.44816" lon="1.5062">
        <ele>256</ele>
        <time>2018-11-17T10:30:28Z</time>
      </trkpt>
      <trkpt lat="43.44813" lon="1.50624">
        <ele>256</ele>
        <time>2018-11-17T10:30:28Z</time>
      </trkpt>
      <trkpt lat="43.44809" lon="1.50628">
        <ele>250</ele>
        <time>2018-11-17T10:30:44Z</time>
      </trkpt>
      <trkpt lat="43.44805" lon="1.50633">
        <ele>250</ele>
        <time>2018-11-17T10:30:44Z</time>
      </trkpt>
      <trkpt lat="43.44799" lon="1.50638">
        <ele>250</ele>
        <time>2018-11-17T10:30:44Z</time>
      </trkpt>
      <trkpt lat="43.44794" lon="1.50641">
        <ele>250</ele>
        <time>2018-11-17T10:30:44Z</time>
      </trkpt>
      <trkpt lat="43.44789" lon="1.50646">
        <ele>249</ele>
        <time>2018-11-17T10:31:04Z</time>
      </trkpt>
      <trkpt lat="43.44786" lon="1.50649">
        <ele>249</ele>
        <time>2018-11-17T10:31:04Z</time>
      </trkpt>
      <trkpt lat="43.44784" lon="1.50649">
        <ele>249</ele>
        <time>2018-11-17T10:31:04Z</time>
      </trkpt>
      <trkpt lat="43.44782" lon="1.5065">
        <ele>249</ele>
        <time>2018-11-17T10:31:04Z</time>
      </trkpt>
      <trkpt lat="43.44778" lon="1.50654">
        <ele>249</ele>
        <time>2018-11-17T10:31:04Z</time>
      </trkpt>
      <trkpt lat="43.44771" lon="1.50659">
        <ele>249</ele>
        <time>2018-11-17T10:31:20Z</time>
      </trkpt>
      <trkpt lat="43.44767" lon="1.50662">
        <ele>249</ele>
        <time>2018-11-17T10:31:20Z</time>
      </trkpt>
      <trkpt lat="43.44765" lon="1.50665">
        <ele>249</ele>
        <time>2018-11-17T10:31:20Z</time>
      </trkpt>
      <trkpt lat="43.44761" lon="1.50667">
        <ele>249</ele>
        <time>2018-11-17T10:31:20Z</time>
      </trkpt>
      <trkpt lat="43.44755" lon="1.50672">
        <ele>249</ele>
        <time>2018-11-17T10:31:36Z</time>
      </trkpt>
      <trkpt lat="43.44749" lon="1.50677">
        <ele>249</ele>
        <time>2018-11-17T10:31:36Z</time>
      </trkpt>
      <trkpt lat="43.44743" lon="1.50681">
        <ele>249</ele>
        <time>2018-11-17T10:31:36Z</time>
      </trkpt>
      <trkpt lat="43.44738" lon="1.50685">
        <ele>249</ele>
        <time>2018-11-17T10:31:36Z</time>
      </trkpt>
      <trkpt lat="43.44734" lon="1.50687">
        <ele>249</ele>
        <time>2018-11-17T10:31:52Z</time>
      </trkpt>
      <trkpt lat="43.44731" lon="1.50688">
        <ele>249</ele>
        <time>2018-11-17T10:31:52Z</time>
      </trkpt>
      <trkpt lat="43.44727" lon="1.50689">
        <ele>249</ele>
        <time>2018-11-17T10:31:52Z</time>
      </trkpt>
      <trkpt lat="43.44723" lon="1.50691">
        <ele>249</ele>
        <time>2018-11-17T10:31:52Z</time>
      </trkpt>
      <trkpt lat="43.4472" lon="1.50692">
        <ele>249</ele>
        <time>2018-11-17T10:32:08Z</time>
      </trkpt>
      <trkpt lat="43.44716" lon="1.5069">
        <ele>249</ele>
        <time>2018-11-17T10:32:08Z</time>
      </trkpt>
      <trkpt lat="43.44711" lon="1.50693">
        <ele>249</ele>
        <time>2018-11-17T10:32:08Z</time>
      </trkpt>
      <trkpt lat="43.44707" lon="1.50693">
        <ele>235</ele>
        <time>2018-11-17T10:32:08Z</time>
      </trkpt>
      <trkpt lat="43.44705" lon="1.50693">
        <ele>235</ele>
        <time>2018-11-17T10:32:24Z</time>
      </trkpt>
      <trkpt lat="43.44703" lon="1.50693">
        <ele>235</ele>
        <time>2018-11-17T10:32:24Z</time>
      </trkpt>
      <trkpt lat="43.44698" lon="1.50693">
        <ele>235</ele>
        <time>2018-11-17T10:32:24Z</time>
      </trkpt>
      <trkpt lat="43.44694" lon="1.50695">
        <ele>235</ele>
        <time>2018-11-17T10:32:24Z</time>
      </trkpt>
      <trkpt lat="43.44689" lon="1.50697">
        <ele>235</ele>
        <time>2018-11-17T10:32:44Z</time>
      </trkpt>
      <trkpt lat="43.44687" lon="1.507">
        <ele>235</ele>
        <time>2018-11-17T10:32:44Z</time>
      </trkpt>
      <trkpt lat="43.44685" lon="1.50704">
        <ele>235</ele>
        <time>2018-11-17T10:32:44Z</time>
      </trkpt>
      <trkpt lat="43.44683" lon="1.50706">
        <ele>235</ele>
        <time>2018-11-17T10:32:44Z</time>
      </trkpt>
      <trkpt lat="43.44681" lon="1.50711">
        <ele>232</ele>
        <time>2018-11-17T10:32:44Z</time>
      </trkpt>
      <trkpt lat="43.44678" lon="1.50715">
        <ele>232</ele>
        <time>2018-11-17T10:33:00Z</time>
      </trkpt>
      <trkpt lat="43.44674" lon="1.50719">
        <ele>232</ele>
        <time>2018-11-17T10:33:00Z</time>
      </trkpt>
      <trkpt lat="43.44668" lon="1.5072">
        <ele>232</ele>
        <time>2018-11-17T10:33:00Z</time>
      </trkpt>
      <trkpt lat="43.44663" lon="1.5072">
        <ele>232</ele>
        <time>2018-11-17T10:33:00Z</time>
      </trkpt>
      <trkpt lat="43.44658" lon="1.50718">
        <ele>232</ele>
        <time>2018-11-17T10:33:16Z</time>
      </trkpt>
      <trkpt lat="43.44655" lon="1.50715">
        <ele>232</ele>
        <time>2018-11-17T10:33:16Z</time>
      </trkpt>
      <trkpt lat="43.44653" lon="1.50712">
        <ele>232</ele>
        <time>2018-11-17T10:33:16Z</time>
      </trkpt>
      <trkpt lat="43.44651" lon="1.50707">
        <ele>235</ele>
        <time>2018-11-17T10:33:16Z</time>
      </trkpt>
      <trkpt lat="43.44649" lon="1.50702">
        <ele>235</ele>
        <time>2018-11-17T10:33:32Z</time>
      </trkpt>
      <trkpt lat="43.44646" lon="1.50696">
        <ele>235</ele>
        <time>2018-11-17T10:33:32Z</time>
      </trkpt>
      <trkpt lat="43.44642" lon="1.50689">
        <ele>235</ele>
        <time>2018-11-17T10:33:32Z</time>
      </trkpt>
      <trkpt lat="43.4464" lon="1.50685">
        <ele>235</ele>
        <time>2018-11-17T10:33:32Z</time>
      </trkpt>
      <trkpt lat="43.44639" lon="1.5068">
        <ele>235</ele>
        <time>2018-11-17T10:33:48Z</time>
      </trkpt>
      <trkpt lat="43.44638" lon="1.50675">
        <ele>235</ele>
        <time>2018-11-17T10:33:48Z</time>
      </trkpt>
      <trkpt lat="43.44635" lon="1.5067">
        <ele>235</ele>
        <time>2018-11-17T10:33:48Z</time>
      </trkpt>
      <trkpt lat="43.44632" lon="1.50664">
        <ele>235</ele>
        <time>2018-11-17T10:33:48Z</time>
      </trkpt>
      <trkpt lat="43.44629" lon="1.50659">
        <ele>235</ele>
        <time>2018-11-17T10:34:04Z</time>
      </trkpt>
      <trkpt lat="43.44627" lon="1.50652">
        <ele>235</ele>
        <time>2018-11-17T10:34:04Z</time>
      </trkpt>
      <trkpt lat="43.44624" lon="1.50647">
        <ele>214</ele>
        <time>2018-11-17T10:34:04Z</time>
      </trkpt>
      <trkpt lat="43.44622" lon="1.50642">
        <ele>214</ele>
        <time>2018-11-17T10:34:04Z</time>
      </trkpt>
      <trkpt lat="43.44618" lon="1.50634">
        <ele>214</ele>
        <time>2018-11-17T10:34:20Z</time>
      </trkpt>
      <trkpt lat="43.44614" lon="1.50625">
        <ele>211</ele>
        <time>2018-11-17T10:34:20Z</time>
      </trkpt>
      <trkpt lat="43.44612" lon="1.50621">
        <ele>211</ele>
        <time>2018-11-17T10:34:20Z</time>
      </trkpt>
      <trkpt lat="43.44609" lon="1.50618">
        <ele>211</ele>
        <time>2018-11-17T10:34:20Z</time>
      </trkpt>
      <trkpt lat="43.44604" lon="1.50615">
        <ele>211</ele>
        <time>2018-11-17T10:34:36Z</time>
      </trkpt>
      <trkpt lat="43.44598" lon="1.50614">
        <ele>211</ele>
        <time>2018-11-17T10:34:36Z</time>
      </trkpt>
      <trkpt lat="43.44593" lon="1.50614">
        <ele>211</ele>
        <time>2018-11-17T10:34:36Z</time>
      </trkpt>
      <trkpt lat="43.44588" lon="1.50614">
        <ele>211</ele>
        <time>2018-11-17T10:34:36Z</time>
      </trkpt>
      <trkpt lat="43.44581" lon="1.50612">
        <ele>211</ele>
        <time>2018-11-17T10:34:52Z</time>
      </trkpt>
      <trkpt lat="43.44575" lon="1.50611">
        <ele>211</ele>
        <time>2018-11-17T10:34:52Z</time>
      </trkpt>
      <trkpt lat="43.4457" lon="1.5061">
        <ele>211</ele>
        <time>2018-11-17T10:34:52Z</time>
      </trkpt>
      <trkpt lat="43.44564" lon="1.50608">
        <ele>211</ele>
        <time>2018-11-17T10:34:52Z</time>
      </trkpt>
      <trkpt lat="43.44558" lon="1.50607">
        <ele>211</ele>
        <time>2018-11-17T10:35:08Z</time>
      </trkpt>
      <trkpt lat="43.44552" lon="1.50606">
        <ele>211</ele>
        <time>2018-11-17T10:35:08Z</time>
      </trkpt>
      <trkpt lat="43.44546" lon="1.50605">
        <ele>211</ele>
        <time>2018-11-17T10:35:08Z</time>
      </trkpt>
      <trkpt lat="43.44539" lon="1.50603">
        <ele>208</ele>
        <time>2018-11-17T10:35:08Z</time>
      </trkpt>
      <trkpt lat="43.44534" lon="1.50604">
        <ele>208</ele>
        <time>2018-11-17T10:35:24Z</time>
      </trkpt>
      <trkpt lat="43.4453" lon="1.50605">
        <ele>208</ele>
        <time>2018-11-17T10:35:24Z</time>
      </trkpt>
      <trkpt lat="43.44527" lon="1.50604">
        <ele>208</ele>
        <time>2018-11-17T10:35:24Z</time>
      </trkpt>
      <trkpt lat="43.44522" lon="1.50603">
        <ele>208</ele>
        <time>2018-11-17T10:35:24Z</time>
      </trkpt>
      <trkpt lat="43.44518" lon="1.50602">
        <ele>208</ele>
        <time>2018-11-17T10:35:40Z</time>
      </trkpt>
      <trkpt lat="43.44515" lon="1.50601">
        <ele>208</ele>
        <time>2018-11-17T10:35:40Z</time>
      </trkpt>
      <trkpt lat="43.44513" lon="1.50599">
        <ele>208</ele>
        <time>2018-11-17T10:35:40Z</time>
      </trkpt>
      <trkpt lat="43.44509" lon="1.50594">
        <ele>208</ele>
        <time>2018-11-17T10:35:40Z</time>
      </trkpt>
      <trkpt lat="43.44506" lon="1.50588">
        <ele>208</ele>
        <time>2018-11-17T10:35:56Z</time>
      </trkpt>
      <trkpt lat="43.44504" lon="1.50583">
        <ele>208</ele>
        <time>2018-11-17T10:35:56Z</time>
      </trkpt>
      <trkpt lat="43.44501" lon="1.50578">
        <ele>208</ele>
        <time>2018-11-17T10:35:56Z</time>
      </trkpt>
      <trkpt lat="43.44499" lon="1.50575">
        <ele>208</ele>
        <time>2018-11-17T10:35:56Z</time>
      </trkpt>
      <trkpt lat="43.44496" lon="1.50571">
        <ele>208</ele>
        <time>2018-11-17T10:36:12Z</time>
      </trkpt>
      <trkpt lat="43.44492" lon="1.50566">
        <ele>208</ele>
        <time>2018-11-17T10:36:12Z</time>
      </trkpt>
      <trkpt lat="43.44489" lon="1.50562">
        <ele>208</ele>
        <time>2018-11-17T10:36:12Z</time>
      </trkpt>
      <trkpt lat="43.44486" lon="1.50561">
        <ele>208</ele>
        <time>2018-11-17T10:36:12Z</time>
      </trkpt>
      <trkpt lat="43.44482" lon="1.50559">
        <ele>208</ele>
        <time>2018-11-17T10:36:32Z</time>
      </trkpt>
      <trkpt lat="43.44478" lon="1.50558">
        <ele>208</ele>
        <time>2018-11-17T10:36:32Z</time>
      </trkpt>
      <trkpt lat="43.44476" lon="1.50559">
        <ele>208</ele>
        <time>2018-11-17T10:36:32Z</time>
      </trkpt>
      <trkpt lat="43.44475" lon="1.50563">
        <ele>208</ele>
        <time>2018-11-17T10:36:32Z</time>
      </trkpt>
      <trkpt lat="43.44471" lon="1.50571">
        <ele>208</ele>
        <time>2018-11-17T10:36:32Z</time>
      </trkpt>
      <trkpt lat="43.44464" lon="1.50579">
        <ele>208</ele>
        <time>2018-11-17T10:37:44Z</time>
      </trkpt>
      <trkpt lat="43.44462" lon="1.50576">
        <ele>208</ele>
        <time>2018-11-17T10:37:44Z</time>
      </trkpt>
      <trkpt lat="43.44461" lon="1.50572">
        <ele>208</ele>
        <time>2018-11-17T10:37:44Z</time>
      </trkpt>
      <trkpt lat="43.44457" lon="1.5057">
        <ele>215</ele>
        <time>2018-11-17T10:37:44Z</time>
      </trkpt>
      <trkpt lat="43.44456" lon="1.50569">
        <ele>215</ele>
        <time>2018-11-17T10:37:44Z</time>
      </trkpt>
      <trkpt lat="43.44452" lon="1.50572">
        <ele>215</ele>
        <time>2018-11-17T10:38:04Z</time>
      </trkpt>
      <trkpt lat="43.4445" lon="1.50573">
        <ele>215</ele>
        <time>2018-11-17T10:38:04Z</time>
      </trkpt>
      <trkpt lat="43.44448" lon="1.50575">
        <ele>215</ele>
        <time>2018-11-17T10:38:04Z</time>
      </trkpt>
      <trkpt lat="43.44445" lon="1.50578">
        <ele>215</ele>
        <time>2018-11-17T10:38:04Z</time>
      </trkpt>
      <trkpt lat="43.44443" lon="1.5058">
        <ele>215</ele>
        <time>2018-11-17T10:38:04Z</time>
      </trkpt>
      <trkpt lat="43.44437" lon="1.50585">
        <ele>215</ele>
        <time>2018-11-17T10:38:20Z</time>
      </trkpt>
      <trkpt lat="43.4443" lon="1.5059">
        <ele>215</ele>
        <time>2018-11-17T10:38:20Z</time>
      </trkpt>
      <trkpt lat="43.44425" lon="1.50596">
        <ele>215</ele>
        <time>2018-11-17T10:38:20Z</time>
      </trkpt>
      <trkpt lat="43.4442" lon="1.50601">
        <ele>215</ele>
        <time>2018-11-17T10:38:20Z</time>
      </trkpt>
      <trkpt lat="43.44416" lon="1.50607">
        <ele>215</ele>
        <time>2018-11-17T10:38:36Z</time>
      </trkpt>
      <trkpt lat="43.4441" lon="1.5061">
        <ele>215</ele>
        <time>2018-11-17T10:38:36Z</time>
      </trkpt>
      <trkpt lat="43.44406" lon="1.5061">
        <ele>215</ele>
        <time>2018-11-17T10:38:36Z</time>
      </trkpt>
      <trkpt lat="43.44401" lon="1.50613">
        <ele>215</ele>
        <time>2018-11-17T10:38:36Z</time>
      </trkpt>
      <trkpt lat="43.44396" lon="1.50619">
        <ele>215</ele>
        <time>2018-11-17T10:38:52Z</time>
      </trkpt>
      <trkpt lat="43.44393" lon="1.50622">
        <ele>215</ele>
        <time>2018-11-17T10:38:52Z</time>
      </trkpt>
      <trkpt lat="43.44388" lon="1.50627">
        <ele>208</ele>
        <time>2018-11-17T10:38:52Z</time>
      </trkpt>
      <trkpt lat="43.44382" lon="1.50631">
        <ele>208</ele>
        <time>2018-11-17T10:38:52Z</time>
      </trkpt>
      <trkpt lat="43.44379" lon="1.50634">
        <ele>208</ele>
        <time>2018-11-17T10:39:08Z</time>
      </trkpt>
      <trkpt lat="43.44374" lon="1.50637">
        <ele>207</ele>
        <time>2018-11-17T10:39:08Z</time>
      </trkpt>
      <trkpt lat="43.44371" lon="1.5064">
        <ele>207</ele>
        <time>2018-11-17T10:39:08Z</time>
      </trkpt>
      <trkpt lat="43.44367" lon="1.50641">
        <ele>207</ele>
        <time>2018-11-17T10:39:08Z</time>
      </trkpt>
      <trkpt lat="43.44363" lon="1.50644">
        <ele>207</ele>
        <time>2018-11-17T10:39:24Z</time>
      </trkpt>
      <trkpt lat="43.44359" lon="1.50645">
        <ele>207</ele>
        <time>2018-11-17T10:39:24Z</time>
      </trkpt>
      <trkpt lat="43.44356" lon="1.50645">
        <ele>207</ele>
        <time>2018-11-17T10:39:24Z</time>
      </trkpt>
      <trkpt lat="43.44352" lon="1.50644">
        <ele>207</ele>
        <time>2018-11-17T10:39:24Z</time>
      </trkpt>
      <trkpt lat="43.44351" lon="1.50641">
        <ele>207</ele>
        <time>2018-11-17T10:39:44Z</time>
      </trkpt>
      <trkpt lat="43.44349" lon="1.50639">
        <ele>207</ele>
        <time>2018-11-17T10:39:44Z</time>
      </trkpt>
      <trkpt lat="43.44347" lon="1.50638">
        <ele>207</ele>
        <time>2018-11-17T10:39:44Z</time>
      </trkpt>
      <trkpt lat="43.44343" lon="1.50637">
        <ele>207</ele>
        <time>2018-11-17T10:39:44Z</time>
      </trkpt>
      <trkpt lat="43.44338" lon="1.50639">
        <ele>207</ele>
        <time>2018-11-17T10:39:44Z</time>
      </trkpt>
      <trkpt lat="43.44331" lon="1.5064">
        <ele>207</ele>
        <time>2018-11-17T10:40:00Z</time>
      </trkpt>
      <trkpt lat="43.44326" lon="1.50639">
        <ele>207</ele>
        <time>2018-11-17T10:40:00Z</time>
      </trkpt>
      <trkpt lat="43.44319" lon="1.50639">
        <ele>207</ele>
        <time>2018-11-17T10:40:00Z</time>
      </trkpt>
      <trkpt lat="43.44314" lon="1.50637">
        <ele>207</ele>
        <time>2018-11-17T10:40:00Z</time>
      </trkpt>
      <trkpt lat="43.44306" lon="1.50636">
        <ele>207</ele>
        <time>2018-11-17T10:40:16Z</time>
      </trkpt>
      <trkpt lat="43.44301" lon="1.50632">
        <ele>207</ele>
        <time>2018-11-17T10:40:16Z</time>
      </trkpt>
      <trkpt lat="43.44296" lon="1.50631">
        <ele>207</ele>
        <time>2018-11-17T10:40:16Z</time>
      </trkpt>
      <trkpt lat="43.44294" lon="1.50628">
        <ele>207</ele>
        <time>2018-11-17T10:40:16Z</time>
      </trkpt>
      <trkpt lat="43.4429" lon="1.50627">
        <ele>205</ele>
        <time>2018-11-17T10:40:32Z</time>
      </trkpt>
      <trkpt lat="43.44285" lon="1.50625">
        <ele>205</ele>
        <time>2018-11-17T10:40:32Z</time>
      </trkpt>
      <trkpt lat="43.44281" lon="1.50625">
        <ele>208</ele>
        <time>2018-11-17T10:40:32Z</time>
      </trkpt>
      <trkpt lat="43.44276" lon="1.50624">
        <ele>208</ele>
        <time>2018-11-17T10:40:32Z</time>
      </trkpt>
      <trkpt lat="43.44272" lon="1.50617">
        <ele>208</ele>
        <time>2018-11-17T10:40:48Z</time>
      </trkpt>
      <trkpt lat="43.44268" lon="1.5061">
        <ele>208</ele>
        <time>2018-11-17T10:40:48Z</time>
      </trkpt>
      <trkpt lat="43.44265" lon="1.50605">
        <ele>208</ele>
        <time>2018-11-17T10:40:48Z</time>
      </trkpt>
      <trkpt lat="43.44262" lon="1.506">
        <ele>208</ele>
        <time>2018-11-17T10:40:48Z</time>
      </trkpt>
      <trkpt lat="43.44255" lon="1.50591">
        <ele>208</ele>
        <time>2018-11-17T10:41:28Z</time>
      </trkpt>
      <trkpt lat="43.44255" lon="1.50591">
        <ele>208</ele>
        <time>2018-11-17T10:41:28Z</time>
      </trkpt>
      <trkpt lat="43.44255" lon="1.5059">
        <ele>208</ele>
        <time>2018-11-17T10:41:28Z</time>
      </trkpt>
      <trkpt lat="43.44254" lon="1.5059">
        <ele>208</ele>
        <time>2018-11-17T10:41:28Z</time>
      </trkpt>
      <trkpt lat="43.44252" lon="1.50587">
        <ele>208</ele>
        <time>2018-11-17T10:41:28Z</time>
      </trkpt>
      <trkpt lat="43.44249" lon="1.50583">
        <ele>208</ele>
        <time>2018-11-17T10:41:44Z</time>
      </trkpt>
      <trkpt lat="43.44246" lon="1.50575">
        <ele>208</ele>
        <time>2018-11-17T10:41:44Z</time>
      </trkpt>
      <trkpt lat="43.44245" lon="1.50572">
        <ele>208</ele>
        <time>2018-11-17T10:41:44Z</time>
      </trkpt>
      <trkpt lat="43.44245" lon="1.50569">
        <ele>208</ele>
        <time>2018-11-17T10:41:44Z</time>
      </trkpt>
      <trkpt lat="43.44243" lon="1.50558">
        <ele>208</ele>
        <time>2018-11-17T10:42:00Z</time>
      </trkpt>
      <trkpt lat="43.44243" lon="1.50548">
        <ele>208</ele>
        <time>2018-11-17T10:42:00Z</time>
      </trkpt>
      <trkpt lat="43.44243" lon="1.50539">
        <ele>219</ele>
        <time>2018-11-17T10:42:00Z</time>
      </trkpt>
      <trkpt lat="43.44243" lon="1.50531">
        <ele>219</ele>
        <time>2018-11-17T10:42:00Z</time>
      </trkpt>
      <trkpt lat="43.44243" lon="1.50528">
        <ele>219</ele>
        <time>2018-11-17T10:42:20Z</time>
      </trkpt>
      <trkpt lat="43.44243" lon="1.50526">
        <ele>219</ele>
        <time>2018-11-17T10:42:20Z</time>
      </trkpt>
      <trkpt lat="43.44244" lon="1.50522">
        <ele>219</ele>
        <time>2018-11-17T10:42:20Z</time>
      </trkpt>
      <trkpt lat="43.44246" lon="1.50516">
        <ele>219</ele>
        <time>2018-11-17T10:42:20Z</time>
      </trkpt>
      <trkpt lat="43.44248" lon="1.5051">
        <ele>219</ele>
        <time>2018-11-17T10:42:20Z</time>
      </trkpt>
      <trkpt lat="43.4425" lon="1.50506">
        <ele>219</ele>
        <time>2018-11-17T10:42:40Z</time>
      </trkpt>
      <trkpt lat="43.44251" lon="1.50501">
        <ele>219</ele>
        <time>2018-11-17T10:42:40Z</time>
      </trkpt>
      <trkpt lat="43.44253" lon="1.50498">
        <ele>219</ele>
        <time>2018-11-17T10:42:40Z</time>
      </trkpt>
      <trkpt lat="43.44254" lon="1.50496">
        <ele>219</ele>
        <time>2018-11-17T10:42:40Z</time>
      </trkpt>
      <trkpt lat="43.44255" lon="1.50491">
        <ele>219</ele>
        <time>2018-11-17T10:42:40Z</time>
      </trkpt>
      <trkpt lat="43.44256" lon="1.50487">
        <ele>219</ele>
        <time>2018-11-17T10:43:00Z</time>
      </trkpt>
      <trkpt lat="43.44257" lon="1.50485">
        <ele>219</ele>
        <time>2018-11-17T10:43:00Z</time>
      </trkpt>
      <trkpt lat="43.44258" lon="1.50481">
        <ele>219</ele>
        <time>2018-11-17T10:43:00Z</time>
      </trkpt>
      <trkpt lat="43.44258" lon="1.50476">
        <ele>219</ele>
        <time>2018-11-17T10:43:00Z</time>
      </trkpt>
      <trkpt lat="43.44259" lon="1.50472">
        <ele>219</ele>
        <time>2018-11-17T10:43:00Z</time>
      </trkpt>
      <trkpt lat="43.44261" lon="1.50467">
        <ele>219</ele>
        <time>2018-11-17T10:43:16Z</time>
      </trkpt>
      <trkpt lat="43.44264" lon="1.50462">
        <ele>219</ele>
        <time>2018-11-17T10:43:16Z</time>
      </trkpt>
      <trkpt lat="43.44268" lon="1.50457">
        <ele>221</ele>
        <time>2018-11-17T10:43:16Z</time>
      </trkpt>
      <trkpt lat="43.44272" lon="1.50451">
        <ele>221</ele>
        <time>2018-11-17T10:43:16Z</time>
      </trkpt>
      <trkpt lat="43.44276" lon="1.50446">
        <ele>221</ele>
        <time>2018-11-17T10:43:32Z</time>
      </trkpt>
      <trkpt lat="43.44281" lon="1.50441">
        <ele>221</ele>
        <time>2018-11-17T10:43:32Z</time>
      </trkpt>
      <trkpt lat="43.44284" lon="1.50437">
        <ele>221</ele>
        <time>2018-11-17T10:43:32Z</time>
      </trkpt>
      <trkpt lat="43.44288" lon="1.50433">
        <ele>221</ele>
        <time>2018-11-17T10:43:32Z</time>
      </trkpt>
      <trkpt lat="43.44291" lon="1.50429">
        <ele>221</ele>
        <time>2018-11-17T10:43:48Z</time>
      </trkpt>
      <trkpt lat="43.44296" lon="1.50427">
        <ele>233</ele>
        <time>2018-11-17T10:43:48Z</time>
      </trkpt>
      <trkpt lat="43.44299" lon="1.50424">
        <ele>233</ele>
        <time>2018-11-17T10:43:48Z</time>
      </trkpt>
      <trkpt lat="43.44301" lon="1.50422">
        <ele>233</ele>
        <time>2018-11-17T10:43:48Z</time>
      </trkpt>
      <trkpt lat="43.44304" lon="1.50418">
        <ele>233</ele>
        <time>2018-11-17T10:44:12Z</time>
      </trkpt>
      <trkpt lat="43.44304" lon="1.50418">
        <ele>233</ele>
        <time>2018-11-17T10:44:12Z</time>
      </trkpt>
      <trkpt lat="43.44304" lon="1.50418">
        <ele>233</ele>
        <time>2018-11-17T10:44:12Z</time>
      </trkpt>
      <trkpt lat="43.44308" lon="1.50416">
        <ele>233</ele>
        <time>2018-11-17T10:44:12Z</time>
      </trkpt>
      <trkpt lat="43.44312" lon="1.50415">
        <ele>233</ele>
        <time>2018-11-17T10:44:12Z</time>
      </trkpt>
      <trkpt lat="43.44317" lon="1.50413">
        <ele>233</ele>
        <time>2018-11-17T10:44:28Z</time>
      </trkpt>
      <trkpt lat="43.44321" lon="1.50409">
        <ele>233</ele>
        <time>2018-11-17T10:44:28Z</time>
      </trkpt>
      <trkpt lat="43.44323" lon="1.50405">
        <ele>233</ele>
        <time>2018-11-17T10:44:28Z</time>
      </trkpt>
      <trkpt lat="43.44327" lon="1.50402">
        <ele>233</ele>
        <time>2018-11-17T10:44:28Z</time>
      </trkpt>
      <trkpt lat="43.44329" lon="1.50398">
        <ele>233</ele>
        <time>2018-11-17T10:44:48Z</time>
      </trkpt>
      <trkpt lat="43.44331" lon="1.50393">
        <ele>233</ele>
        <time>2018-11-17T10:44:48Z</time>
      </trkpt>
      <trkpt lat="43.44332" lon="1.5039">
        <ele>233</ele>
        <time>2018-11-17T10:44:48Z</time>
      </trkpt>
      <trkpt lat="43.44332" lon="1.50388">
        <ele>233</ele>
        <time>2018-11-17T10:44:48Z</time>
      </trkpt>
      <trkpt lat="43.44333" lon="1.50386">
        <ele>233</ele>
        <time>2018-11-17T10:44:48Z</time>
      </trkpt>
      <trkpt lat="43.44335" lon="1.50383">
        <ele>233</ele>
        <time>2018-11-17T10:45:04Z</time>
      </trkpt>
      <trkpt lat="43.44338" lon="1.50376">
        <ele>233</ele>
        <time>2018-11-17T10:45:04Z</time>
      </trkpt>
      <trkpt lat="43.4434" lon="1.50372">
        <ele>235</ele>
        <time>2018-11-17T10:45:04Z</time>
      </trkpt>
      <trkpt lat="43.44342" lon="1.50365">
        <ele>235</ele>
        <time>2018-11-17T10:45:04Z</time>
      </trkpt>
      <trkpt lat="43.44345" lon="1.50356">
        <ele>235</ele>
        <time>2018-11-17T10:45:20Z</time>
      </trkpt>
      <trkpt lat="43.44347" lon="1.5035">
        <ele>235</ele>
        <time>2018-11-17T10:45:20Z</time>
      </trkpt>
      <trkpt lat="43.44351" lon="1.50344">
        <ele>235</ele>
        <time>2018-11-17T10:45:20Z</time>
      </trkpt>
      <trkpt lat="43.44354" lon="1.50337">
        <ele>235</ele>
        <time>2018-11-17T10:45:20Z</time>
      </trkpt>
      <trkpt lat="43.44356" lon="1.50332">
        <ele>235</ele>
        <time>2018-11-17T10:51:08Z</time>
      </trkpt>
      <trkpt lat="43.44358" lon="1.50328">
        <ele>235</ele>
        <time>2018-11-17T10:51:08Z</time>
      </trkpt>
      <trkpt lat="43.44358" lon="1.5032">
        <ele>235</ele>
        <time>2018-11-17T10:51:08Z</time>
      </trkpt>
      <trkpt lat="43.44358" lon="1.50313">
        <ele>235</ele>
        <time>2018-11-17T10:51:08Z</time>
      </trkpt>
      <trkpt lat="43.44359" lon="1.50308">
        <ele>235</ele>
        <time>2018-11-17T10:51:08Z</time>
      </trkpt>
      <trkpt lat="43.44361" lon="1.50303">
        <ele>235</ele>
        <time>2018-11-17T10:51:24Z</time>
      </trkpt>
      <trkpt lat="43.44363" lon="1.50298">
        <ele>235</ele>
        <time>2018-11-17T10:51:24Z</time>
      </trkpt>
      <trkpt lat="43.44365" lon="1.50292">
        <ele>235</ele>
        <time>2018-11-17T10:51:24Z</time>
      </trkpt>
      <trkpt lat="43.44366" lon="1.50287">
        <ele>239</ele>
        <time>2018-11-17T10:51:24Z</time>
      </trkpt>
      <trkpt lat="43.44368" lon="1.50282">
        <ele>239</ele>
        <time>2018-11-17T10:51:40Z</time>
      </trkpt>
      <trkpt lat="43.44366" lon="1.50273">
        <ele>239</ele>
        <time>2018-11-17T10:51:40Z</time>
      </trkpt>
      <trkpt lat="43.44366" lon="1.50267">
        <ele>239</ele>
        <time>2018-11-17T10:51:40Z</time>
      </trkpt>
      <trkpt lat="43.44367" lon="1.50261">
        <ele>239</ele>
        <time>2018-11-17T10:51:40Z</time>
      </trkpt>
      <trkpt lat="43.44368" lon="1.50255">
        <ele>239</ele>
        <time>2018-11-17T10:51:56Z</time>
      </trkpt>
      <trkpt lat="43.44366" lon="1.50247">
        <ele>239</ele>
        <time>2018-11-17T10:51:56Z</time>
      </trkpt>
      <trkpt lat="43.44367" lon="1.50238">
        <ele>239</ele>
        <time>2018-11-17T10:51:56Z</time>
      </trkpt>
      <trkpt lat="43.44367" lon="1.5023">
        <ele>239</ele>
        <time>2018-11-17T10:51:56Z</time>
      </trkpt>
      <trkpt lat="43.44368" lon="1.50222">
        <ele>239</ele>
        <time>2018-11-17T10:52:16Z</time>
      </trkpt>
      <trkpt lat="43.44369" lon="1.50217">
        <ele>239</ele>
        <time>2018-11-17T10:52:16Z</time>
      </trkpt>
      <trkpt lat="43.4437" lon="1.50216">
        <ele>239</ele>
        <time>2018-11-17T10:52:16Z</time>
      </trkpt>
      <trkpt lat="43.4437" lon="1.50212">
        <ele>239</ele>
        <time>2018-11-17T10:52:16Z</time>
      </trkpt>
      <trkpt lat="43.44371" lon="1.50204">
        <ele>248</ele>
        <time>2018-11-17T10:52:16Z</time>
      </trkpt>
      <trkpt lat="43.44369" lon="1.50196">
        <ele>248</ele>
        <time>2018-11-17T10:52:32Z</time>
      </trkpt>
      <trkpt lat="43.44368" lon="1.50188">
        <ele>248</ele>
        <time>2018-11-17T10:52:32Z</time>
      </trkpt>
      <trkpt lat="43.44368" lon="1.5018">
        <ele>248</ele>
        <time>2018-11-17T10:52:32Z</time>
      </trkpt>
      <trkpt lat="43.44368" lon="1.50173">
        <ele>248</ele>
        <time>2018-11-17T10:52:32Z</time>
      </trkpt>
      <trkpt lat="43.44369" lon="1.50167">
        <ele>248</ele>
        <time>2018-11-17T10:52:48Z</time>
      </trkpt>
      <trkpt lat="43.44368" lon="1.50161">
        <ele>248</ele>
        <time>2018-11-17T10:52:48Z</time>
      </trkpt>
      <trkpt lat="43.44368" lon="1.50155">
        <ele>248</ele>
        <time>2018-11-17T10:52:48Z</time>
      </trkpt>
      <trkpt lat="43.44368" lon="1.50149">
        <ele>248</ele>
        <time>2018-11-17T10:52:48Z</time>
      </trkpt>
      <trkpt lat="43.44368" lon="1.50143">
        <ele>248</ele>
        <time>2018-11-17T10:53:04Z</time>
      </trkpt>
      <trkpt lat="43.44368" lon="1.50136">
        <ele>248</ele>
        <time>2018-11-17T10:53:04Z</time>
      </trkpt>
      <trkpt lat="43.44367" lon="1.5013">
        <ele>248</ele>
        <time>2018-11-17T10:53:04Z</time>
      </trkpt>
      <trkpt lat="43.44369" lon="1.50124">
        <ele>256</ele>
        <time>2018-11-17T10:53:04Z</time>
      </trkpt>
      <trkpt lat="43.44371" lon="1.50118">
        <ele>256</ele>
        <time>2018-11-17T10:53:20Z</time>
      </trkpt>
      <trkpt lat="43.44371" lon="1.50113">
        <ele>256</ele>
        <time>2018-11-17T10:53:20Z</time>
      </trkpt>
      <trkpt lat="43.44371" lon="1.50106">
        <ele>256</ele>
        <time>2018-11-17T10:53:20Z</time>
      </trkpt>
      <trkpt lat="43.4437" lon="1.50101">
        <ele>256</ele>
        <time>2018-11-17T10:53:20Z</time>
      </trkpt>
      <trkpt lat="43.44369" lon="1.50096">
        <ele>256</ele>
        <time>2018-11-17T10:53:36Z</time>
      </trkpt>
      <trkpt lat="43.44369" lon="1.50092">
        <ele>256</ele>
        <time>2018-11-17T10:53:36Z</time>
      </trkpt>
      <trkpt lat="43.44369" lon="1.50086">
        <ele>256</ele>
        <time>2018-11-17T10:53:36Z</time>
      </trkpt>
      <trkpt lat="43.44369" lon="1.50079">
        <ele>256</ele>
        <time>2018-11-17T10:53:36Z</time>
      </trkpt>
      <trkpt lat="43.44369" lon="1.50075">
        <ele>256</ele>
        <time>2018-11-17T10:53:52Z</time>
      </trkpt>
      <trkpt lat="43.44369" lon="1.5007">
        <ele>256</ele>
        <time>2018-11-17T10:53:52Z</time>
      </trkpt>
      <trkpt lat="43.44368" lon="1.50064">
        <ele>256</ele>
        <time>2018-11-17T10:53:52Z</time>
      </trkpt>
      <trkpt lat="43.44369" lon="1.5006">
        <ele>256</ele>
        <time>2018-11-17T10:53:52Z</time>
      </trkpt>
      <trkpt lat="43.44369" lon="1.50055">
        <ele>256</ele>
        <time>2018-11-17T10:54:08Z</time>
      </trkpt>
      <trkpt lat="43.44369" lon="1.50047">
        <ele>256</ele>
        <time>2018-11-17T10:54:08Z</time>
      </trkpt>
      <trkpt lat="43.44369" lon="1.5004">
        <ele>259</ele>
        <time>2018-11-17T10:54:08Z</time>
      </trkpt>
      <trkpt lat="43.44369" lon="1.50034">
        <ele>259</ele>
        <time>2018-11-17T10:54:08Z</time>
      </trkpt>
      <trkpt lat="43.44369" lon="1.50027">
        <ele>259</ele>
        <time>2018-11-17T10:54:24Z</time>
      </trkpt>
      <trkpt lat="43.4437" lon="1.50022">
        <ele>259</ele>
        <time>2018-11-17T10:54:24Z</time>
      </trkpt>
      <trkpt lat="43.44371" lon="1.50017">
        <ele>259</ele>
        <time>2018-11-17T10:54:24Z</time>
      </trkpt>
      <trkpt lat="43.44372" lon="1.50011">
        <ele>259</ele>
        <time>2018-11-17T10:54:24Z</time>
      </trkpt>
      <trkpt lat="43.44374" lon="1.50004">
        <ele>259</ele>
        <time>2018-11-17T10:54:40Z</time>
      </trkpt>
      <trkpt lat="43.44377" lon="1.49997">
        <ele>254</ele>
        <time>2018-11-17T10:54:40Z</time>
      </trkpt>
      <trkpt lat="43.44379" lon="1.49991">
        <ele>254</ele>
        <time>2018-11-17T10:54:40Z</time>
      </trkpt>
      <trkpt lat="43.44382" lon="1.49984">
        <ele>254</ele>
        <time>2018-11-17T10:54:40Z</time>
      </trkpt>
      <trkpt lat="43.44385" lon="1.49978">
        <ele>254</ele>
        <time>2018-11-17T10:54:56Z</time>
      </trkpt>
      <trkpt lat="43.44387" lon="1.49972">
        <ele>254</ele>
        <time>2018-11-17T10:54:56Z</time>
      </trkpt>
      <trkpt lat="43.44391" lon="1.49965">
        <ele>254</ele>
        <time>2018-11-17T10:54:56Z</time>
      </trkpt>
      <trkpt lat="43.44396" lon="1.4996">
        <ele>254</ele>
        <time>2018-11-17T10:54:56Z</time>
      </trkpt>
      <trkpt lat="43.444" lon="1.49953">
        <ele>259</ele>
        <time>2018-11-17T10:55:12Z</time>
      </trkpt>
      <trkpt lat="43.44401" lon="1.49949">
        <ele>259</ele>
        <time>2018-11-17T10:55:12Z</time>
      </trkpt>
      <trkpt lat="43.44404" lon="1.49942">
        <ele>259</ele>
        <time>2018-11-17T10:55:12Z</time>
      </trkpt>
      <trkpt lat="43.44405" lon="1.49936">
        <ele>259</ele>
        <time>2018-11-17T10:55:12Z</time>
      </trkpt>
      <trkpt lat="43.44407" lon="1.4993">
        <ele>259</ele>
        <time>2018-11-17T10:55:28Z</time>
      </trkpt>
      <trkpt lat="43.44409" lon="1.49924">
        <ele>259</ele>
        <time>2018-11-17T10:55:28Z</time>
      </trkpt>
      <trkpt lat="43.4441" lon="1.49917">
        <ele>259</ele>
        <time>2018-11-17T10:55:28Z</time>
      </trkpt>
      <trkpt lat="43.44414" lon="1.49912">
        <ele>259</ele>
        <time>2018-11-17T10:55:28Z</time>
      </trkpt>
      <trkpt lat="43.44416" lon="1.49905">
        <ele>259</ele>
        <time>2018-11-17T10:55:44Z</time>
      </trkpt>
      <trkpt lat="43.4442" lon="1.49899">
        <ele>259</ele>
        <time>2018-11-17T10:55:44Z</time>
      </trkpt>
      <trkpt lat="43.44423" lon="1.49894">
        <ele>259</ele>
        <time>2018-11-17T10:55:44Z</time>
      </trkpt>
      <trkpt lat="43.44424" lon="1.49888">
        <ele>259</ele>
        <time>2018-11-17T10:55:44Z</time>
      </trkpt>
      <trkpt lat="43.44426" lon="1.49882">
        <ele>259</ele>
        <time>2018-11-17T10:56:00Z</time>
      </trkpt>
      <trkpt lat="43.44428" lon="1.49877">
        <ele>259</ele>
        <time>2018-11-17T10:56:00Z</time>
      </trkpt>
      <trkpt lat="43.44432" lon="1.49872">
        <ele>261</ele>
        <time>2018-11-17T10:56:00Z</time>
      </trkpt>
      <trkpt lat="43.44436" lon="1.49866">
        <ele>261</ele>
        <time>2018-11-17T10:56:00Z</time>
      </trkpt>
      <trkpt lat="43.4444" lon="1.49862">
        <ele>261</ele>
        <time>2018-11-17T10:56:16Z</time>
      </trkpt>
      <trkpt lat="43.44445" lon="1.49856">
        <ele>261</ele>
        <time>2018-11-17T10:56:16Z</time>
      </trkpt>
      <trkpt lat="43.44448" lon="1.4985">
        <ele>261</ele>
        <time>2018-11-17T10:56:16Z</time>
      </trkpt>
      <trkpt lat="43.4445" lon="1.49844">
        <ele>261</ele>
        <time>2018-11-17T10:56:16Z</time>
      </trkpt>
      <trkpt lat="43.44452" lon="1.49839">
        <ele>261</ele>
        <time>2018-11-17T10:56:32Z</time>
      </trkpt>
      <trkpt lat="43.44454" lon="1.49834">
        <ele>261</ele>
        <time>2018-11-17T10:56:32Z</time>
      </trkpt>
      <trkpt lat="43.44457" lon="1.49829">
        <ele>261</ele>
        <time>2018-11-17T10:56:32Z</time>
      </trkpt>
      <trkpt lat="43.4446" lon="1.49823">
        <ele>257</ele>
        <time>2018-11-17T10:56:32Z</time>
      </trkpt>
      <trkpt lat="43.44462" lon="1.49817">
        <ele>257</ele>
        <time>2018-11-17T10:56:48Z</time>
      </trkpt>
      <trkpt lat="43.44464" lon="1.49811">
        <ele>257</ele>
        <time>2018-11-17T10:56:48Z</time>
      </trkpt>
      <trkpt lat="43.44466" lon="1.49805">
        <ele>257</ele>
        <time>2018-11-17T10:56:48Z</time>
      </trkpt>
      <trkpt lat="43.44469" lon="1.498">
        <ele>257</ele>
        <time>2018-11-17T10:56:48Z</time>
      </trkpt>
      <trkpt lat="43.44472" lon="1.49795">
        <ele>257</ele>
        <time>2018-11-17T10:57:04Z</time>
      </trkpt>
      <trkpt lat="43.44475" lon="1.4979">
        <ele>260</ele>
        <time>2018-11-17T10:57:04Z</time>
      </trkpt>
      <trkpt lat="43.44478" lon="1.49784">
        <ele>260</ele>
        <time>2018-11-17T10:57:04Z</time>
      </trkpt>
      <trkpt lat="43.4448" lon="1.49778">
        <ele>260</ele>
        <time>2018-11-17T10:57:04Z</time>
      </trkpt>
      <trkpt lat="43.44483" lon="1.49771">
        <ele>260</ele>
        <time>2018-11-17T10:57:20Z</time>
      </trkpt>
      <trkpt lat="43.44484" lon="1.49765">
        <ele>260</ele>
        <time>2018-11-17T10:57:20Z</time>
      </trkpt>
      <trkpt lat="43.44487" lon="1.4976">
        <ele>260</ele>
        <time>2018-11-17T10:57:20Z</time>
      </trkpt>
      <trkpt lat="43.4449" lon="1.49754">
        <ele>260</ele>
        <time>2018-11-17T10:57:20Z</time>
      </trkpt>
      <trkpt lat="43.44491" lon="1.49747">
        <ele>260</ele>
        <time>2018-11-17T10:57:36Z</time>
      </trkpt>
      <trkpt lat="43.44494" lon="1.49743">
        <ele>260</ele>
        <time>2018-11-17T10:57:36Z</time>
      </trkpt>
      <trkpt lat="43.44497" lon="1.49738">
        <ele>260</ele>
        <time>2018-11-17T10:57:36Z</time>
      </trkpt>
      <trkpt lat="43.44499" lon="1.49732">
        <ele>260</ele>
        <time>2018-11-17T10:57:36Z</time>
      </trkpt>
      <trkpt lat="43.44501" lon="1.49726">
        <ele>260</ele>
        <time>2018-11-17T10:57:52Z</time>
      </trkpt>
      <trkpt lat="43.44504" lon="1.49721">
        <ele>260</ele>
        <time>2018-11-17T10:57:52Z</time>
      </trkpt>
      <trkpt lat="43.44506" lon="1.49714">
        <ele>260</ele>
        <time>2018-11-17T10:57:52Z</time>
      </trkpt>
      <trkpt lat="43.44508" lon="1.49707">
        <ele>259</ele>
        <time>2018-11-17T10:57:52Z</time>
      </trkpt>
      <trkpt lat="43.44509" lon="1.49701">
        <ele>259</ele>
        <time>2018-11-17T10:58:08Z</time>
      </trkpt>
      <trkpt lat="43.4451" lon="1.49694">
        <ele>259</ele>
        <time>2018-11-17T10:58:08Z</time>
      </trkpt>
      <trkpt lat="43.44513" lon="1.49687">
        <ele>259</ele>
        <time>2018-11-17T10:58:08Z</time>
      </trkpt>
      <trkpt lat="43.44518" lon="1.49682">
        <ele>259</ele>
        <time>2018-11-17T10:58:08Z</time>
      </trkpt>
      <trkpt lat="43.44523" lon="1.49677">
        <ele>259</ele>
        <time>2018-11-17T10:58:24Z</time>
      </trkpt>
      <trkpt lat="43.44526" lon="1.49671">
        <ele>259</ele>
        <time>2018-11-17T10:58:24Z</time>
      </trkpt>
      <trkpt lat="43.44529" lon="1.49665">
        <ele>259</ele>
        <time>2018-11-17T10:58:24Z</time>
      </trkpt>
      <trkpt lat="43.44531" lon="1.49659">
        <ele>259</ele>
        <time>2018-11-17T10:58:24Z</time>
      </trkpt>
      <trkpt lat="43.44533" lon="1.49653">
        <ele>259</ele>
        <time>2018-11-17T10:58:40Z</time>
      </trkpt>
      <trkpt lat="43.44535" lon="1.49647">
        <ele>259</ele>
        <time>2018-11-17T10:58:40Z</time>
      </trkpt>
      <trkpt lat="43.44537" lon="1.49642">
        <ele>259</ele>
        <time>2018-11-17T10:58:40Z</time>
      </trkpt>
      <trkpt lat="43.44538" lon="1.49635">
        <ele>259</ele>
        <time>2018-11-17T10:58:40Z</time>
      </trkpt>
      <trkpt lat="43.4454" lon="1.49627">
        <ele>259</ele>
        <time>2018-11-17T10:58:56Z</time>
      </trkpt>
      <trkpt lat="43.44543" lon="1.4962">
        <ele>258</ele>
        <time>2018-11-17T10:58:56Z</time>
      </trkpt>
      <trkpt lat="43.44545" lon="1.49614">
        <ele>258</ele>
        <time>2018-11-17T10:58:56Z</time>
      </trkpt>
      <trkpt lat="43.44548" lon="1.49607">
        <ele>258</ele>
        <time>2018-11-17T10:58:56Z</time>
      </trkpt>
      <trkpt lat="43.4455" lon="1.49601">
        <ele>258</ele>
        <time>2018-11-17T10:59:12Z</time>
      </trkpt>
      <trkpt lat="43.44552" lon="1.49595">
        <ele>258</ele>
        <time>2018-11-17T10:59:12Z</time>
      </trkpt>
      <trkpt lat="43.44555" lon="1.4959">
        <ele>258</ele>
        <time>2018-11-17T10:59:12Z</time>
      </trkpt>
      <trkpt lat="43.44557" lon="1.49583">
        <ele>258</ele>
        <time>2018-11-17T10:59:12Z</time>
      </trkpt>
      <trkpt lat="43.44562" lon="1.49582">
        <ele>258</ele>
        <time>2018-11-17T10:59:28Z</time>
      </trkpt>
      <trkpt lat="43.44566" lon="1.49575">
        <ele>258</ele>
        <time>2018-11-17T10:59:28Z</time>
      </trkpt>
      <trkpt lat="43.44569" lon="1.49569">
        <ele>258</ele>
        <time>2018-11-17T10:59:28Z</time>
      </trkpt>
      <trkpt lat="43.44569" lon="1.49562">
        <ele>258</ele>
        <time>2018-11-17T10:59:28Z</time>
      </trkpt>
      <trkpt lat="43.44572" lon="1.49556">
        <ele>258</ele>
        <time>2018-11-17T10:59:44Z</time>
      </trkpt>
      <trkpt lat="43.44573" lon="1.49549">
        <ele>258</ele>
        <time>2018-11-17T10:59:44Z</time>
      </trkpt>
      <trkpt lat="43.44575" lon="1.49542">
        <ele>258</ele>
        <time>2018-11-17T10:59:44Z</time>
      </trkpt>
      <trkpt lat="43.44578" lon="1.49535">
        <ele>256</ele>
        <time>2018-11-17T10:59:44Z</time>
      </trkpt>
      <trkpt lat="43.4458" lon="1.49528">
        <ele>256</ele>
        <time>2018-11-17T11:00:00Z</time>
      </trkpt>
      <trkpt lat="43.44582" lon="1.49521">
        <ele>256</ele>
        <time>2018-11-17T11:00:00Z</time>
      </trkpt>
      <trkpt lat="43.44584" lon="1.49515">
        <ele>256</ele>
        <time>2018-11-17T11:00:00Z</time>
      </trkpt>
      <trkpt lat="43.44586" lon="1.4951">
        <ele>256</ele>
        <time>2018-11-17T11:00:00Z</time>
      </trkpt>
      <trkpt lat="43.44588" lon="1.49504">
        <ele>256</ele>
        <time>2018-11-17T11:00:16Z</time>
      </trkpt>
      <trkpt lat="43.44591" lon="1.49498">
        <ele>256</ele>
        <time>2018-11-17T11:00:16Z</time>
      </trkpt>
      <trkpt lat="43.44595" lon="1.49491">
        <ele>256</ele>
        <time>2018-11-17T11:00:16Z</time>
      </trkpt>
      <trkpt lat="43.44597" lon="1.49483">
        <ele>256</ele>
        <time>2018-11-17T11:00:16Z</time>
      </trkpt>
      <trkpt lat="43.44599" lon="1.49476">
        <ele>256</ele>
        <time>2018-11-17T11:00:32Z</time>
      </trkpt>
      <trkpt lat="43.44604" lon="1.4947">
        <ele>256</ele>
        <time>2018-11-17T11:00:32Z</time>
      </trkpt>
      <trkpt lat="43.44606" lon="1.49463">
        <ele>256</ele>
        <time>2018-11-17T11:00:32Z</time>
      </trkpt>
      <trkpt lat="43.44608" lon="1.49457">
        <ele>251</ele>
        <time>2018-11-17T11:00:32Z</time>
      </trkpt>
      <trkpt lat="43.4461" lon="1.49451">
        <ele>251</ele>
        <time>2018-11-17T11:00:48Z</time>
      </trkpt>
      <trkpt lat="43.44611" lon="1.49445">
        <ele>251</ele>
        <time>2018-11-17T11:00:48Z</time>
      </trkpt>
      <trkpt lat="43.44613" lon="1.49438">
        <ele>251</ele>
        <time>2018-11-17T11:00:48Z</time>
      </trkpt>
      <trkpt lat="43.44614" lon="1.49432">
        <ele>251</ele>
        <time>2018-11-17T11:00:48Z</time>
      </trkpt>
      <trkpt lat="43.44615" lon="1.49424">
        <ele>251</ele>
        <time>2018-11-17T11:01:16Z</time>
      </trkpt>
      <trkpt lat="43.44616" lon="1.49422">
        <ele>251</ele>
        <time>2018-11-17T11:01:16Z</time>
      </trkpt>
      <trkpt lat="43.44618" lon="1.49415">
        <ele>251</ele>
        <time>2018-11-17T11:01:16Z</time>
      </trkpt>
      <trkpt lat="43.44618" lon="1.49405">
        <ele>251</ele>
        <time>2018-11-17T11:01:16Z</time>
      </trkpt>
      <trkpt lat="43.44618" lon="1.49397">
        <ele>251</ele>
        <time>2018-11-17T11:01:16Z</time>
      </trkpt>
      <trkpt lat="43.44618" lon="1.49391">
        <ele>251</ele>
        <time>2018-11-17T11:01:32Z</time>
      </trkpt>
      <trkpt lat="43.44618" lon="1.49384">
        <ele>251</ele>
        <time>2018-11-17T11:01:32Z</time>
      </trkpt>
      <trkpt lat="43.44619" lon="1.4938">
        <ele>251</ele>
        <time>2018-11-17T11:01:32Z</time>
      </trkpt>
      <trkpt lat="43.4462" lon="1.49376">
        <ele>251</ele>
        <time>2018-11-17T11:01:32Z</time>
      </trkpt>
      <trkpt lat="43.44621" lon="1.49368">
        <ele>250</ele>
        <time>2018-11-17T11:01:48Z</time>
      </trkpt>
      <trkpt lat="43.44624" lon="1.49361">
        <ele>250</ele>
        <time>2018-11-17T11:01:48Z</time>
      </trkpt>
      <trkpt lat="43.44625" lon="1.49353">
        <ele>260</ele>
        <time>2018-11-17T11:01:48Z</time>
      </trkpt>
      <trkpt lat="43.44627" lon="1.49345">
        <ele>260</ele>
        <time>2018-11-17T11:01:48Z</time>
      </trkpt>
      <trkpt lat="43.4463" lon="1.49337">
        <ele>260</ele>
        <time>2018-11-17T11:02:04Z</time>
      </trkpt>
      <trkpt lat="43.44631" lon="1.49331">
        <ele>260</ele>
        <time>2018-11-17T11:02:04Z</time>
      </trkpt>
      <trkpt lat="43.44634" lon="1.49324">
        <ele>260</ele>
        <time>2018-11-17T11:02:04Z</time>
      </trkpt>
      <trkpt lat="43.44636" lon="1.49317">
        <ele>260</ele>
        <time>2018-11-17T11:02:04Z</time>
      </trkpt>
      <trkpt lat="43.44637" lon="1.49311">
        <ele>260</ele>
        <time>2018-11-17T11:02:20Z</time>
      </trkpt>
      <trkpt lat="43.44638" lon="1.49304">
        <ele>260</ele>
        <time>2018-11-17T11:02:20Z</time>
      </trkpt>
      <trkpt lat="43.44642" lon="1.49298">
        <ele>260</ele>
        <time>2018-11-17T11:02:20Z</time>
      </trkpt>
      <trkpt lat="43.44645" lon="1.49295">
        <ele>260</ele>
        <time>2018-11-17T11:02:20Z</time>
      </trkpt>
      <trkpt lat="43.44645" lon="1.49288">
        <ele>258</ele>
        <time>2018-11-17T11:02:48Z</time>
      </trkpt>
      <trkpt lat="43.44646" lon="1.49283">
        <ele>258</ele>
        <time>2018-11-17T11:02:48Z</time>
      </trkpt>
      <trkpt lat="43.44647" lon="1.49282">
        <ele>258</ele>
        <time>2018-11-17T11:02:48Z</time>
      </trkpt>
      <trkpt lat="43.44647" lon="1.49281">
        <ele>258</ele>
        <time>2018-11-17T11:02:48Z</time>
      </trkpt>
      <trkpt lat="43.44648" lon="1.49276">
        <ele>258</ele>
        <time>2018-11-17T11:02:48Z</time>
      </trkpt>
      <trkpt lat="43.44648" lon="1.49269">
        <ele>258</ele>
        <time>2018-11-17T11:03:04Z</time>
      </trkpt>
      <trkpt lat="43.44648" lon="1.49263">
        <ele>258</ele>
        <time>2018-11-17T11:03:04Z</time>
      </trkpt>
      <trkpt lat="43.44649" lon="1.49256">
        <ele>258</ele>
        <time>2018-11-17T11:03:04Z</time>
      </trkpt>
      <trkpt lat="43.44651" lon="1.4925">
        <ele>258</ele>
        <time>2018-11-17T11:03:04Z</time>
      </trkpt>
      <trkpt lat="43.44652" lon="1.49242">
        <ele>258</ele>
        <time>2018-11-17T11:03:24Z</time>
      </trkpt>
      <trkpt lat="43.44652" lon="1.49236">
        <ele>258</ele>
        <time>2018-11-17T11:03:24Z</time>
      </trkpt>
      <trkpt lat="43.44649" lon="1.49234">
        <ele>258</ele>
        <time>2018-11-17T11:03:24Z</time>
      </trkpt>
      <trkpt lat="43.44649" lon="1.49231">
        <ele>258</ele>
        <time>2018-11-17T11:03:24Z</time>
      </trkpt>
      <trkpt lat="43.44652" lon="1.49225">
        <ele>258</ele>
        <time>2018-11-17T11:03:24Z</time>
      </trkpt>
      <trkpt lat="43.44654" lon="1.49219">
        <ele>258</ele>
        <time>2018-11-17T11:03:40Z</time>
      </trkpt>
      <trkpt lat="43.44656" lon="1.49212">
        <ele>258</ele>
        <time>2018-11-17T11:03:40Z</time>
      </trkpt>
      <trkpt lat="43.44658" lon="1.49206">
        <ele>256</ele>
        <time>2018-11-17T11:03:40Z</time>
      </trkpt>
      <trkpt lat="43.44659" lon="1.49198">
        <ele>256</ele>
        <time>2018-11-17T11:03:40Z</time>
      </trkpt>
      <trkpt lat="43.44661" lon="1.49186">
        <ele>256</ele>
        <time>2018-11-17T11:04:04Z</time>
      </trkpt>
      <trkpt lat="43.44662" lon="1.49186">
        <ele>256</ele>
        <time>2018-11-17T11:04:04Z</time>
      </trkpt>
      <trkpt lat="43.44662" lon="1.49184">
        <ele>256</ele>
        <time>2018-11-17T11:04:04Z</time>
      </trkpt>
      <trkpt lat="43.44663" lon="1.4918">
        <ele>256</ele>
        <time>2018-11-17T11:04:04Z</time>
      </trkpt>
      <trkpt lat="43.44665" lon="1.49174">
        <ele>256</ele>
        <time>2018-11-17T11:04:04Z</time>
      </trkpt>
      <trkpt lat="43.44666" lon="1.4917">
        <ele>256</ele>
        <time>2018-11-17T11:04:20Z</time>
      </trkpt>
      <trkpt lat="43.44668" lon="1.49166">
        <ele>256</ele>
        <time>2018-11-17T11:04:20Z</time>
      </trkpt>
      <trkpt lat="43.44669" lon="1.4916">
        <ele>256</ele>
        <time>2018-11-17T11:04:20Z</time>
      </trkpt>
      <trkpt lat="43.4467" lon="1.49153">
        <ele>256</ele>
        <time>2018-11-17T11:04:20Z</time>
      </trkpt>
      <trkpt lat="43.4467" lon="1.49143">
        <ele>256</ele>
        <time>2018-11-17T11:04:36Z</time>
      </trkpt>
      <trkpt lat="43.44674" lon="1.49135">
        <ele>256</ele>
        <time>2018-11-17T11:04:36Z</time>
      </trkpt>
      <trkpt lat="43.44676" lon="1.49128">
        <ele>256</ele>
        <time>2018-11-17T11:04:36Z</time>
      </trkpt>
      <trkpt lat="43.44678" lon="1.49122">
        <ele>255</ele>
        <time>2018-11-17T11:04:36Z</time>
      </trkpt>
      <trkpt lat="43.44679" lon="1.49117">
        <ele>255</ele>
        <time>2018-11-17T11:04:52Z</time>
      </trkpt>
      <trkpt lat="43.4468" lon="1.49112">
        <ele>255</ele>
        <time>2018-11-17T11:04:52Z</time>
      </trkpt>
      <trkpt lat="43.44681" lon="1.49106">
        <ele>255</ele>
        <time>2018-11-17T11:04:52Z</time>
      </trkpt>
      <trkpt lat="43.44683" lon="1.491">
        <ele>255</ele>
        <time>2018-11-17T11:04:52Z</time>
      </trkpt>
      <trkpt lat="43.44684" lon="1.49094">
        <ele>255</ele>
        <time>2018-11-17T11:05:08Z</time>
      </trkpt>
      <trkpt lat="43.44686" lon="1.49088">
        <ele>255</ele>
        <time>2018-11-17T11:05:08Z</time>
      </trkpt>
      <trkpt lat="43.44686" lon="1.49081">
        <ele>255</ele>
        <time>2018-11-17T11:05:08Z</time>
      </trkpt>
      <trkpt lat="43.44686" lon="1.49074">
        <ele>255</ele>
        <time>2018-11-17T11:05:08Z</time>
      </trkpt>
      <trkpt lat="43.44686" lon="1.49068">
        <ele>255</ele>
        <time>2018-11-17T11:05:24Z</time>
      </trkpt>
      <trkpt lat="43.44687" lon="1.49062">
        <ele>255</ele>
        <time>2018-11-17T11:05:24Z</time>
      </trkpt>
      <trkpt lat="43.44689" lon="1.49056">
        <ele>255</ele>
        <time>2018-11-17T11:05:24Z</time>
      </trkpt>
      <trkpt lat="43.4469" lon="1.49052">
        <ele>255</ele>
        <time>2018-11-17T11:05:24Z</time>
      </trkpt>
      <trkpt lat="43.44691" lon="1.49046">
        <ele>255</ele>
        <time>2018-11-17T11:05:40Z</time>
      </trkpt>
      <trkpt lat="43.44692" lon="1.49039">
        <ele>258</ele>
        <time>2018-11-17T11:05:40Z</time>
      </trkpt>
      <trkpt lat="43.44693" lon="1.49033">
        <ele>258</ele>
        <time>2018-11-17T11:05:40Z</time>
      </trkpt>
      <trkpt lat="43.44693" lon="1.49027">
        <ele>258</ele>
        <time>2018-11-17T11:05:40Z</time>
      </trkpt>
      <trkpt lat="43.44692" lon="1.49021">
        <ele>258</ele>
        <time>2018-11-17T11:05:56Z</time>
      </trkpt>
      <trkpt lat="43.4469" lon="1.49015">
        <ele>258</ele>
        <time>2018-11-17T11:05:56Z</time>
      </trkpt>
      <trkpt lat="43.44687" lon="1.49011">
        <ele>258</ele>
        <time>2018-11-17T11:05:56Z</time>
      </trkpt>
      <trkpt lat="43.44685" lon="1.49007">
        <ele>258</ele>
        <time>2018-11-17T11:05:56Z</time>
      </trkpt>
      <trkpt lat="43.44682" lon="1.49003">
        <ele>258</ele>
        <time>2018-11-17T11:06:12Z</time>
      </trkpt>
      <trkpt lat="43.44679" lon="1.48998">
        <ele>258</ele>
        <time>2018-11-17T11:06:12Z</time>
      </trkpt>
      <trkpt lat="43.44676" lon="1.48992">
        <ele>258</ele>
        <time>2018-11-17T11:06:12Z</time>
      </trkpt>
      <trkpt lat="43.44673" lon="1.48989">
        <ele>258</ele>
        <time>2018-11-17T11:06:12Z</time>
      </trkpt>
      <trkpt lat="43.4467" lon="1.48987">
        <ele>258</ele>
        <time>2018-11-17T11:06:28Z</time>
      </trkpt>
      <trkpt lat="43.44667" lon="1.48984">
        <ele>258</ele>
        <time>2018-11-17T11:06:28Z</time>
      </trkpt>
      <trkpt lat="43.44665" lon="1.48978">
        <ele>258</ele>
        <time>2018-11-17T11:06:28Z</time>
      </trkpt>
      <trkpt lat="43.44662" lon="1.48972">
        <ele>258</ele>
        <time>2018-11-17T11:06:28Z</time>
      </trkpt>
      <trkpt lat="43.44658" lon="1.48965">
        <ele>258</ele>
        <time>2018-11-17T11:06:44Z</time>
      </trkpt>
      <trkpt lat="43.44655" lon="1.4896">
        <ele>258</ele>
        <time>2018-11-17T11:06:44Z</time>
      </trkpt>
      <trkpt lat="43.44651" lon="1.48956">
        <ele>259</ele>
        <time>2018-11-17T11:06:44Z</time>
      </trkpt>
      <trkpt lat="43.44649" lon="1.48952">
        <ele>259</ele>
        <time>2018-11-17T11:06:44Z</time>
      </trkpt>
      <trkpt lat="43.44647" lon="1.48948">
        <ele>259</ele>
        <time>2018-11-17T11:07:04Z</time>
      </trkpt>
      <trkpt lat="43.44644" lon="1.48943">
        <ele>259</ele>
        <time>2018-11-17T11:07:04Z</time>
      </trkpt>
      <trkpt lat="43.44642" lon="1.48939">
        <ele>259</ele>
        <time>2018-11-17T11:07:04Z</time>
      </trkpt>
      <trkpt lat="43.44642" lon="1.48938">
        <ele>259</ele>
        <time>2018-11-17T11:07:04Z</time>
      </trkpt>
      <trkpt lat="43.44641" lon="1.48934">
        <ele>259</ele>
        <time>2018-11-17T11:07:04Z</time>
      </trkpt>
      <trkpt lat="43.44638" lon="1.48928">
        <ele>259</ele>
        <time>2018-11-17T11:07:20Z</time>
      </trkpt>
      <trkpt lat="43.44634" lon="1.48923">
        <ele>259</ele>
        <time>2018-11-17T11:07:20Z</time>
      </trkpt>
      <trkpt lat="43.44632" lon="1.48917">
        <ele>259</ele>
        <time>2018-11-17T11:07:20Z</time>
      </trkpt>
      <trkpt lat="43.44632" lon="1.48912">
        <ele>259</ele>
        <time>2018-11-17T11:07:20Z</time>
      </trkpt>
      <trkpt lat="43.44632" lon="1.48906">
        <ele>259</ele>
        <time>2018-11-17T11:07:36Z</time>
      </trkpt>
      <trkpt lat="43.44631" lon="1.48899">
        <ele>259</ele>
        <time>2018-11-17T11:07:36Z</time>
      </trkpt>
      <trkpt lat="43.44633" lon="1.48892">
        <ele>259</ele>
        <time>2018-11-17T11:07:36Z</time>
      </trkpt>
      <trkpt lat="43.44635" lon="1.48885">
        <ele>259</ele>
        <time>2018-11-17T11:07:36Z</time>
      </trkpt>
      <trkpt lat="43.44635" lon="1.48879">
        <ele>259</ele>
        <time>2018-11-17T11:07:52Z</time>
      </trkpt>
      <trkpt lat="43.44637" lon="1.48875">
        <ele>256</ele>
        <time>2018-11-17T11:07:52Z</time>
      </trkpt>
      <trkpt lat="43.44639" lon="1.48869">
        <ele>256</ele>
        <time>2018-11-17T11:07:52Z</time>
      </trkpt>
      <trkpt lat="43.44641" lon="1.48862">
        <ele>256</ele>
        <time>2018-11-17T11:07:52Z</time>
      </trkpt>
      <trkpt lat="43.44641" lon="1.48854">
        <ele>256</ele>
        <time>2018-11-17T11:08:08Z</time>
      </trkpt>
      <trkpt lat="43.44642" lon="1.48847">
        <ele>256</ele>
        <time>2018-11-17T11:08:08Z</time>
      </trkpt>
      <trkpt lat="43.44644" lon="1.48841">
        <ele>256</ele>
        <time>2018-11-17T11:08:08Z</time>
      </trkpt>
      <trkpt lat="43.44645" lon="1.48836">
        <ele>256</ele>
        <time>2018-11-17T11:08:08Z</time>
      </trkpt>
      <trkpt lat="43.44644" lon="1.48831">
        <ele>256</ele>
        <time>2018-11-17T11:08:24Z</time>
      </trkpt>
      <trkpt lat="43.44646" lon="1.48825">
        <ele>256</ele>
        <time>2018-11-17T11:08:24Z</time>
      </trkpt>
      <trkpt lat="43.44647" lon="1.4882">
        <ele>256</ele>
        <time>2018-11-17T11:08:24Z</time>
      </trkpt>
      <trkpt lat="43.44649" lon="1.48813">
        <ele>256</ele>
        <time>2018-11-17T11:08:24Z</time>
      </trkpt>
      <trkpt lat="43.44651" lon="1.48807">
        <ele>256</ele>
        <time>2018-11-17T11:08:40Z</time>
      </trkpt>
      <trkpt lat="43.44653" lon="1.48802">
        <ele>256</ele>
        <time>2018-11-17T11:08:40Z</time>
      </trkpt>
      <trkpt lat="43.44655" lon="1.48795">
        <ele>256</ele>
        <time>2018-11-17T11:08:40Z</time>
      </trkpt>
      <trkpt lat="43.44656" lon="1.48789">
        <ele>254</ele>
        <time>2018-11-17T11:08:40Z</time>
      </trkpt>
      <trkpt lat="43.44657" lon="1.48781">
        <ele>254</ele>
        <time>2018-11-17T11:08:56Z</time>
      </trkpt>
      <trkpt lat="43.44658" lon="1.48774">
        <ele>254</ele>
        <time>2018-11-17T11:08:56Z</time>
      </trkpt>
      <trkpt lat="43.4466" lon="1.48767">
        <ele>254</ele>
        <time>2018-11-17T11:08:56Z</time>
      </trkpt>
      <trkpt lat="43.44661" lon="1.4876">
        <ele>254</ele>
        <time>2018-11-17T11:08:56Z</time>
      </trkpt>
      <trkpt lat="43.44661" lon="1.48753">
        <ele>254</ele>
        <time>2018-11-17T11:09:12Z</time>
      </trkpt>
      <trkpt lat="43.44663" lon="1.48746">
        <ele>254</ele>
        <time>2018-11-17T11:09:12Z</time>
      </trkpt>
      <trkpt lat="43.44665" lon="1.48739">
        <ele>254</ele>
        <time>2018-11-17T11:09:12Z</time>
      </trkpt>
      <trkpt lat="43.44669" lon="1.48734">
        <ele>254</ele>
        <time>2018-11-17T11:09:12Z</time>
      </trkpt>
      <trkpt lat="43.44673" lon="1.48728">
        <ele>254</ele>
        <time>2018-11-17T11:09:28Z</time>
      </trkpt>
      <trkpt lat="43.44675" lon="1.48722">
        <ele>254</ele>
        <time>2018-11-17T11:09:28Z</time>
      </trkpt>
      <trkpt lat="43.44679" lon="1.48717">
        <ele>254</ele>
        <time>2018-11-17T11:09:28Z</time>
      </trkpt>
      <trkpt lat="43.44681" lon="1.48711">
        <ele>254</ele>
        <time>2018-11-17T11:09:28Z</time>
      </trkpt>
      <trkpt lat="43.44683" lon="1.48705">
        <ele>252</ele>
        <time>2018-11-17T11:09:44Z</time>
      </trkpt>
      <trkpt lat="43.44685" lon="1.487">
        <ele>252</ele>
        <time>2018-11-17T11:09:44Z</time>
      </trkpt>
      <trkpt lat="43.44686" lon="1.48694">
        <ele>252</ele>
        <time>2018-11-17T11:09:44Z</time>
      </trkpt>
      <trkpt lat="43.44688" lon="1.48689">
        <ele>252</ele>
        <time>2018-11-17T11:09:44Z</time>
      </trkpt>
      <trkpt lat="43.44689" lon="1.48683">
        <ele>252</ele>
        <time>2018-11-17T11:10:00Z</time>
      </trkpt>
      <trkpt lat="43.44689" lon="1.48677">
        <ele>252</ele>
        <time>2018-11-17T11:10:00Z</time>
      </trkpt>
      <trkpt lat="43.44689" lon="1.48671">
        <ele>252</ele>
        <time>2018-11-17T11:10:00Z</time>
      </trkpt>
      <trkpt lat="43.4469" lon="1.48665">
        <ele>252</ele>
        <time>2018-11-17T11:10:00Z</time>
      </trkpt>
      <trkpt lat="43.4469" lon="1.48659">
        <ele>252</ele>
        <time>2018-11-17T11:10:16Z</time>
      </trkpt>
      <trkpt lat="43.4469" lon="1.48654">
        <ele>252</ele>
        <time>2018-11-17T11:10:16Z</time>
      </trkpt>
      <trkpt lat="43.44691" lon="1.48648">
        <ele>252</ele>
        <time>2018-11-17T11:10:16Z</time>
      </trkpt>
      <trkpt lat="43.44691" lon="1.48641">
        <ele>252</ele>
        <time>2018-11-17T11:10:16Z</time>
      </trkpt>
      <trkpt lat="43.44693" lon="1.48635">
        <ele>252</ele>
        <time>2018-11-17T11:10:32Z</time>
      </trkpt>
      <trkpt lat="43.44696" lon="1.48628">
        <ele>252</ele>
        <time>2018-11-17T11:10:32Z</time>
      </trkpt>
      <trkpt lat="43.44697" lon="1.48621">
        <ele>249</ele>
        <time>2018-11-17T11:10:32Z</time>
      </trkpt>
      <trkpt lat="43.44699" lon="1.48615">
        <ele>249</ele>
        <time>2018-11-17T11:10:32Z</time>
      </trkpt>
      <trkpt lat="43.44701" lon="1.48607">
        <ele>249</ele>
        <time>2018-11-17T11:10:48Z</time>
      </trkpt>
      <trkpt lat="43.44703" lon="1.486">
        <ele>249</ele>
        <time>2018-11-17T11:10:48Z</time>
      </trkpt>
      <trkpt lat="43.44705" lon="1.48593">
        <ele>249</ele>
        <time>2018-11-17T11:10:48Z</time>
      </trkpt>
      <trkpt lat="43.44709" lon="1.48586">
        <ele>248</ele>
        <time>2018-11-17T11:10:48Z</time>
      </trkpt>
      <trkpt lat="43.44709" lon="1.48579">
        <ele>248</ele>
        <time>2018-11-17T11:11:04Z</time>
      </trkpt>
      <trkpt lat="43.4471" lon="1.48572">
        <ele>248</ele>
        <time>2018-11-17T11:11:04Z</time>
      </trkpt>
      <trkpt lat="43.44711" lon="1.48566">
        <ele>248</ele>
        <time>2018-11-17T11:11:04Z</time>
      </trkpt>
      <trkpt lat="43.44712" lon="1.4856">
        <ele>248</ele>
        <time>2018-11-17T11:11:04Z</time>
      </trkpt>
      <trkpt lat="43.4471" lon="1.48554">
        <ele>248</ele>
        <time>2018-11-17T11:11:20Z</time>
      </trkpt>
      <trkpt lat="43.44711" lon="1.48548">
        <ele>248</ele>
        <time>2018-11-17T11:11:20Z</time>
      </trkpt>
      <trkpt lat="43.44714" lon="1.48542">
        <ele>248</ele>
        <time>2018-11-17T11:11:20Z</time>
      </trkpt>
      <trkpt lat="43.44715" lon="1.48536">
        <ele>246</ele>
        <time>2018-11-17T11:11:20Z</time>
      </trkpt>
      <trkpt lat="43.44717" lon="1.4853">
        <ele>246</ele>
        <time>2018-11-17T11:11:36Z</time>
      </trkpt>
      <trkpt lat="43.44718" lon="1.48524">
        <ele>246</ele>
        <time>2018-11-17T11:11:36Z</time>
      </trkpt>
      <trkpt lat="43.44719" lon="1.48518">
        <ele>246</ele>
        <time>2018-11-17T11:11:36Z</time>
      </trkpt>
      <trkpt lat="43.4472" lon="1.48512">
        <ele>246</ele>
        <time>2018-11-17T11:11:36Z</time>
      </trkpt>
      <trkpt lat="43.44722" lon="1.48505">
        <ele>246</ele>
        <time>2018-11-17T11:11:52Z</time>
      </trkpt>
      <trkpt lat="43.44724" lon="1.48499">
        <ele>246</ele>
        <time>2018-11-17T11:11:52Z</time>
      </trkpt>
      <trkpt lat="43.44724" lon="1.48493">
        <ele>246</ele>
        <time>2018-11-17T11:11:52Z</time>
      </trkpt>
      <trkpt lat="43.44726" lon="1.48486">
        <ele>246</ele>
        <time>2018-11-17T11:11:52Z</time>
      </trkpt>
      <trkpt lat="43.44727" lon="1.4848">
        <ele>246</ele>
        <time>2018-11-17T11:12:08Z</time>
      </trkpt>
      <trkpt lat="43.44728" lon="1.48474">
        <ele>246</ele>
        <time>2018-11-17T11:12:08Z</time>
      </trkpt>
      <trkpt lat="43.4473" lon="1.48468">
        <ele>246</ele>
        <time>2018-11-17T11:12:08Z</time>
      </trkpt>
      <trkpt lat="43.4473" lon="1.48461">
        <ele>246</ele>
        <time>2018-11-17T11:12:08Z</time>
      </trkpt>
      <trkpt lat="43.44732" lon="1.48455">
        <ele>244</ele>
        <time>2018-11-17T11:12:24Z</time>
      </trkpt>
      <trkpt lat="43.44734" lon="1.48449">
        <ele>244</ele>
        <time>2018-11-17T11:12:24Z</time>
      </trkpt>
      <trkpt lat="43.44735" lon="1.48442">
        <ele>244</ele>
        <time>2018-11-17T11:12:24Z</time>
      </trkpt>
      <trkpt lat="43.44735" lon="1.48435">
        <ele>244</ele>
        <time>2018-11-17T11:12:24Z</time>
      </trkpt>
      <trkpt lat="43.44737" lon="1.48429">
        <ele>244</ele>
        <time>2018-11-17T11:12:40Z</time>
      </trkpt>
      <trkpt lat="43.44739" lon="1.48422">
        <ele>244</ele>
        <time>2018-11-17T11:12:40Z</time>
      </trkpt>
      <trkpt lat="43.44741" lon="1.48416">
        <ele>244</ele>
        <time>2018-11-17T11:12:40Z</time>
      </trkpt>
      <trkpt lat="43.44741" lon="1.4841">
        <ele>244</ele>
        <time>2018-11-17T11:12:40Z</time>
      </trkpt>
      <trkpt lat="43.44743" lon="1.48405">
        <ele>244</ele>
        <time>2018-11-17T11:12:56Z</time>
      </trkpt>
      <trkpt lat="43.44744" lon="1.484">
        <ele>244</ele>
        <time>2018-11-17T11:12:56Z</time>
      </trkpt>
      <trkpt lat="43.44747" lon="1.48395">
        <ele>244</ele>
        <time>2018-11-17T11:12:56Z</time>
      </trkpt>
      <trkpt lat="43.44751" lon="1.48391">
        <ele>244</ele>
        <time>2018-11-17T11:12:56Z</time>
      </trkpt>
      <trkpt lat="43.44756" lon="1.48386">
        <ele>244</ele>
        <time>2018-11-17T11:13:20Z</time>
      </trkpt>
      <trkpt lat="43.44755" lon="1.48384">
        <ele>244</ele>
        <time>2018-11-17T11:13:20Z</time>
      </trkpt>
      <trkpt lat="43.44756" lon="1.48384">
        <ele>244</ele>
        <time>2018-11-17T11:13:20Z</time>
      </trkpt>
      <trkpt lat="43.44762" lon="1.4838">
        <ele>244</ele>
        <time>2018-11-17T11:13:20Z</time>
      </trkpt>
      <trkpt lat="43.44768" lon="1.48377">
        <ele>244</ele>
        <time>2018-11-17T11:13:20Z</time>
      </trkpt>
      <trkpt lat="43.44773" lon="1.48377">
        <ele>244</ele>
        <time>2018-11-17T11:13:36Z</time>
      </trkpt>
      <trkpt lat="43.44781" lon="1.48377">
        <ele>244</ele>
        <time>2018-11-17T11:13:36Z</time>
      </trkpt>
      <trkpt lat="43.44787" lon="1.48376">
        <ele>244</ele>
        <time>2018-11-17T11:13:36Z</time>
      </trkpt>
      <trkpt lat="43.44791" lon="1.48374">
        <ele>243</ele>
        <time>2018-11-17T11:13:36Z</time>
      </trkpt>
      <trkpt lat="43.44795" lon="1.48374">
        <ele>239</ele>
        <time>2018-11-17T11:13:56Z</time>
      </trkpt>
      <trkpt lat="43.44799" lon="1.48372">
        <ele>239</ele>
        <time>2018-11-17T11:13:56Z</time>
      </trkpt>
      <trkpt lat="43.44801" lon="1.48371">
        <ele>239</ele>
        <time>2018-11-17T11:13:56Z</time>
      </trkpt>
      <trkpt lat="43.44801" lon="1.48368">
        <ele>239</ele>
        <time>2018-11-17T11:13:56Z</time>
      </trkpt>
      <trkpt lat="43.44806" lon="1.48366">
        <ele>239</ele>
        <time>2018-11-17T11:13:56Z</time>
      </trkpt>
      <trkpt lat="43.44813" lon="1.48365">
        <ele>239</ele>
        <time>2018-11-17T11:14:20Z</time>
      </trkpt>
      <trkpt lat="43.44818" lon="1.48363">
        <ele>239</ele>
        <time>2018-11-17T11:14:20Z</time>
      </trkpt>
      <trkpt lat="43.4482" lon="1.48364">
        <ele>239</ele>
        <time>2018-11-17T11:14:20Z</time>
      </trkpt>
      <trkpt lat="43.4482" lon="1.48364">
        <ele>239</ele>
        <time>2018-11-17T11:14:20Z</time>
      </trkpt>
      <trkpt lat="43.44821" lon="1.48364">
        <ele>239</ele>
        <time>2018-11-17T11:14:20Z</time>
      </trkpt>
      <trkpt lat="43.44822" lon="1.48364">
        <ele>239</ele>
        <time>2018-11-17T11:14:36Z</time>
      </trkpt>
      <trkpt lat="43.44827" lon="1.48365">
        <ele>239</ele>
        <time>2018-11-17T11:14:36Z</time>
      </trkpt>
      <trkpt lat="43.44835" lon="1.48369">
        <ele>239</ele>
        <time>2018-11-17T11:14:36Z</time>
      </trkpt>
      <trkpt lat="43.44842" lon="1.48374">
        <ele>239</ele>
        <time>2018-11-17T11:14:36Z</time>
      </trkpt>
      <trkpt lat="43.44848" lon="1.4838">
        <ele>241</ele>
        <time>2018-11-17T11:14:56Z</time>
      </trkpt>
      <trkpt lat="43.4485" lon="1.48382">
        <ele>241</ele>
        <time>2018-11-17T11:14:56Z</time>
      </trkpt>
      <trkpt lat="43.44854" lon="1.48384">
        <ele>241</ele>
        <time>2018-11-17T11:14:56Z</time>
      </trkpt>
      <trkpt lat="43.44855" lon="1.48387">
        <ele>241</ele>
        <time>2018-11-17T11:14:56Z</time>
      </trkpt>
      <trkpt lat="43.44857" lon="1.48394">
        <ele>241</ele>
        <time>2018-11-17T11:14:56Z</time>
      </trkpt>
      <trkpt lat="43.44858" lon="1.48398">
        <ele>241</ele>
        <time>2018-11-17T11:15:20Z</time>
      </trkpt>
      <trkpt lat="43.44858" lon="1.48399">
        <ele>241</ele>
        <time>2018-11-17T11:15:20Z</time>
      </trkpt>
      <trkpt lat="43.44858" lon="1.484">
        <ele>241</ele>
        <time>2018-11-17T11:15:20Z</time>
      </trkpt>
      <trkpt lat="43.44859" lon="1.48403">
        <ele>241</ele>
        <time>2018-11-17T11:15:20Z</time>
      </trkpt>
      <trkpt lat="43.44861" lon="1.48409">
        <ele>241</ele>
        <time>2018-11-17T11:15:20Z</time>
      </trkpt>
      <trkpt lat="43.44864" lon="1.48418">
        <ele>241</ele>
        <time>2018-11-17T11:15:36Z</time>
      </trkpt>
      <trkpt lat="43.44865" lon="1.48432">
        <ele>241</ele>
        <time>2018-11-17T11:15:36Z</time>
      </trkpt>
      <trkpt lat="43.44865" lon="1.48439">
        <ele>241</ele>
        <time>2018-11-17T11:15:36Z</time>
      </trkpt>
      <trkpt lat="43.44864" lon="1.48446">
        <ele>241</ele>
        <time>2018-11-17T11:15:36Z</time>
      </trkpt>
      <trkpt lat="43.44864" lon="1.48452">
        <ele>241</ele>
        <time>2018-11-17T11:15:52Z</time>
      </trkpt>
      <trkpt lat="43.44865" lon="1.48458">
        <ele>241</ele>
        <time>2018-11-17T11:15:52Z</time>
      </trkpt>
      <trkpt lat="43.44865" lon="1.48462">
        <ele>241</ele>
        <time>2018-11-17T11:15:52Z</time>
      </trkpt>
      <trkpt lat="43.44865" lon="1.48465">
        <ele>241</ele>
        <time>2018-11-17T11:15:52Z</time>
      </trkpt>
      <trkpt lat="43.44865" lon="1.48466">
        <ele>241</ele>
        <time>2018-11-17T11:16:08Z</time>
      </trkpt>
      <trkpt lat="43.44866" lon="1.48469">
        <ele>241</ele>
        <time>2018-11-17T11:16:08Z</time>
      </trkpt>
      <trkpt lat="43.4487" lon="1.48475">
        <ele>241</ele>
        <time>2018-11-17T11:16:08Z</time>
      </trkpt>
      <trkpt lat="43.44872" lon="1.48478">
        <ele>241</ele>
        <time>2018-11-17T11:16:08Z</time>
      </trkpt>
      <trkpt lat="43.44873" lon="1.4848">
        <ele>241</ele>
        <time>2018-11-17T11:16:32Z</time>
      </trkpt>
      <trkpt lat="43.44873" lon="1.4848">
        <ele>241</ele>
        <time>2018-11-17T11:16:32Z</time>
      </trkpt>
      <trkpt lat="43.44875" lon="1.48481">
        <ele>241</ele>
        <time>2018-11-17T11:16:32Z</time>
      </trkpt>
      <trkpt lat="43.4488" lon="1.4848">
        <ele>241</ele>
        <time>2018-11-17T11:16:32Z</time>
      </trkpt>
      <trkpt lat="43.44882" lon="1.48481">
        <ele>241</ele>
        <time>2018-11-17T11:16:32Z</time>
      </trkpt>
      <trkpt lat="43.44885" lon="1.48481">
        <ele>241</ele>
        <time>2018-11-17T11:16:52Z</time>
      </trkpt>
      <trkpt lat="43.44889" lon="1.48482">
        <ele>241</ele>
        <time>2018-11-17T11:16:52Z</time>
      </trkpt>
      <trkpt lat="43.4489" lon="1.48483">
        <ele>241</ele>
        <time>2018-11-17T11:16:52Z</time>
      </trkpt>
      <trkpt lat="43.44893" lon="1.48484">
        <ele>241</ele>
        <time>2018-11-17T11:16:52Z</time>
      </trkpt>
      <trkpt lat="43.44896" lon="1.48485">
        <ele>241</ele>
        <time>2018-11-17T11:16:52Z</time>
      </trkpt>
      <trkpt lat="43.44902" lon="1.48488">
        <ele>241</ele>
        <time>2018-11-17T11:17:08Z</time>
      </trkpt>
      <trkpt lat="43.44907" lon="1.4849">
        <ele>241</ele>
        <time>2018-11-17T11:17:08Z</time>
      </trkpt>
      <trkpt lat="43.44912" lon="1.48489">
        <ele>241</ele>
        <time>2018-11-17T11:17:08Z</time>
      </trkpt>
      <trkpt lat="43.44915" lon="1.4849">
        <ele>241</ele>
        <time>2018-11-17T11:17:08Z</time>
      </trkpt>
      <trkpt lat="43.44921" lon="1.48493">
        <ele>241</ele>
        <time>2018-11-17T11:17:40Z</time>
      </trkpt>
      <trkpt lat="43.44921" lon="1.48496">
        <ele>241</ele>
        <time>2018-11-17T11:17:40Z</time>
      </trkpt>
      <trkpt lat="43.44922" lon="1.48497">
        <ele>241</ele>
        <time>2018-11-17T11:17:40Z</time>
      </trkpt>
      <trkpt lat="43.44922" lon="1.48498">
        <ele>241</ele>
        <time>2018-11-17T11:17:40Z</time>
      </trkpt>
      <trkpt lat="43.44924" lon="1.48499">
        <ele>241</ele>
        <time>2018-11-17T11:17:40Z</time>
      </trkpt>
      <trkpt lat="43.44928" lon="1.48502">
        <ele>241</ele>
        <time>2018-11-17T11:17:56Z</time>
      </trkpt>
      <trkpt lat="43.44933" lon="1.48502">
        <ele>241</ele>
        <time>2018-11-17T11:17:56Z</time>
      </trkpt>
      <trkpt lat="43.44936" lon="1.48499">
        <ele>241</ele>
        <time>2018-11-17T11:17:56Z</time>
      </trkpt>
      <trkpt lat="43.44939" lon="1.48495">
        <ele>241</ele>
        <time>2018-11-17T11:17:56Z</time>
      </trkpt>
      <trkpt lat="43.44941" lon="1.4849">
        <ele>241</ele>
        <time>2018-11-17T11:18:24Z</time>
      </trkpt>
      <trkpt lat="43.44942" lon="1.48488">
        <ele>241</ele>
        <time>2018-11-17T11:18:24Z</time>
      </trkpt>
      <trkpt lat="43.44942" lon="1.48488">
        <ele>241</ele>
        <time>2018-11-17T11:18:24Z</time>
      </trkpt>
      <trkpt lat="43.44942" lon="1.48487">
        <ele>241</ele>
        <time>2018-11-17T11:18:24Z</time>
      </trkpt>
      <trkpt lat="43.44944" lon="1.48478">
        <ele>241</ele>
        <time>2018-11-17T11:18:24Z</time>
      </trkpt>
      <trkpt lat="43.44945" lon="1.48469">
        <ele>241</ele>
        <time>2018-11-17T11:18:40Z</time>
      </trkpt>
      <trkpt lat="43.44945" lon="1.48461">
        <ele>241</ele>
        <time>2018-11-17T11:18:40Z</time>
      </trkpt>
      <trkpt lat="43.44946" lon="1.48453">
        <ele>240</ele>
        <time>2018-11-17T11:18:40Z</time>
      </trkpt>
      <trkpt lat="43.44947" lon="1.48445">
        <ele>240</ele>
        <time>2018-11-17T11:18:40Z</time>
      </trkpt>
      <trkpt lat="43.44948" lon="1.48438">
        <ele>240</ele>
        <time>2018-11-17T11:18:56Z</time>
      </trkpt>
      <trkpt lat="43.44949" lon="1.48431">
        <ele>240</ele>
        <time>2018-11-17T11:18:56Z</time>
      </trkpt>
      <trkpt lat="43.4495" lon="1.48425">
        <ele>240</ele>
        <time>2018-11-17T11:18:56Z</time>
      </trkpt>
      <trkpt lat="43.44951" lon="1.48421">
        <ele>240</ele>
        <time>2018-11-17T11:18:56Z</time>
      </trkpt>
      <trkpt lat="43.44951" lon="1.48418">
        <ele>240</ele>
        <time>2018-11-17T11:19:12Z</time>
      </trkpt>
      <trkpt lat="43.44953" lon="1.48413">
        <ele>240</ele>
        <time>2018-11-17T11:19:12Z</time>
      </trkpt>
      <trkpt lat="43.44953" lon="1.48407">
        <ele>240</ele>
        <time>2018-11-17T11:19:12Z</time>
      </trkpt>
      <trkpt lat="43.44953" lon="1.484">
        <ele>240</ele>
        <time>2018-11-17T11:19:12Z</time>
      </trkpt>
      <trkpt lat="43.44953" lon="1.48393">
        <ele>240</ele>
        <time>2018-11-17T11:19:28Z</time>
      </trkpt>
      <trkpt lat="43.44955" lon="1.48387">
        <ele>240</ele>
        <time>2018-11-17T11:19:28Z</time>
      </trkpt>
      <trkpt lat="43.44956" lon="1.48384">
        <ele>240</ele>
        <time>2018-11-17T11:19:28Z</time>
      </trkpt>
      <trkpt lat="43.44955" lon="1.48376">
        <ele>240</ele>
        <time>2018-11-17T11:19:28Z</time>
      </trkpt>
      <trkpt lat="43.44957" lon="1.48372">
        <ele>238</ele>
        <time>2018-11-17T11:19:44Z</time>
      </trkpt>
      <trkpt lat="43.4496" lon="1.48368">
        <ele>247</ele>
        <time>2018-11-17T11:19:44Z</time>
      </trkpt>
      <trkpt lat="43.44961" lon="1.48365">
        <ele>247</ele>
        <time>2018-11-17T11:19:44Z</time>
      </trkpt>
      <trkpt lat="43.44961" lon="1.48358">
        <ele>247</ele>
        <time>2018-11-17T11:19:44Z</time>
      </trkpt>
      <trkpt lat="43.44962" lon="1.48352">
        <ele>247</ele>
        <time>2018-11-17T11:20:00Z</time>
      </trkpt>
      <trkpt lat="43.44963" lon="1.48346">
        <ele>247</ele>
        <time>2018-11-17T11:20:00Z</time>
      </trkpt>
      <trkpt lat="43.44964" lon="1.48341">
        <ele>247</ele>
        <time>2018-11-17T11:20:00Z</time>
      </trkpt>
      <trkpt lat="43.44965" lon="1.48332">
        <ele>247</ele>
        <time>2018-11-17T11:20:00Z</time>
      </trkpt>
      <trkpt lat="43.44966" lon="1.48324">
        <ele>247</ele>
        <time>2018-11-17T11:20:16Z</time>
      </trkpt>
      <trkpt lat="43.44967" lon="1.48319">
        <ele>247</ele>
        <time>2018-11-17T11:20:16Z</time>
      </trkpt>
      <trkpt lat="43.44967" lon="1.48316">
        <ele>247</ele>
        <time>2018-11-17T11:20:16Z</time>
      </trkpt>
      <trkpt lat="43.44968" lon="1.48311">
        <ele>247</ele>
        <time>2018-11-17T11:20:16Z</time>
      </trkpt>
      <trkpt lat="43.44969" lon="1.48307">
        <ele>247</ele>
        <time>2018-11-17T11:20:32Z</time>
      </trkpt>
      <trkpt lat="43.44969" lon="1.48301">
        <ele>247</ele>
        <time>2018-11-17T11:20:32Z</time>
      </trkpt>
      <trkpt lat="43.4497" lon="1.48296">
        <ele>247</ele>
        <time>2018-11-17T11:20:32Z</time>
      </trkpt>
      <trkpt lat="43.44972" lon="1.48291">
        <ele>247</ele>
        <time>2018-11-17T11:20:32Z</time>
      </trkpt>
      <trkpt lat="43.44973" lon="1.48285">
        <ele>247</ele>
        <time>2018-11-17T11:20:48Z</time>
      </trkpt>
      <trkpt lat="43.44972" lon="1.48277">
        <ele>247</ele>
        <time>2018-11-17T11:20:48Z</time>
      </trkpt>
      <trkpt lat="43.44973" lon="1.48272">
        <ele>247</ele>
        <time>2018-11-17T11:20:48Z</time>
      </trkpt>
      <trkpt lat="43.44974" lon="1.48267">
        <ele>247</ele>
        <time>2018-11-17T11:20:48Z</time>
      </trkpt>
      <trkpt lat="43.44976" lon="1.48261">
        <ele>247</ele>
        <time>2018-11-17T11:21:04Z</time>
      </trkpt>
      <trkpt lat="43.44977" lon="1.48255">
        <ele>247</ele>
        <time>2018-11-17T11:21:04Z</time>
      </trkpt>
      <trkpt lat="43.44977" lon="1.48249">
        <ele>247</ele>
        <time>2018-11-17T11:21:04Z</time>
      </trkpt>
      <trkpt lat="43.44976" lon="1.48245">
        <ele>247</ele>
        <time>2018-11-17T11:21:04Z</time>
      </trkpt>
      <trkpt lat="43.44979" lon="1.48244">
        <ele>247</ele>
        <time>2018-11-17T11:21:28Z</time>
      </trkpt>
      <trkpt lat="43.44981" lon="1.4824">
        <ele>247</ele>
        <time>2018-11-17T11:21:28Z</time>
      </trkpt>
      <trkpt lat="43.44981" lon="1.48237">
        <ele>247</ele>
        <time>2018-11-17T11:21:28Z</time>
      </trkpt>
      <trkpt lat="43.4498" lon="1.48235">
        <ele>247</ele>
        <time>2018-11-17T11:21:28Z</time>
      </trkpt>
      <trkpt lat="43.44981" lon="1.48229">
        <ele>247</ele>
        <time>2018-11-17T11:21:28Z</time>
      </trkpt>
      <trkpt lat="43.44987" lon="1.48227">
        <ele>247</ele>
        <time>2018-11-17T11:22:12Z</time>
      </trkpt>
      <trkpt lat="43.44987" lon="1.48227">
        <ele>247</ele>
        <time>2018-11-17T11:22:12Z</time>
      </trkpt>
      <trkpt lat="43.44989" lon="1.4823">
        <ele>247</ele>
        <time>2018-11-17T11:22:12Z</time>
      </trkpt>
      <trkpt lat="43.44993" lon="1.48233">
        <ele>247</ele>
        <time>2018-11-17T11:22:12Z</time>
      </trkpt>
      <trkpt lat="43.44996" lon="1.48237">
        <ele>247</ele>
        <time>2018-11-17T11:22:12Z</time>
      </trkpt>
      <trkpt lat="43.45" lon="1.48241">
        <ele>247</ele>
        <time>2018-11-17T11:22:28Z</time>
      </trkpt>
      <trkpt lat="43.45003" lon="1.48245">
        <ele>247</ele>
        <time>2018-11-17T11:22:28Z</time>
      </trkpt>
      <trkpt lat="43.45006" lon="1.4825">
        <ele>247</ele>
        <time>2018-11-17T11:22:28Z</time>
      </trkpt>
      <trkpt lat="43.4501" lon="1.48253">
        <ele>247</ele>
        <time>2018-11-17T11:22:28Z</time>
      </trkpt>
      <trkpt lat="43.45013" lon="1.48255">
        <ele>247</ele>
        <time>2018-11-17T11:22:44Z</time>
      </trkpt>
      <trkpt lat="43.45016" lon="1.48258">
        <ele>247</ele>
        <time>2018-11-17T11:22:44Z</time>
      </trkpt>
      <trkpt lat="43.45019" lon="1.48262">
        <ele>247</ele>
        <time>2018-11-17T11:22:44Z</time>
      </trkpt>
      <trkpt lat="43.45023" lon="1.48265">
        <ele>247</ele>
        <time>2018-11-17T11:22:44Z</time>
      </trkpt>
      <trkpt lat="43.45026" lon="1.48266">
        <ele>247</ele>
        <time>2018-11-17T11:23:00Z</time>
      </trkpt>
      <trkpt lat="43.4503" lon="1.4827">
        <ele>247</ele>
        <time>2018-11-17T11:23:00Z</time>
      </trkpt>
      <trkpt lat="43.45033" lon="1.48274">
        <ele>247</ele>
        <time>2018-11-17T11:23:00Z</time>
      </trkpt>
      <trkpt lat="43.45037" lon="1.48279">
        <ele>247</ele>
        <time>2018-11-17T11:23:00Z</time>
      </trkpt>
      <trkpt lat="43.4504" lon="1.48282">
        <ele>247</ele>
        <time>2018-11-17T11:23:16Z</time>
      </trkpt>
      <trkpt lat="43.45043" lon="1.48284">
        <ele>253</ele>
        <time>2018-11-17T11:23:16Z</time>
      </trkpt>
      <trkpt lat="43.45047" lon="1.48286">
        <ele>253</ele>
        <time>2018-11-17T11:23:16Z</time>
      </trkpt>
      <trkpt lat="43.4505" lon="1.4829">
        <ele>253</ele>
        <time>2018-11-17T11:23:16Z</time>
      </trkpt>
      <trkpt lat="43.45055" lon="1.48293">
        <ele>253</ele>
        <time>2018-11-17T11:23:32Z</time>
      </trkpt>
      <trkpt lat="43.45059" lon="1.48295">
        <ele>253</ele>
        <time>2018-11-17T11:23:32Z</time>
      </trkpt>
      <trkpt lat="43.45062" lon="1.48297">
        <ele>253</ele>
        <time>2018-11-17T11:23:32Z</time>
      </trkpt>
      <trkpt lat="43.45065" lon="1.48299">
        <ele>253</ele>
        <time>2018-11-17T11:23:32Z</time>
      </trkpt>
      <trkpt lat="43.45069" lon="1.48304">
        <ele>253</ele>
        <time>2018-11-17T11:23:48Z</time>
      </trkpt>
      <trkpt lat="43.45072" lon="1.48308">
        <ele>253</ele>
        <time>2018-11-17T11:23:48Z</time>
      </trkpt>
      <trkpt lat="43.45077" lon="1.48312">
        <ele>253</ele>
        <time>2018-11-17T11:23:48Z</time>
      </trkpt>
      <trkpt lat="43.45081" lon="1.48317">
        <ele>253</ele>
        <time>2018-11-17T11:23:48Z</time>
      </trkpt>
      <trkpt lat="43.45085" lon="1.48321">
        <ele>253</ele>
        <time>2018-11-17T11:24:04Z</time>
      </trkpt>
      <trkpt lat="43.45087" lon="1.48325">
        <ele>253</ele>
        <time>2018-11-17T11:24:04Z</time>
      </trkpt>
      <trkpt lat="43.4509" lon="1.48331">
        <ele>253</ele>
        <time>2018-11-17T11:24:04Z</time>
      </trkpt>
      <trkpt lat="43.45094" lon="1.48334">
        <ele>253</ele>
        <time>2018-11-17T11:24:04Z</time>
      </trkpt>
      <trkpt lat="43.45098" lon="1.48337">
        <ele>253</ele>
        <time>2018-11-17T11:24:20Z</time>
      </trkpt>
      <trkpt lat="43.45101" lon="1.4834">
        <ele>253</ele>
        <time>2018-11-17T11:24:20Z</time>
      </trkpt>
      <trkpt lat="43.45105" lon="1.48347">
        <ele>253</ele>
        <time>2018-11-17T11:24:20Z</time>
      </trkpt>
      <trkpt lat="43.45108" lon="1.48354">
        <ele>253</ele>
        <time>2018-11-17T11:24:20Z</time>
      </trkpt>
      <trkpt lat="43.45112" lon="1.48357">
        <ele>253</ele>
        <time>2018-11-17T11:24:36Z</time>
      </trkpt>
      <trkpt lat="43.45116" lon="1.4836">
        <ele>253</ele>
        <time>2018-11-17T11:24:36Z</time>
      </trkpt>
      <trkpt lat="43.45119" lon="1.48364">
        <ele>253</ele>
        <time>2018-11-17T11:24:36Z</time>
      </trkpt>
      <trkpt lat="43.45123" lon="1.48368">
        <ele>253</ele>
        <time>2018-11-17T11:24:36Z</time>
      </trkpt>
      <trkpt lat="43.45127" lon="1.48371">
        <ele>258</ele>
        <time>2018-11-17T11:24:52Z</time>
      </trkpt>
      <trkpt lat="43.4513" lon="1.48375">
        <ele>259</ele>
        <time>2018-11-17T11:24:52Z</time>
      </trkpt>
      <trkpt lat="43.45134" lon="1.48379">
        <ele>259</ele>
        <time>2018-11-17T11:24:52Z</time>
      </trkpt>
      <trkpt lat="43.45137" lon="1.48383">
        <ele>259</ele>
        <time>2018-11-17T11:24:52Z</time>
      </trkpt>
      <trkpt lat="43.45138" lon="1.48384">
        <ele>259</ele>
        <time>2018-11-17T11:25:12Z</time>
      </trkpt>
      <trkpt lat="43.45138" lon="1.48384">
        <ele>259</ele>
        <time>2018-11-17T11:25:12Z</time>
      </trkpt>
      <trkpt lat="43.45141" lon="1.48385">
        <ele>259</ele>
        <time>2018-11-17T11:25:12Z</time>
      </trkpt>
      <trkpt lat="43.45145" lon="1.48388">
        <ele>259</ele>
        <time>2018-11-17T11:25:12Z</time>
      </trkpt>
      <trkpt lat="43.4515" lon="1.48393">
        <ele>259</ele>
        <time>2018-11-17T11:25:12Z</time>
      </trkpt>
      <trkpt lat="43.45155" lon="1.48396">
        <ele>259</ele>
        <time>2018-11-17T11:25:28Z</time>
      </trkpt>
      <trkpt lat="43.45157" lon="1.48397">
        <ele>259</ele>
        <time>2018-11-17T11:25:28Z</time>
      </trkpt>
      <trkpt lat="43.4516" lon="1.484">
        <ele>259</ele>
        <time>2018-11-17T11:25:28Z</time>
      </trkpt>
      <trkpt lat="43.45164" lon="1.48402">
        <ele>259</ele>
        <time>2018-11-17T11:25:28Z</time>
      </trkpt>
      <trkpt lat="43.45168" lon="1.48405">
        <ele>259</ele>
        <time>2018-11-17T11:25:44Z</time>
      </trkpt>
      <trkpt lat="43.45173" lon="1.48408">
        <ele>259</ele>
        <time>2018-11-17T11:25:44Z</time>
      </trkpt>
      <trkpt lat="43.45177" lon="1.4841">
        <ele>259</ele>
        <time>2018-11-17T11:25:44Z</time>
      </trkpt>
      <trkpt lat="43.45181" lon="1.48412">
        <ele>259</ele>
        <time>2018-11-17T11:25:44Z</time>
      </trkpt>
      <trkpt lat="43.45186" lon="1.48413">
        <ele>259</ele>
        <time>2018-11-17T11:26:00Z</time>
      </trkpt>
      <trkpt lat="43.45191" lon="1.48415">
        <ele>259</ele>
        <time>2018-11-17T11:26:00Z</time>
      </trkpt>
      <trkpt lat="43.45194" lon="1.48418">
        <ele>259</ele>
        <time>2018-11-17T11:26:00Z</time>
      </trkpt>
      <trkpt lat="43.45199" lon="1.4842">
        <ele>259</ele>
        <time>2018-11-17T11:26:00Z</time>
      </trkpt>
      <trkpt lat="43.45203" lon="1.48421">
        <ele>259</ele>
        <time>2018-11-17T11:26:16Z</time>
      </trkpt>
      <trkpt lat="43.45207" lon="1.48423">
        <ele>259</ele>
        <time>2018-11-17T11:26:16Z</time>
      </trkpt>
      <trkpt lat="43.45211" lon="1.48426">
        <ele>262</ele>
        <time>2018-11-17T11:26:16Z</time>
      </trkpt>
      <trkpt lat="43.45215" lon="1.48429">
        <ele>262</ele>
        <time>2018-11-17T11:26:16Z</time>
      </trkpt>
      <trkpt lat="43.4522" lon="1.4843">
        <ele>262</ele>
        <time>2018-11-17T11:26:32Z</time>
      </trkpt>
      <trkpt lat="43.45224" lon="1.48433">
        <ele>262</ele>
        <time>2018-11-17T11:26:32Z</time>
      </trkpt>
      <trkpt lat="43.45228" lon="1.48437">
        <ele>262</ele>
        <time>2018-11-17T11:26:32Z</time>
      </trkpt>
      <trkpt lat="43.45232" lon="1.48438">
        <ele>262</ele>
        <time>2018-11-17T11:26:32Z</time>
      </trkpt>
      <trkpt lat="43.45237" lon="1.48441">
        <ele>262</ele>
        <time>2018-11-17T11:26:48Z</time>
      </trkpt>
      <trkpt lat="43.4524" lon="1.48443">
        <ele>262</ele>
        <time>2018-11-17T11:26:48Z</time>
      </trkpt>
      <trkpt lat="43.45243" lon="1.48445">
        <ele>262</ele>
        <time>2018-11-17T11:26:48Z</time>
      </trkpt>
      <trkpt lat="43.45249" lon="1.48449">
        <ele>262</ele>
        <time>2018-11-17T11:26:48Z</time>
      </trkpt>
      <trkpt lat="43.45254" lon="1.4845">
        <ele>262</ele>
        <time>2018-11-17T11:27:04Z</time>
      </trkpt>
      <trkpt lat="43.45257" lon="1.48451">
        <ele>262</ele>
        <time>2018-11-17T11:27:04Z</time>
      </trkpt>
      <trkpt lat="43.45261" lon="1.48454">
        <ele>262</ele>
        <time>2018-11-17T11:27:04Z</time>
      </trkpt>
      <trkpt lat="43.45264" lon="1.48455">
        <ele>262</ele>
        <time>2018-11-17T11:27:04Z</time>
      </trkpt>
      <trkpt lat="43.45267" lon="1.48457">
        <ele>262</ele>
        <time>2018-11-17T11:27:20Z</time>
      </trkpt>
      <trkpt lat="43.45271" lon="1.48459">
        <ele>266</ele>
        <time>2018-11-17T11:27:20Z</time>
      </trkpt>
      <trkpt lat="43.45275" lon="1.4846">
        <ele>266</ele>
        <time>2018-11-17T11:27:20Z</time>
      </trkpt>
      <trkpt lat="43.4528" lon="1.48462">
        <ele>266</ele>
        <time>2018-11-17T11:27:20Z</time>
      </trkpt>
      <trkpt lat="43.45284" lon="1.48464">
        <ele>266</ele>
        <time>2018-11-17T11:27:36Z</time>
      </trkpt>
      <trkpt lat="43.45288" lon="1.48468">
        <ele>266</ele>
        <time>2018-11-17T11:27:36Z</time>
      </trkpt>
      <trkpt lat="43.45293" lon="1.48469">
        <ele>276</ele>
        <time>2018-11-17T11:27:36Z</time>
      </trkpt>
      <trkpt lat="43.45297" lon="1.4847">
        <ele>276</ele>
        <time>2018-11-17T11:27:36Z</time>
      </trkpt>
      <trkpt lat="43.453" lon="1.48471">
        <ele>276</ele>
        <time>2018-11-17T11:27:52Z</time>
      </trkpt>
      <trkpt lat="43.45303" lon="1.48473">
        <ele>276</ele>
        <time>2018-11-17T11:27:52Z</time>
      </trkpt>
      <trkpt lat="43.45306" lon="1.48474">
        <ele>276</ele>
        <time>2018-11-17T11:27:52Z</time>
      </trkpt>
      <trkpt lat="43.4531" lon="1.48477">
        <ele>276</ele>
        <time>2018-11-17T11:27:52Z</time>
      </trkpt>
      <trkpt lat="43.45313" lon="1.48478">
        <ele>276</ele>
        <time>2018-11-17T11:28:08Z</time>
      </trkpt>
      <trkpt lat="43.45317" lon="1.48479">
        <ele>276</ele>
        <time>2018-11-17T11:28:08Z</time>
      </trkpt>
      <trkpt lat="43.45321" lon="1.48482">
        <ele>276</ele>
        <time>2018-11-17T11:28:08Z</time>
      </trkpt>
      <trkpt lat="43.45325" lon="1.48484">
        <ele>276</ele>
        <time>2018-11-17T11:28:08Z</time>
      </trkpt>
      <trkpt lat="43.45328" lon="1.48485">
        <ele>276</ele>
        <time>2018-11-17T11:28:24Z</time>
      </trkpt>
      <trkpt lat="43.45331" lon="1.48487">
        <ele>276</ele>
        <time>2018-11-17T11:28:24Z</time>
      </trkpt>
      <trkpt lat="43.45333" lon="1.48489">
        <ele>276</ele>
        <time>2018-11-17T11:28:24Z</time>
      </trkpt>
      <trkpt lat="43.45334" lon="1.48494">
        <ele>276</ele>
        <time>2018-11-17T11:28:24Z</time>
      </trkpt>
      <trkpt lat="43.45333" lon="1.48502">
        <ele>276</ele>
        <time>2018-11-17T11:28:48Z</time>
      </trkpt>
      <trkpt lat="43.45332" lon="1.48504">
        <ele>276</ele>
        <time>2018-11-17T11:28:48Z</time>
      </trkpt>
      <trkpt lat="43.45332" lon="1.48507">
        <ele>276</ele>
        <time>2018-11-17T11:28:48Z</time>
      </trkpt>
      <trkpt lat="43.45331" lon="1.48509">
        <ele>276</ele>
        <time>2018-11-17T11:28:48Z</time>
      </trkpt>
      <trkpt lat="43.45328" lon="1.48514">
        <ele>276</ele>
        <time>2018-11-17T11:28:48Z</time>
      </trkpt>
      <trkpt lat="43.45324" lon="1.48519">
        <ele>276</ele>
        <time>2018-11-17T11:29:28Z</time>
      </trkpt>
      <trkpt lat="43.45323" lon="1.48523">
        <ele>276</ele>
        <time>2018-11-17T11:29:28Z</time>
      </trkpt>
      <trkpt lat="43.45323" lon="1.4853">
        <ele>276</ele>
        <time>2018-11-17T11:29:28Z</time>
      </trkpt>
      <trkpt lat="43.4532" lon="1.48535">
        <ele>276</ele>
        <time>2018-11-17T11:29:28Z</time>
      </trkpt>
      <trkpt lat="43.45316" lon="1.48541">
        <ele>276</ele>
        <time>2018-11-17T11:29:28Z</time>
      </trkpt>
      <trkpt lat="43.45314" lon="1.48547">
        <ele>278</ele>
        <time>2018-11-17T11:29:44Z</time>
      </trkpt>
      <trkpt lat="43.45313" lon="1.48551">
        <ele>278</ele>
        <time>2018-11-17T11:29:44Z</time>
      </trkpt>
      <trkpt lat="43.45312" lon="1.48553">
        <ele>278</ele>
        <time>2018-11-17T11:29:44Z</time>
      </trkpt>
      <trkpt lat="43.4531" lon="1.48559">
        <ele>278</ele>
        <time>2018-11-17T11:29:44Z</time>
      </trkpt>
      <trkpt lat="43.4531" lon="1.48565">
        <ele>278</ele>
        <time>2018-11-17T11:30:00Z</time>
      </trkpt>
      <trkpt lat="43.45309" lon="1.48571">
        <ele>278</ele>
        <time>2018-11-17T11:30:00Z</time>
      </trkpt>
      <trkpt lat="43.45308" lon="1.48577">
        <ele>278</ele>
        <time>2018-11-17T11:30:00Z</time>
      </trkpt>
      <trkpt lat="43.45304" lon="1.48584">
        <ele>278</ele>
        <time>2018-11-17T11:30:00Z</time>
      </trkpt>
      <trkpt lat="43.45302" lon="1.4859">
        <ele>278</ele>
        <time>2018-11-17T11:30:16Z</time>
      </trkpt>
      <trkpt lat="43.45299" lon="1.48596">
        <ele>278</ele>
        <time>2018-11-17T11:30:16Z</time>
      </trkpt>
      <trkpt lat="43.45296" lon="1.48602">
        <ele>278</ele>
        <time>2018-11-17T11:30:16Z</time>
      </trkpt>
      <trkpt lat="43.45297" lon="1.48609">
        <ele>278</ele>
        <time>2018-11-17T11:30:16Z</time>
      </trkpt>
      <trkpt lat="43.45302" lon="1.48611">
        <ele>278</ele>
        <time>2018-11-17T11:30:32Z</time>
      </trkpt>
      <trkpt lat="43.45306" lon="1.48613">
        <ele>278</ele>
        <time>2018-11-17T11:30:32Z</time>
      </trkpt>
      <trkpt lat="43.45311" lon="1.48615">
        <ele>278</ele>
        <time>2018-11-17T11:30:32Z</time>
      </trkpt>
      <trkpt lat="43.45314" lon="1.48617">
        <ele>278</ele>
        <time>2018-11-17T11:30:32Z</time>
      </trkpt>
      <trkpt lat="43.45316" lon="1.48618">
        <ele>278</ele>
        <time>2018-11-17T11:30:48Z</time>
      </trkpt>
      <trkpt lat="43.45321" lon="1.48621">
        <ele>278</ele>
        <time>2018-11-17T11:30:48Z</time>
      </trkpt>
      <trkpt lat="43.45324" lon="1.48625">
        <ele>279</ele>
        <time>2018-11-17T11:30:48Z</time>
      </trkpt>
      <trkpt lat="43.45328" lon="1.48631">
        <ele>279</ele>
        <time>2018-11-17T11:30:48Z</time>
      </trkpt>
      <trkpt lat="43.45331" lon="1.48637">
        <ele>279</ele>
        <time>2018-11-17T11:31:04Z</time>
      </trkpt>
      <trkpt lat="43.45335" lon="1.4864">
        <ele>279</ele>
        <time>2018-11-17T11:31:04Z</time>
      </trkpt>
      <trkpt lat="43.45338" lon="1.48642">
        <ele>279</ele>
        <time>2018-11-17T11:31:04Z</time>
      </trkpt>
      <trkpt lat="43.45343" lon="1.48645">
        <ele>279</ele>
        <time>2018-11-17T11:31:04Z</time>
      </trkpt>
      <trkpt lat="43.45351" lon="1.4865">
        <ele>279</ele>
        <time>2018-11-17T11:31:20Z</time>
      </trkpt>
      <trkpt lat="43.45355" lon="1.48653">
        <ele>279</ele>
        <time>2018-11-17T11:31:20Z</time>
      </trkpt>
      <trkpt lat="43.45359" lon="1.48658">
        <ele>279</ele>
        <time>2018-11-17T11:31:20Z</time>
      </trkpt>
      <trkpt lat="43.45363" lon="1.4866">
        <ele>279</ele>
        <time>2018-11-17T11:31:20Z</time>
      </trkpt>
      <trkpt lat="43.45367" lon="1.48661">
        <ele>279</ele>
        <time>2018-11-17T11:31:36Z</time>
      </trkpt>
      <trkpt lat="43.4537" lon="1.48664">
        <ele>279</ele>
        <time>2018-11-17T11:31:36Z</time>
      </trkpt>
      <trkpt lat="43.45373" lon="1.48667">
        <ele>279</ele>
        <time>2018-11-17T11:31:36Z</time>
      </trkpt>
      <trkpt lat="43.45377" lon="1.48671">
        <ele>274</ele>
        <time>2018-11-17T11:31:36Z</time>
      </trkpt>
      <trkpt lat="43.45381" lon="1.48675">
        <ele>274</ele>
        <time>2018-11-17T11:31:52Z</time>
      </trkpt>
      <trkpt lat="43.45385" lon="1.4868">
        <ele>274</ele>
        <time>2018-11-17T11:31:52Z</time>
      </trkpt>
      <trkpt lat="43.45388" lon="1.48683">
        <ele>274</ele>
        <time>2018-11-17T11:31:52Z</time>
      </trkpt>
      <trkpt lat="43.45391" lon="1.48687">
        <ele>274</ele>
        <time>2018-11-17T11:31:52Z</time>
      </trkpt>
      <trkpt lat="43.45394" lon="1.4869">
        <ele>274</ele>
        <time>2018-11-17T11:32:08Z</time>
      </trkpt>
      <trkpt lat="43.45398" lon="1.48694">
        <ele>274</ele>
        <time>2018-11-17T11:32:08Z</time>
      </trkpt>
      <trkpt lat="43.45402" lon="1.48699">
        <ele>274</ele>
        <time>2018-11-17T11:32:08Z</time>
      </trkpt>
      <trkpt lat="43.45406" lon="1.48705">
        <ele>274</ele>
        <time>2018-11-17T11:32:08Z</time>
      </trkpt>
      <trkpt lat="43.4541" lon="1.48707">
        <ele>274</ele>
        <time>2018-11-17T11:32:24Z</time>
      </trkpt>
      <trkpt lat="43.45413" lon="1.48709">
        <ele>271</ele>
        <time>2018-11-17T11:32:24Z</time>
      </trkpt>
      <trkpt lat="43.45417" lon="1.48711">
        <ele>271</ele>
        <time>2018-11-17T11:32:24Z</time>
      </trkpt>
      <trkpt lat="43.4542" lon="1.48713">
        <ele>271</ele>
        <time>2018-11-17T11:32:24Z</time>
      </trkpt>
      <trkpt lat="43.45423" lon="1.48715">
        <ele>271</ele>
        <time>2018-11-17T11:32:40Z</time>
      </trkpt>
      <trkpt lat="43.45426" lon="1.48718">
        <ele>271</ele>
        <time>2018-11-17T11:32:40Z</time>
      </trkpt>
      <trkpt lat="43.45429" lon="1.48721">
        <ele>271</ele>
        <time>2018-11-17T11:32:40Z</time>
      </trkpt>
      <trkpt lat="43.45432" lon="1.48724">
        <ele>271</ele>
        <time>2018-11-17T11:32:40Z</time>
      </trkpt>
      <trkpt lat="43.45434" lon="1.48727">
        <ele>271</ele>
        <time>2018-11-17T11:32:56Z</time>
      </trkpt>
      <trkpt lat="43.45437" lon="1.48729">
        <ele>271</ele>
        <time>2018-11-17T11:32:56Z</time>
      </trkpt>
      <trkpt lat="43.4544" lon="1.48731">
        <ele>271</ele>
        <time>2018-11-17T11:32:56Z</time>
      </trkpt>
      <trkpt lat="43.45443" lon="1.48734">
        <ele>271</ele>
        <time>2018-11-17T11:32:56Z</time>
      </trkpt>
      <trkpt lat="43.45447" lon="1.48739">
        <ele>271</ele>
        <time>2018-11-17T11:33:12Z</time>
      </trkpt>
      <trkpt lat="43.45451" lon="1.48742">
        <ele>271</ele>
        <time>2018-11-17T11:33:12Z</time>
      </trkpt>
      <trkpt lat="43.45454" lon="1.48744">
        <ele>271</ele>
        <time>2018-11-17T11:33:12Z</time>
      </trkpt>
      <trkpt lat="43.45458" lon="1.48746">
        <ele>271</ele>
        <time>2018-11-17T11:33:12Z</time>
      </trkpt>
      <trkpt lat="43.45462" lon="1.48747">
        <ele>259</ele>
        <time>2018-11-17T11:33:28Z</time>
      </trkpt>
      <trkpt lat="43.45466" lon="1.4875">
        <ele>259</ele>
        <time>2018-11-17T11:33:28Z</time>
      </trkpt>
      <trkpt lat="43.45469" lon="1.48754">
        <ele>259</ele>
        <time>2018-11-17T11:33:28Z</time>
      </trkpt>
      <trkpt lat="43.45473" lon="1.4876">
        <ele>259</ele>
        <time>2018-11-17T11:33:28Z</time>
      </trkpt>
      <trkpt lat="43.45477" lon="1.48762">
        <ele>259</ele>
        <time>2018-11-17T11:33:44Z</time>
      </trkpt>
      <trkpt lat="43.45481" lon="1.48764">
        <ele>259</ele>
        <time>2018-11-17T11:33:44Z</time>
      </trkpt>
      <trkpt lat="43.45485" lon="1.48766">
        <ele>259</ele>
        <time>2018-11-17T11:33:44Z</time>
      </trkpt>
      <trkpt lat="43.45487" lon="1.48769">
        <ele>259</ele>
        <time>2018-11-17T11:33:44Z</time>
      </trkpt>
      <trkpt lat="43.45491" lon="1.48771">
        <ele>259</ele>
        <time>2018-11-17T11:34:00Z</time>
      </trkpt>
      <trkpt lat="43.45493" lon="1.48773">
        <ele>259</ele>
        <time>2018-11-17T11:34:00Z</time>
      </trkpt>
      <trkpt lat="43.45496" lon="1.48777">
        <ele>259</ele>
        <time>2018-11-17T11:34:00Z</time>
      </trkpt>
      <trkpt lat="43.45499" lon="1.48781">
        <ele>259</ele>
        <time>2018-11-17T11:34:00Z</time>
      </trkpt>
      <trkpt lat="43.45502" lon="1.48785">
        <ele>259</ele>
        <time>2018-11-17T11:34:16Z</time>
      </trkpt>
      <trkpt lat="43.45506" lon="1.48788">
        <ele>259</ele>
        <time>2018-11-17T11:34:16Z</time>
      </trkpt>
      <trkpt lat="43.45507" lon="1.48792">
        <ele>259</ele>
        <time>2018-11-17T11:34:16Z</time>
      </trkpt>
      <trkpt lat="43.45508" lon="1.48797">
        <ele>258</ele>
        <time>2018-11-17T11:34:16Z</time>
      </trkpt>
      <trkpt lat="43.4551" lon="1.488">
        <ele>258</ele>
        <time>2018-11-17T11:34:32Z</time>
      </trkpt>
      <trkpt lat="43.45512" lon="1.48804">
        <ele>258</ele>
        <time>2018-11-17T11:34:32Z</time>
      </trkpt>
      <trkpt lat="43.45515" lon="1.48807">
        <ele>258</ele>
        <time>2018-11-17T11:34:32Z</time>
      </trkpt>
      <trkpt lat="43.45517" lon="1.48813">
        <ele>258</ele>
        <time>2018-11-17T11:34:32Z</time>
      </trkpt>
      <trkpt lat="43.45517" lon="1.4882">
        <ele>258</ele>
        <time>2018-11-17T11:34:48Z</time>
      </trkpt>
      <trkpt lat="43.45516" lon="1.48826">
        <ele>258</ele>
        <time>2018-11-17T11:34:48Z</time>
      </trkpt>
      <trkpt lat="43.45514" lon="1.48832">
        <ele>258</ele>
        <time>2018-11-17T11:34:48Z</time>
      </trkpt>
      <trkpt lat="43.45512" lon="1.48837">
        <ele>258</ele>
        <time>2018-11-17T11:34:48Z</time>
      </trkpt>
      <trkpt lat="43.45511" lon="1.48842">
        <ele>258</ele>
        <time>2018-11-17T11:35:04Z</time>
      </trkpt>
      <trkpt lat="43.4551" lon="1.48847">
        <ele>258</ele>
        <time>2018-11-17T11:35:04Z</time>
      </trkpt>
      <trkpt lat="43.4551" lon="1.48853">
        <ele>258</ele>
        <time>2018-11-17T11:35:04Z</time>
      </trkpt>
      <trkpt lat="43.45511" lon="1.48859">
        <ele>258</ele>
        <time>2018-11-17T11:35:04Z</time>
      </trkpt>
      <trkpt lat="43.45514" lon="1.48863">
        <ele>258</ele>
        <time>2018-11-17T11:35:20Z</time>
      </trkpt>
      <trkpt lat="43.45518" lon="1.48867">
        <ele>258</ele>
        <time>2018-11-17T11:35:20Z</time>
      </trkpt>
      <trkpt lat="43.45523" lon="1.48867">
        <ele>258</ele>
        <time>2018-11-17T11:35:20Z</time>
      </trkpt>
      <trkpt lat="43.45527" lon="1.48869">
        <ele>258</ele>
        <time>2018-11-17T11:35:20Z</time>
      </trkpt>
      <trkpt lat="43.4553" lon="1.4887">
        <ele>258</ele>
        <time>2018-11-17T11:35:36Z</time>
      </trkpt>
      <trkpt lat="43.45534" lon="1.48871">
        <ele>258</ele>
        <time>2018-11-17T11:35:36Z</time>
      </trkpt>
      <trkpt lat="43.45538" lon="1.48873">
        <ele>258</ele>
        <time>2018-11-17T11:35:36Z</time>
      </trkpt>
      <trkpt lat="43.45541" lon="1.48876">
        <ele>252</ele>
        <time>2018-11-17T11:35:36Z</time>
      </trkpt>
      <trkpt lat="43.45545" lon="1.48878">
        <ele>241</ele>
        <time>2018-11-17T11:35:56Z</time>
      </trkpt>
      <trkpt lat="43.45547" lon="1.48876">
        <ele>241</ele>
        <time>2018-11-17T11:35:56Z</time>
      </trkpt>
      <trkpt lat="43.45549" lon="1.48876">
        <ele>241</ele>
        <time>2018-11-17T11:35:56Z</time>
      </trkpt>
      <trkpt lat="43.45553" lon="1.48879">
        <ele>241</ele>
        <time>2018-11-17T11:35:56Z</time>
      </trkpt>
      <trkpt lat="43.45557" lon="1.48883">
        <ele>241</ele>
        <time>2018-11-17T11:35:56Z</time>
      </trkpt>
      <trkpt lat="43.45564" lon="1.48892">
        <ele>241</ele>
        <time>2018-11-17T11:36:20Z</time>
      </trkpt>
      <trkpt lat="43.45565" lon="1.48894">
        <ele>241</ele>
        <time>2018-11-17T11:36:20Z</time>
      </trkpt>
      <trkpt lat="43.45567" lon="1.48894">
        <ele>241</ele>
        <time>2018-11-17T11:36:20Z</time>
      </trkpt>
      <trkpt lat="43.45568" lon="1.48895">
        <ele>241</ele>
        <time>2018-11-17T11:36:20Z</time>
      </trkpt>
      <trkpt lat="43.45569" lon="1.48895">
        <ele>241</ele>
        <time>2018-11-17T11:36:20Z</time>
      </trkpt>
      <trkpt lat="43.45569" lon="1.48895">
        <ele>241</ele>
        <time>2018-11-17T11:37:28Z</time>
      </trkpt>
      <trkpt lat="43.45569" lon="1.48897">
        <ele>241</ele>
        <time>2018-11-17T11:37:28Z</time>
      </trkpt>
      <trkpt lat="43.45569" lon="1.48907">
        <ele>241</ele>
        <time>2018-11-17T11:37:28Z</time>
      </trkpt>
      <trkpt lat="43.45569" lon="1.48913">
        <ele>241</ele>
        <time>2018-11-17T11:37:28Z</time>
      </trkpt>
      <trkpt lat="43.45572" lon="1.48915">
        <ele>241</ele>
        <time>2018-11-17T11:37:28Z</time>
      </trkpt>
      <trkpt lat="43.45577" lon="1.4892">
        <ele>241</ele>
        <time>2018-11-17T11:38:00Z</time>
      </trkpt>
      <trkpt lat="43.45577" lon="1.4892">
        <ele>241</ele>
        <time>2018-11-17T11:38:00Z</time>
      </trkpt>
      <trkpt lat="43.45578" lon="1.48921">
        <ele>241</ele>
        <time>2018-11-17T11:38:00Z</time>
      </trkpt>
      <trkpt lat="43.4558" lon="1.48922">
        <ele>241</ele>
        <time>2018-11-17T11:38:00Z</time>
      </trkpt>
      <trkpt lat="43.45584" lon="1.48921">
        <ele>241</ele>
        <time>2018-11-17T11:38:00Z</time>
      </trkpt>
      <trkpt lat="43.45586" lon="1.48914">
        <ele>241</ele>
        <time>2018-11-17T11:41:48Z</time>
      </trkpt>
      <trkpt lat="43.45589" lon="1.48913">
        <ele>241</ele>
        <time>2018-11-17T11:41:48Z</time>
      </trkpt>
      <trkpt lat="43.45593" lon="1.48911">
        <ele>241</ele>
        <time>2018-11-17T11:41:48Z</time>
      </trkpt>
      <trkpt lat="43.456" lon="1.48907">
        <ele>241</ele>
        <time>2018-11-17T11:41:48Z</time>
      </trkpt>
      <trkpt lat="43.45606" lon="1.48906">
        <ele>241</ele>
        <time>2018-11-17T11:41:48Z</time>
      </trkpt>
      <trkpt lat="43.45611" lon="1.48902">
        <ele>241</ele>
        <time>2018-11-17T11:42:52Z</time>
      </trkpt>
      <trkpt lat="43.45616" lon="1.48897">
        <ele>241</ele>
        <time>2018-11-17T11:42:52Z</time>
      </trkpt>
      <trkpt lat="43.45623" lon="1.48891">
        <ele>241</ele>
        <time>2018-11-17T11:42:52Z</time>
      </trkpt>
      <trkpt lat="43.45628" lon="1.48886">
        <ele>239</ele>
        <time>2018-11-17T11:42:52Z</time>
      </trkpt>
      <trkpt lat="43.4563" lon="1.48884">
        <ele>239</ele>
        <time>2018-11-17T11:42:52Z</time>
      </trkpt>
      <trkpt lat="43.45636" lon="1.48881">
        <ele>239</ele>
        <time>2018-11-17T11:43:08Z</time>
      </trkpt>
      <trkpt lat="43.45638" lon="1.48876">
        <ele>239</ele>
        <time>2018-11-17T11:43:08Z</time>
      </trkpt>
      <trkpt lat="43.45641" lon="1.48871">
        <ele>237</ele>
        <time>2018-11-17T11:43:08Z</time>
      </trkpt>
      <trkpt lat="43.45642" lon="1.48866">
        <ele>237</ele>
        <time>2018-11-17T11:43:08Z</time>
      </trkpt>
      <trkpt lat="43.45644" lon="1.48862">
        <ele>237</ele>
        <time>2018-11-17T11:43:24Z</time>
      </trkpt>
      <trkpt lat="43.45648" lon="1.48859">
        <ele>237</ele>
        <time>2018-11-17T11:43:24Z</time>
      </trkpt>
      <trkpt lat="43.45651" lon="1.48856">
        <ele>237</ele>
        <time>2018-11-17T11:43:24Z</time>
      </trkpt>
      <trkpt lat="43.45654" lon="1.48852">
        <ele>237</ele>
        <time>2018-11-17T11:43:24Z</time>
      </trkpt>
      <trkpt lat="43.45658" lon="1.4885">
        <ele>237</ele>
        <time>2018-11-17T11:43:40Z</time>
      </trkpt>
      <trkpt lat="43.4566" lon="1.48847">
        <ele>237</ele>
        <time>2018-11-17T11:43:40Z</time>
      </trkpt>
      <trkpt lat="43.45663" lon="1.48843">
        <ele>237</ele>
        <time>2018-11-17T11:43:40Z</time>
      </trkpt>
      <trkpt lat="43.45666" lon="1.48839">
        <ele>237</ele>
        <time>2018-11-17T11:43:40Z</time>
      </trkpt>
      <trkpt lat="43.45669" lon="1.48834">
        <ele>237</ele>
        <time>2018-11-17T11:43:56Z</time>
      </trkpt>
      <trkpt lat="43.4567" lon="1.48829">
        <ele>237</ele>
        <time>2018-11-17T11:43:56Z</time>
      </trkpt>
      <trkpt lat="43.45673" lon="1.48825">
        <ele>237</ele>
        <time>2018-11-17T11:43:56Z</time>
      </trkpt>
      <trkpt lat="43.45678" lon="1.48821">
        <ele>237</ele>
        <time>2018-11-17T11:43:56Z</time>
      </trkpt>
      <trkpt lat="43.45682" lon="1.48816">
        <ele>237</ele>
        <time>2018-11-17T11:44:12Z</time>
      </trkpt>
      <trkpt lat="43.45686" lon="1.48811">
        <ele>237</ele>
        <time>2018-11-17T11:44:12Z</time>
      </trkpt>
      <trkpt lat="43.45691" lon="1.48807">
        <ele>237</ele>
        <time>2018-11-17T11:44:12Z</time>
      </trkpt>
      <trkpt lat="43.45697" lon="1.48803">
        <ele>237</ele>
        <time>2018-11-17T11:44:12Z</time>
      </trkpt>
      <trkpt lat="43.45703" lon="1.488">
        <ele>237</ele>
        <time>2018-11-17T11:44:28Z</time>
      </trkpt>
      <trkpt lat="43.45707" lon="1.48796">
        <ele>237</ele>
        <time>2018-11-17T11:44:28Z</time>
      </trkpt>
      <trkpt lat="43.45709" lon="1.48794">
        <ele>235</ele>
        <time>2018-11-17T11:44:28Z</time>
      </trkpt>
      <trkpt lat="43.45711" lon="1.48793">
        <ele>235</ele>
        <time>2018-11-17T11:44:28Z</time>
      </trkpt>
      <trkpt lat="43.45714" lon="1.48787">
        <ele>234</ele>
        <time>2018-11-17T11:44:44Z</time>
      </trkpt>
      <trkpt lat="43.45719" lon="1.48781">
        <ele>234</ele>
        <time>2018-11-17T11:44:44Z</time>
      </trkpt>
      <trkpt lat="43.45723" lon="1.48776">
        <ele>234</ele>
        <time>2018-11-17T11:44:44Z</time>
      </trkpt>
      <trkpt lat="43.45726" lon="1.48771">
        <ele>234</ele>
        <time>2018-11-17T11:44:44Z</time>
      </trkpt>
      <trkpt lat="43.45731" lon="1.48767">
        <ele>234</ele>
        <time>2018-11-17T11:45:00Z</time>
      </trkpt>
      <trkpt lat="43.45734" lon="1.48762">
        <ele>234</ele>
        <time>2018-11-17T11:45:00Z</time>
      </trkpt>
      <trkpt lat="43.45738" lon="1.48759">
        <ele>234</ele>
        <time>2018-11-17T11:45:00Z</time>
      </trkpt>
      <trkpt lat="43.45743" lon="1.48758">
        <ele>234</ele>
        <time>2018-11-17T11:45:00Z</time>
      </trkpt>
      <trkpt lat="43.45746" lon="1.4876">
        <ele>234</ele>
        <time>2018-11-17T11:45:20Z</time>
      </trkpt>
      <trkpt lat="43.45747" lon="1.48763">
        <ele>234</ele>
        <time>2018-11-17T11:45:20Z</time>
      </trkpt>
      <trkpt lat="43.45749" lon="1.48769">
        <ele>234</ele>
        <time>2018-11-17T11:45:20Z</time>
      </trkpt>
      <trkpt lat="43.45748" lon="1.4877">
        <ele>234</ele>
        <time>2018-11-17T11:45:20Z</time>
      </trkpt>
      <trkpt lat="43.45751" lon="1.48774">
        <ele>234</ele>
        <time>2018-11-17T11:45:20Z</time>
      </trkpt>
      <trkpt lat="43.45753" lon="1.48777">
        <ele>234</ele>
        <time>2018-11-17T11:45:36Z</time>
      </trkpt>
      <trkpt lat="43.45755" lon="1.4878">
        <ele>234</ele>
        <time>2018-11-17T11:45:36Z</time>
      </trkpt>
      <trkpt lat="43.45757" lon="1.48784">
        <ele>234</ele>
        <time>2018-11-17T11:45:36Z</time>
      </trkpt>
      <trkpt lat="43.45758" lon="1.48788">
        <ele>234</ele>
        <time>2018-11-17T11:45:36Z</time>
      </trkpt>
      <trkpt lat="43.45761" lon="1.48793">
        <ele>235</ele>
        <time>2018-11-17T11:45:56Z</time>
      </trkpt>
      <trkpt lat="43.45762" lon="1.48796">
        <ele>235</ele>
        <time>2018-11-17T11:45:56Z</time>
      </trkpt>
      <trkpt lat="43.45764" lon="1.48801">
        <ele>235</ele>
        <time>2018-11-17T11:45:56Z</time>
      </trkpt>
      <trkpt lat="43.45765" lon="1.48802">
        <ele>235</ele>
        <time>2018-11-17T11:45:56Z</time>
      </trkpt>
      <trkpt lat="43.45767" lon="1.48805">
        <ele>235</ele>
        <time>2018-11-17T11:45:56Z</time>
      </trkpt>
      <trkpt lat="43.4577" lon="1.48807">
        <ele>235</ele>
        <time>2018-11-17T11:46:12Z</time>
      </trkpt>
      <trkpt lat="43.45772" lon="1.4881">
        <ele>235</ele>
        <time>2018-11-17T11:46:12Z</time>
      </trkpt>
      <trkpt lat="43.45774" lon="1.48813">
        <ele>235</ele>
        <time>2018-11-17T11:46:12Z</time>
      </trkpt>
      <trkpt lat="43.45777" lon="1.48815">
        <ele>235</ele>
        <time>2018-11-17T11:46:12Z</time>
      </trkpt>
      <trkpt lat="43.45779" lon="1.48819">
        <ele>235</ele>
        <time>2018-11-17T11:46:28Z</time>
      </trkpt>
      <trkpt lat="43.45782" lon="1.48822">
        <ele>235</ele>
        <time>2018-11-17T11:46:28Z</time>
      </trkpt>
      <trkpt lat="43.45784" lon="1.48826">
        <ele>235</ele>
        <time>2018-11-17T11:46:28Z</time>
      </trkpt>
      <trkpt lat="43.45786" lon="1.48829">
        <ele>235</ele>
        <time>2018-11-17T11:46:28Z</time>
      </trkpt>
      <trkpt lat="43.45788" lon="1.48832">
        <ele>235</ele>
        <time>2018-11-17T11:46:44Z</time>
      </trkpt>
      <trkpt lat="43.4579" lon="1.48836">
        <ele>235</ele>
        <time>2018-11-17T11:46:44Z</time>
      </trkpt>
      <trkpt lat="43.45793" lon="1.4884">
        <ele>244</ele>
        <time>2018-11-17T11:46:44Z</time>
      </trkpt>
      <trkpt lat="43.45795" lon="1.48843">
        <ele>244</ele>
        <time>2018-11-17T11:46:44Z</time>
      </trkpt>
      <trkpt lat="43.45797" lon="1.48848">
        <ele>244</ele>
        <time>2018-11-17T11:47:00Z</time>
      </trkpt>
      <trkpt lat="43.45799" lon="1.48852">
        <ele>244</ele>
        <time>2018-11-17T11:47:00Z</time>
      </trkpt>
      <trkpt lat="43.45801" lon="1.48857">
        <ele>244</ele>
        <time>2018-11-17T11:47:00Z</time>
      </trkpt>
      <trkpt lat="43.45803" lon="1.4886">
        <ele>244</ele>
        <time>2018-11-17T11:47:00Z</time>
      </trkpt>
      <trkpt lat="43.45806" lon="1.48865">
        <ele>244</ele>
        <time>2018-11-17T11:47:16Z</time>
      </trkpt>
      <trkpt lat="43.45809" lon="1.48869">
        <ele>244</ele>
        <time>2018-11-17T11:47:16Z</time>
      </trkpt>
      <trkpt lat="43.45812" lon="1.48873">
        <ele>244</ele>
        <time>2018-11-17T11:47:16Z</time>
      </trkpt>
      <trkpt lat="43.45814" lon="1.48878">
        <ele>254</ele>
        <time>2018-11-17T11:47:16Z</time>
      </trkpt>
      <trkpt lat="43.45817" lon="1.48883">
        <ele>254</ele>
        <time>2018-11-17T11:47:32Z</time>
      </trkpt>
      <trkpt lat="43.4582" lon="1.48887">
        <ele>254</ele>
        <time>2018-11-17T11:47:32Z</time>
      </trkpt>
      <trkpt lat="43.45823" lon="1.48891">
        <ele>254</ele>
        <time>2018-11-17T11:47:32Z</time>
      </trkpt>
      <trkpt lat="43.45825" lon="1.48894">
        <ele>254</ele>
        <time>2018-11-17T11:47:32Z</time>
      </trkpt>
      <trkpt lat="43.45828" lon="1.48899">
        <ele>254</ele>
        <time>2018-11-17T11:47:48Z</time>
      </trkpt>
      <trkpt lat="43.45831" lon="1.48904">
        <ele>254</ele>
        <time>2018-11-17T11:47:48Z</time>
      </trkpt>
      <trkpt lat="43.45834" lon="1.48908">
        <ele>254</ele>
        <time>2018-11-17T11:47:48Z</time>
      </trkpt>
      <trkpt lat="43.45837" lon="1.48912">
        <ele>254</ele>
        <time>2018-11-17T11:47:48Z</time>
      </trkpt>
      <trkpt lat="43.45841" lon="1.48915">
        <ele>254</ele>
        <time>2018-11-17T11:48:04Z</time>
      </trkpt>
      <trkpt lat="43.45844" lon="1.48919">
        <ele>254</ele>
        <time>2018-11-17T11:48:04Z</time>
      </trkpt>
      <trkpt lat="43.45847" lon="1.48923">
        <ele>254</ele>
        <time>2018-11-17T11:48:04Z</time>
      </trkpt>
      <trkpt lat="43.4585" lon="1.48926">
        <ele>254</ele>
        <time>2018-11-17T11:48:04Z</time>
      </trkpt>
      <trkpt lat="43.45853" lon="1.4893">
        <ele>254</ele>
        <time>2018-11-17T11:48:24Z</time>
      </trkpt>
      <trkpt lat="43.45854" lon="1.4893">
        <ele>254</ele>
        <time>2018-11-17T11:48:24Z</time>
      </trkpt>
      <trkpt lat="43.45855" lon="1.48931">
        <ele>254</ele>
        <time>2018-11-17T11:48:24Z</time>
      </trkpt>
      <trkpt lat="43.45857" lon="1.48934">
        <ele>254</ele>
        <time>2018-11-17T11:48:24Z</time>
      </trkpt>
      <trkpt lat="43.4586" lon="1.48939">
        <ele>254</ele>
        <time>2018-11-17T11:48:24Z</time>
      </trkpt>
      <trkpt lat="43.45864" lon="1.48943">
        <ele>254</ele>
        <time>2018-11-17T11:48:40Z</time>
      </trkpt>
      <trkpt lat="43.45866" lon="1.48946">
        <ele>254</ele>
        <time>2018-11-17T11:48:40Z</time>
      </trkpt>
      <trkpt lat="43.45869" lon="1.48952">
        <ele>254</ele>
        <time>2018-11-17T11:48:40Z</time>
      </trkpt>
      <trkpt lat="43.45873" lon="1.48959">
        <ele>260</ele>
        <time>2018-11-17T11:48:40Z</time>
      </trkpt>
      <trkpt lat="43.45877" lon="1.48963">
        <ele>255</ele>
        <time>2018-11-17T11:48:56Z</time>
      </trkpt>
      <trkpt lat="43.4588" lon="1.48966">
        <ele>255</ele>
        <time>2018-11-17T11:48:56Z</time>
      </trkpt>
      <trkpt lat="43.45882" lon="1.48969">
        <ele>255</ele>
        <time>2018-11-17T11:48:56Z</time>
      </trkpt>
      <trkpt lat="43.45884" lon="1.48973">
        <ele>255</ele>
        <time>2018-11-17T11:48:56Z</time>
      </trkpt>
      <trkpt lat="43.45892" lon="1.48979">
        <ele>255</ele>
        <time>2018-11-17T11:52:56Z</time>
      </trkpt>
      <trkpt lat="43.45892" lon="1.48979">
        <ele>255</ele>
        <time>2018-11-17T11:52:56Z</time>
      </trkpt>
      <trkpt lat="43.45893" lon="1.48974">
        <ele>255</ele>
        <time>2018-11-17T11:52:56Z</time>
      </trkpt>
      <trkpt lat="43.45895" lon="1.48968">
        <ele>255</ele>
        <time>2018-11-17T11:52:56Z</time>
      </trkpt>
      <trkpt lat="43.45897" lon="1.48966">
        <ele>255</ele>
        <time>2018-11-17T11:52:56Z</time>
      </trkpt>
      <trkpt lat="43.459" lon="1.48961">
        <ele>255</ele>
        <time>2018-11-17T11:53:12Z</time>
      </trkpt>
      <trkpt lat="43.45903" lon="1.48955">
        <ele>254</ele>
        <time>2018-11-17T11:53:12Z</time>
      </trkpt>
      <trkpt lat="43.45907" lon="1.48949">
        <ele>254</ele>
        <time>2018-11-17T11:53:12Z</time>
      </trkpt>
      <trkpt lat="43.4591" lon="1.48943">
        <ele>254</ele>
        <time>2018-11-17T11:53:12Z</time>
      </trkpt>
      <trkpt lat="43.45912" lon="1.48938">
        <ele>254</ele>
        <time>2018-11-17T11:53:28Z</time>
      </trkpt>
      <trkpt lat="43.45915" lon="1.48933">
        <ele>254</ele>
        <time>2018-11-17T11:53:28Z</time>
      </trkpt>
      <trkpt lat="43.45918" lon="1.48928">
        <ele>254</ele>
        <time>2018-11-17T11:53:28Z</time>
      </trkpt>
      <trkpt lat="43.45922" lon="1.48923">
        <ele>254</ele>
        <time>2018-11-17T11:53:28Z</time>
      </trkpt>
      <trkpt lat="43.45924" lon="1.48919">
        <ele>254</ele>
        <time>2018-11-17T11:53:44Z</time>
      </trkpt>
      <trkpt lat="43.45927" lon="1.48914">
        <ele>254</ele>
        <time>2018-11-17T11:53:44Z</time>
      </trkpt>
      <trkpt lat="43.45931" lon="1.48908">
        <ele>254</ele>
        <time>2018-11-17T11:53:44Z</time>
      </trkpt>
      <trkpt lat="43.45935" lon="1.48903">
        <ele>254</ele>
        <time>2018-11-17T11:53:44Z</time>
      </trkpt>
      <trkpt lat="43.45939" lon="1.48897">
        <ele>254</ele>
        <time>2018-11-17T11:54:00Z</time>
      </trkpt>
      <trkpt lat="43.45942" lon="1.48893">
        <ele>254</ele>
        <time>2018-11-17T11:54:00Z</time>
      </trkpt>
      <trkpt lat="43.45945" lon="1.48888">
        <ele>254</ele>
        <time>2018-11-17T11:54:00Z</time>
      </trkpt>
      <trkpt lat="43.45948" lon="1.48883">
        <ele>254</ele>
        <time>2018-11-17T11:54:00Z</time>
      </trkpt>
      <trkpt lat="43.45951" lon="1.48878">
        <ele>254</ele>
        <time>2018-11-17T11:54:16Z</time>
      </trkpt>
      <trkpt lat="43.45954" lon="1.48874">
        <ele>251</ele>
        <time>2018-11-17T11:54:16Z</time>
      </trkpt>
      <trkpt lat="43.45957" lon="1.48869">
        <ele>251</ele>
        <time>2018-11-17T11:54:16Z</time>
      </trkpt>
      <trkpt lat="43.45959" lon="1.48864">
        <ele>249</ele>
        <time>2018-11-17T11:54:16Z</time>
      </trkpt>
      <trkpt lat="43.45962" lon="1.48859">
        <ele>249</ele>
        <time>2018-11-17T11:54:32Z</time>
      </trkpt>
      <trkpt lat="43.45964" lon="1.48855">
        <ele>249</ele>
        <time>2018-11-17T11:54:32Z</time>
      </trkpt>
      <trkpt lat="43.45966" lon="1.4885">
        <ele>249</ele>
        <time>2018-11-17T11:54:32Z</time>
      </trkpt>
      <trkpt lat="43.45969" lon="1.48845">
        <ele>249</ele>
        <time>2018-11-17T11:54:32Z</time>
      </trkpt>
      <trkpt lat="43.45972" lon="1.48841">
        <ele>249</ele>
        <time>2018-11-17T11:54:48Z</time>
      </trkpt>
      <trkpt lat="43.45974" lon="1.48836">
        <ele>249</ele>
        <time>2018-11-17T11:54:48Z</time>
      </trkpt>
      <trkpt lat="43.45977" lon="1.48831">
        <ele>249</ele>
        <time>2018-11-17T11:54:48Z</time>
      </trkpt>
      <trkpt lat="43.4598" lon="1.48827">
        <ele>249</ele>
        <time>2018-11-17T11:54:48Z</time>
      </trkpt>
      <trkpt lat="43.45984" lon="1.4882">
        <ele>249</ele>
        <time>2018-11-17T11:55:04Z</time>
      </trkpt>
      <trkpt lat="43.45987" lon="1.48816">
        <ele>249</ele>
        <time>2018-11-17T11:55:04Z</time>
      </trkpt>
      <trkpt lat="43.45989" lon="1.48811">
        <ele>249</ele>
        <time>2018-11-17T11:55:04Z</time>
      </trkpt>
      <trkpt lat="43.45992" lon="1.48806">
        <ele>249</ele>
        <time>2018-11-17T11:55:04Z</time>
      </trkpt>
      <trkpt lat="43.45995" lon="1.48801">
        <ele>249</ele>
        <time>2018-11-17T11:55:20Z</time>
      </trkpt>
      <trkpt lat="43.45997" lon="1.48796">
        <ele>249</ele>
        <time>2018-11-17T11:55:20Z</time>
      </trkpt>
      <trkpt lat="43.46" lon="1.48791">
        <ele>246</ele>
        <time>2018-11-17T11:55:20Z</time>
      </trkpt>
      <trkpt lat="43.46003" lon="1.48787">
        <ele>246</ele>
        <time>2018-11-17T11:55:20Z</time>
      </trkpt>
      <trkpt lat="43.46006" lon="1.48781">
        <ele>246</ele>
        <time>2018-11-17T11:55:36Z</time>
      </trkpt>
      <trkpt lat="43.46009" lon="1.48776">
        <ele>246</ele>
        <time>2018-11-17T11:55:36Z</time>
      </trkpt>
      <trkpt lat="43.46012" lon="1.4877">
        <ele>246</ele>
        <time>2018-11-17T11:55:36Z</time>
      </trkpt>
      <trkpt lat="43.46014" lon="1.48767">
        <ele>246</ele>
        <time>2018-11-17T11:55:36Z</time>
      </trkpt>
      <trkpt lat="43.46017" lon="1.48762">
        <ele>246</ele>
        <time>2018-11-17T11:55:52Z</time>
      </trkpt>
      <trkpt lat="43.4602" lon="1.48755">
        <ele>246</ele>
        <time>2018-11-17T11:55:52Z</time>
      </trkpt>
      <trkpt lat="43.46022" lon="1.48752">
        <ele>246</ele>
        <time>2018-11-17T11:55:52Z</time>
      </trkpt>
      <trkpt lat="43.46024" lon="1.48747">
        <ele>246</ele>
        <time>2018-11-17T11:55:52Z</time>
      </trkpt>
      <trkpt lat="43.46028" lon="1.48742">
        <ele>246</ele>
        <time>2018-11-17T11:56:08Z</time>
      </trkpt>
      <trkpt lat="43.46031" lon="1.48738">
        <ele>246</ele>
        <time>2018-11-17T11:56:08Z</time>
      </trkpt>
      <trkpt lat="43.46034" lon="1.48733">
        <ele>246</ele>
        <time>2018-11-17T11:56:08Z</time>
      </trkpt>
      <trkpt lat="43.46037" lon="1.48728">
        <ele>246</ele>
        <time>2018-11-17T11:56:08Z</time>
      </trkpt>
      <trkpt lat="43.4604" lon="1.48723">
        <ele>246</ele>
        <time>2018-11-17T11:56:24Z</time>
      </trkpt>
      <trkpt lat="43.46043" lon="1.48718">
        <ele>237</ele>
        <time>2018-11-17T11:56:24Z</time>
      </trkpt>
      <trkpt lat="43.46046" lon="1.48712">
        <ele>237</ele>
        <time>2018-11-17T11:56:24Z</time>
      </trkpt>
      <trkpt lat="43.4605" lon="1.48708">
        <ele>242</ele>
        <time>2018-11-17T11:56:24Z</time>
      </trkpt>
      <trkpt lat="43.46054" lon="1.48703">
        <ele>242</ele>
        <time>2018-11-17T11:56:40Z</time>
      </trkpt>
      <trkpt lat="43.46057" lon="1.48698">
        <ele>242</ele>
        <time>2018-11-17T11:56:40Z</time>
      </trkpt>
      <trkpt lat="43.46059" lon="1.48692">
        <ele>242</ele>
        <time>2018-11-17T11:56:40Z</time>
      </trkpt>
      <trkpt lat="43.46061" lon="1.48688">
        <ele>242</ele>
        <time>2018-11-17T11:56:40Z</time>
      </trkpt>
      <trkpt lat="43.46064" lon="1.48683">
        <ele>242</ele>
        <time>2018-11-17T11:56:56Z</time>
      </trkpt>
      <trkpt lat="43.46066" lon="1.48677">
        <ele>242</ele>
        <time>2018-11-17T11:56:56Z</time>
      </trkpt>
      <trkpt lat="43.46069" lon="1.48672">
        <ele>242</ele>
        <time>2018-11-17T11:56:56Z</time>
      </trkpt>
      <trkpt lat="43.46072" lon="1.48666">
        <ele>242</ele>
        <time>2018-11-17T11:56:56Z</time>
      </trkpt>
      <trkpt lat="43.46075" lon="1.4866">
        <ele>242</ele>
        <time>2018-11-17T11:57:12Z</time>
      </trkpt>
      <trkpt lat="43.46077" lon="1.48654">
        <ele>242</ele>
        <time>2018-11-17T11:57:12Z</time>
      </trkpt>
      <trkpt lat="43.46079" lon="1.48648">
        <ele>242</ele>
        <time>2018-11-17T11:57:12Z</time>
      </trkpt>
      <trkpt lat="43.46082" lon="1.48642">
        <ele>242</ele>
        <time>2018-11-17T11:57:12Z</time>
      </trkpt>
      <trkpt lat="43.46083" lon="1.48638">
        <ele>242</ele>
        <time>2018-11-17T11:57:28Z</time>
      </trkpt>
      <trkpt lat="43.46084" lon="1.48634">
        <ele>242</ele>
        <time>2018-11-17T11:57:28Z</time>
      </trkpt>
      <trkpt lat="43.46087" lon="1.48629">
        <ele>242</ele>
        <time>2018-11-17T11:57:28Z</time>
      </trkpt>
      <trkpt lat="43.4609" lon="1.48624">
        <ele>240</ele>
        <time>2018-11-17T11:57:28Z</time>
      </trkpt>
      <trkpt lat="43.46094" lon="1.48618">
        <ele>240</ele>
        <time>2018-11-17T11:57:45Z</time>
      </trkpt>
      <trkpt lat="43.46096" lon="1.48612">
        <ele>240</ele>
        <time>2018-11-17T11:57:45Z</time>
      </trkpt>
      <trkpt lat="43.46098" lon="1.48607">
        <ele>240</ele>
        <time>2018-11-17T11:57:45Z</time>
      </trkpt>
      <trkpt lat="43.461" lon="1.486">
        <ele>240</ele>
        <time>2018-11-17T11:57:45Z</time>
      </trkpt>
      <trkpt lat="43.46103" lon="1.48596">
        <ele>240</ele>
        <time>2018-11-17T11:58:00Z</time>
      </trkpt>
      <trkpt lat="43.46104" lon="1.48591">
        <ele>240</ele>
        <time>2018-11-17T11:58:00Z</time>
      </trkpt>
      <trkpt lat="43.46106" lon="1.48587">
        <ele>240</ele>
        <time>2018-11-17T11:58:00Z</time>
      </trkpt>
      <trkpt lat="43.46108" lon="1.48582">
        <ele>240</ele>
        <time>2018-11-17T11:58:00Z</time>
      </trkpt>
      <trkpt lat="43.46111" lon="1.48578">
        <ele>240</ele>
        <time>2018-11-17T11:58:16Z</time>
      </trkpt>
      <trkpt lat="43.46114" lon="1.48573">
        <ele>240</ele>
        <time>2018-11-17T11:58:16Z</time>
      </trkpt>
      <trkpt lat="43.46119" lon="1.48569">
        <ele>240</ele>
        <time>2018-11-17T11:58:16Z</time>
      </trkpt>
      <trkpt lat="43.46122" lon="1.48563">
        <ele>240</ele>
        <time>2018-11-17T11:58:16Z</time>
      </trkpt>
      <trkpt lat="43.46125" lon="1.48559">
        <ele>240</ele>
        <time>2018-11-17T11:58:32Z</time>
      </trkpt>
      <trkpt lat="43.46127" lon="1.48554">
        <ele>234</ele>
        <time>2018-11-17T11:58:32Z</time>
      </trkpt>
      <trkpt lat="43.4613" lon="1.48549">
        <ele>234</ele>
        <time>2018-11-17T11:58:32Z</time>
      </trkpt>
      <trkpt lat="43.46133" lon="1.48544">
        <ele>234</ele>
        <time>2018-11-17T11:58:32Z</time>
      </trkpt>
      <trkpt lat="43.46135" lon="1.48539">
        <ele>230</ele>
        <time>2018-11-17T11:58:48Z</time>
      </trkpt>
      <trkpt lat="43.46138" lon="1.48534">
        <ele>230</ele>
        <time>2018-11-17T11:58:48Z</time>
      </trkpt>
      <trkpt lat="43.46141" lon="1.48528">
        <ele>230</ele>
        <time>2018-11-17T11:58:48Z</time>
      </trkpt>
      <trkpt lat="43.46143" lon="1.48524">
        <ele>230</ele>
        <time>2018-11-17T11:58:48Z</time>
      </trkpt>
      <trkpt lat="43.46146" lon="1.48519">
        <ele>230</ele>
        <time>2018-11-17T11:59:04Z</time>
      </trkpt>
      <trkpt lat="43.46147" lon="1.48514">
        <ele>230</ele>
        <time>2018-11-17T11:59:04Z</time>
      </trkpt>
      <trkpt lat="43.46149" lon="1.48508">
        <ele>230</ele>
        <time>2018-11-17T11:59:04Z</time>
      </trkpt>
      <trkpt lat="43.46152" lon="1.48503">
        <ele>230</ele>
        <time>2018-11-17T11:59:04Z</time>
      </trkpt>
      <trkpt lat="43.46156" lon="1.48498">
        <ele>230</ele>
        <time>2018-11-17T11:59:20Z</time>
      </trkpt>
      <trkpt lat="43.46157" lon="1.48494">
        <ele>230</ele>
        <time>2018-11-17T11:59:20Z</time>
      </trkpt>
      <trkpt lat="43.4616" lon="1.48489">
        <ele>230</ele>
        <time>2018-11-17T11:59:20Z</time>
      </trkpt>
      <trkpt lat="43.46164" lon="1.48484">
        <ele>230</ele>
        <time>2018-11-17T11:59:20Z</time>
      </trkpt>
      <trkpt lat="43.46166" lon="1.48479">
        <ele>230</ele>
        <time>2018-11-17T11:59:36Z</time>
      </trkpt>
      <trkpt lat="43.4617" lon="1.48475">
        <ele>230</ele>
        <time>2018-11-17T11:59:36Z</time>
      </trkpt>
      <trkpt lat="43.46174" lon="1.4847">
        <ele>230</ele>
        <time>2018-11-17T11:59:36Z</time>
      </trkpt>
      <trkpt lat="43.46177" lon="1.48465">
        <ele>230</ele>
        <time>2018-11-17T11:59:36Z</time>
      </trkpt>
      <trkpt lat="43.46181" lon="1.4846">
        <ele>230</ele>
        <time>2018-11-17T11:59:52Z</time>
      </trkpt>
      <trkpt lat="43.46184" lon="1.48455">
        <ele>225</ele>
        <time>2018-11-17T11:59:52Z</time>
      </trkpt>
      <trkpt lat="43.46187" lon="1.4845">
        <ele>225</ele>
        <time>2018-11-17T11:59:52Z</time>
      </trkpt>
      <trkpt lat="43.46191" lon="1.48444">
        <ele>225</ele>
        <time>2018-11-17T11:59:52Z</time>
      </trkpt>
      <trkpt lat="43.46195" lon="1.48439">
        <ele>225</ele>
        <time>2018-11-17T12:00:08Z</time>
      </trkpt>
      <trkpt lat="43.46198" lon="1.48434">
        <ele>225</ele>
        <time>2018-11-17T12:00:08Z</time>
      </trkpt>
      <trkpt lat="43.46202" lon="1.48429">
        <ele>225</ele>
        <time>2018-11-17T12:00:08Z</time>
      </trkpt>
      <trkpt lat="43.46205" lon="1.48424">
        <ele>225</ele>
        <time>2018-11-17T12:00:08Z</time>
      </trkpt>
      <trkpt lat="43.46207" lon="1.48419">
        <ele>225</ele>
        <time>2018-11-17T12:00:24Z</time>
      </trkpt>
      <trkpt lat="43.4621" lon="1.48414">
        <ele>224</ele>
        <time>2018-11-17T12:00:24Z</time>
      </trkpt>
      <trkpt lat="43.46211" lon="1.48408">
        <ele>224</ele>
        <time>2018-11-17T12:00:24Z</time>
      </trkpt>
      <trkpt lat="43.46214" lon="1.48403">
        <ele>224</ele>
        <time>2018-11-17T12:00:24Z</time>
      </trkpt>
      <trkpt lat="43.46217" lon="1.48399">
        <ele>224</ele>
        <time>2018-11-17T12:00:40Z</time>
      </trkpt>
      <trkpt lat="43.46219" lon="1.48393">
        <ele>224</ele>
        <time>2018-11-17T12:00:40Z</time>
      </trkpt>
      <trkpt lat="43.46222" lon="1.48388">
        <ele>224</ele>
        <time>2018-11-17T12:00:40Z</time>
      </trkpt>
      <trkpt lat="43.46225" lon="1.48385">
        <ele>224</ele>
        <time>2018-11-17T12:00:40Z</time>
      </trkpt>
      <trkpt lat="43.4623" lon="1.48383">
        <ele>224</ele>
        <time>2018-11-17T12:00:56Z</time>
      </trkpt>
      <trkpt lat="43.46235" lon="1.48381">
        <ele>224</ele>
        <time>2018-11-17T12:00:56Z</time>
      </trkpt>
      <trkpt lat="43.46239" lon="1.48382">
        <ele>224</ele>
        <time>2018-11-17T12:00:56Z</time>
      </trkpt>
      <trkpt lat="43.46241" lon="1.48381">
        <ele>224</ele>
        <time>2018-11-17T12:00:56Z</time>
      </trkpt>
      <trkpt lat="43.46245" lon="1.48382">
        <ele>224</ele>
        <time>2018-11-17T12:01:12Z</time>
      </trkpt>
      <trkpt lat="43.46249" lon="1.48383">
        <ele>224</ele>
        <time>2018-11-17T12:01:12Z</time>
      </trkpt>
      <trkpt lat="43.46253" lon="1.48383">
        <ele>224</ele>
        <time>2018-11-17T12:01:12Z</time>
      </trkpt>
      <trkpt lat="43.46257" lon="1.48383">
        <ele>224</ele>
        <time>2018-11-17T12:01:12Z</time>
      </trkpt>
      <trkpt lat="43.46262" lon="1.48384">
        <ele>224</ele>
        <time>2018-11-17T12:01:28Z</time>
      </trkpt>
      <trkpt lat="43.46266" lon="1.48385">
        <ele>224</ele>
        <time>2018-11-17T12:01:28Z</time>
      </trkpt>
      <trkpt lat="43.4627" lon="1.48386">
        <ele>224</ele>
        <time>2018-11-17T12:01:28Z</time>
      </trkpt>
      <trkpt lat="43.46274" lon="1.48388">
        <ele>224</ele>
        <time>2018-11-17T12:01:28Z</time>
      </trkpt>
      <trkpt lat="43.46279" lon="1.4839">
        <ele>224</ele>
        <time>2018-11-17T12:01:44Z</time>
      </trkpt>
      <trkpt lat="43.46283" lon="1.4839">
        <ele>224</ele>
        <time>2018-11-17T12:01:44Z</time>
      </trkpt>
      <trkpt lat="43.46288" lon="1.48391">
        <ele>224</ele>
        <time>2018-11-17T12:01:44Z</time>
      </trkpt>
      <trkpt lat="43.46292" lon="1.48394">
        <ele>217</ele>
        <time>2018-11-17T12:01:44Z</time>
      </trkpt>
      <trkpt lat="43.46297" lon="1.48396">
        <ele>217</ele>
        <time>2018-11-17T12:02:00Z</time>
      </trkpt>
      <trkpt lat="43.46301" lon="1.48397">
        <ele>217</ele>
        <time>2018-11-17T12:02:00Z</time>
      </trkpt>
      <trkpt lat="43.46305" lon="1.48399">
        <ele>217</ele>
        <time>2018-11-17T12:02:00Z</time>
      </trkpt>
      <trkpt lat="43.4631" lon="1.484">
        <ele>217</ele>
        <time>2018-11-17T12:02:00Z</time>
      </trkpt>
      <trkpt lat="43.46314" lon="1.48402">
        <ele>217</ele>
        <time>2018-11-17T12:02:16Z</time>
      </trkpt>
      <trkpt lat="43.46319" lon="1.48403">
        <ele>217</ele>
        <time>2018-11-17T12:02:16Z</time>
      </trkpt>
      <trkpt lat="43.46323" lon="1.48405">
        <ele>217</ele>
        <time>2018-11-17T12:02:16Z</time>
      </trkpt>
      <trkpt lat="43.46327" lon="1.48407">
        <ele>217</ele>
        <time>2018-11-17T12:02:16Z</time>
      </trkpt>
      <trkpt lat="43.46331" lon="1.4841">
        <ele>217</ele>
        <time>2018-11-17T12:02:32Z</time>
      </trkpt>
      <trkpt lat="43.46336" lon="1.48412">
        <ele>217</ele>
        <time>2018-11-17T12:02:32Z</time>
      </trkpt>
      <trkpt lat="43.46341" lon="1.48414">
        <ele>217</ele>
        <time>2018-11-17T12:02:32Z</time>
      </trkpt>
      <trkpt lat="43.46346" lon="1.48415">
        <ele>217</ele>
        <time>2018-11-17T12:02:32Z</time>
      </trkpt>
      <trkpt lat="43.46351" lon="1.48416">
        <ele>217</ele>
        <time>2018-11-17T12:02:48Z</time>
      </trkpt>
      <trkpt lat="43.46355" lon="1.48419">
        <ele>217</ele>
        <time>2018-11-17T12:02:48Z</time>
      </trkpt>
      <trkpt lat="43.4636" lon="1.48423">
        <ele>217</ele>
        <time>2018-11-17T12:02:48Z</time>
      </trkpt>
      <trkpt lat="43.46365" lon="1.48427">
        <ele>217</ele>
        <time>2018-11-17T12:02:48Z</time>
      </trkpt>
      <trkpt lat="43.46369" lon="1.48428">
        <ele>217</ele>
        <time>2018-11-17T12:03:04Z</time>
      </trkpt>
      <trkpt lat="43.46373" lon="1.4843">
        <ele>217</ele>
        <time>2018-11-17T12:03:04Z</time>
      </trkpt>
      <trkpt lat="43.46379" lon="1.48431">
        <ele>211</ele>
        <time>2018-11-17T12:03:04Z</time>
      </trkpt>
      <trkpt lat="43.46382" lon="1.48432">
        <ele>211</ele>
        <time>2018-11-17T12:03:04Z</time>
      </trkpt>
      <trkpt lat="43.46386" lon="1.48436">
        <ele>211</ele>
        <time>2018-11-17T12:03:20Z</time>
      </trkpt>
      <trkpt lat="43.4639" lon="1.48442">
        <ele>211</ele>
        <time>2018-11-17T12:03:20Z</time>
      </trkpt>
      <trkpt lat="43.46394" lon="1.48445">
        <ele>211</ele>
        <time>2018-11-17T12:03:20Z</time>
      </trkpt>
      <trkpt lat="43.46399" lon="1.4845">
        <ele>211</ele>
        <time>2018-11-17T12:03:20Z</time>
      </trkpt>
      <trkpt lat="43.46404" lon="1.48454">
        <ele>211</ele>
        <time>2018-11-17T12:03:36Z</time>
      </trkpt>
      <trkpt lat="43.46408" lon="1.48458">
        <ele>207</ele>
        <time>2018-11-17T12:03:36Z</time>
      </trkpt>
      <trkpt lat="43.46411" lon="1.48462">
        <ele>207</ele>
        <time>2018-11-17T12:03:36Z</time>
      </trkpt>
      <trkpt lat="43.46414" lon="1.48469">
        <ele>207</ele>
        <time>2018-11-17T12:03:36Z</time>
      </trkpt>
      <trkpt lat="43.46417" lon="1.48472">
        <ele>207</ele>
        <time>2018-11-17T12:03:52Z</time>
      </trkpt>
      <trkpt lat="43.4642" lon="1.48477">
        <ele>207</ele>
        <time>2018-11-17T12:03:52Z</time>
      </trkpt>
      <trkpt lat="43.46424" lon="1.4848">
        <ele>207</ele>
        <time>2018-11-17T12:03:52Z</time>
      </trkpt>
      <trkpt lat="43.46428" lon="1.48483">
        <ele>207</ele>
        <time>2018-11-17T12:03:52Z</time>
      </trkpt>
      <trkpt lat="43.46433" lon="1.48487">
        <ele>207</ele>
        <time>2018-11-17T12:04:08Z</time>
      </trkpt>
      <trkpt lat="43.46438" lon="1.48487">
        <ele>207</ele>
        <time>2018-11-17T12:04:08Z</time>
      </trkpt>
      <trkpt lat="43.46443" lon="1.48488">
        <ele>207</ele>
        <time>2018-11-17T12:04:08Z</time>
      </trkpt>
      <trkpt lat="43.46447" lon="1.48487">
        <ele>207</ele>
        <time>2018-11-17T12:04:08Z</time>
      </trkpt>
      <trkpt lat="43.46451" lon="1.48485">
        <ele>207</ele>
        <time>2018-11-17T12:04:24Z</time>
      </trkpt>
      <trkpt lat="43.46456" lon="1.48485">
        <ele>207</ele>
        <time>2018-11-17T12:04:24Z</time>
      </trkpt>
      <trkpt lat="43.4646" lon="1.48486">
        <ele>202</ele>
        <time>2018-11-17T12:04:24Z</time>
      </trkpt>
      <trkpt lat="43.46465" lon="1.48485">
        <ele>202</ele>
        <time>2018-11-17T12:04:24Z</time>
      </trkpt>
      <trkpt lat="43.4647" lon="1.48485">
        <ele>202</ele>
        <time>2018-11-17T12:04:40Z</time>
      </trkpt>
      <trkpt lat="43.46474" lon="1.48485">
        <ele>202</ele>
        <time>2018-11-17T12:04:40Z</time>
      </trkpt>
      <trkpt lat="43.46479" lon="1.48485">
        <ele>202</ele>
        <time>2018-11-17T12:04:40Z</time>
      </trkpt>
      <trkpt lat="43.46485" lon="1.48486">
        <ele>202</ele>
        <time>2018-11-17T12:04:40Z</time>
      </trkpt>
      <trkpt lat="43.46491" lon="1.48487">
        <ele>202</ele>
        <time>2018-11-17T12:04:56Z</time>
      </trkpt>
      <trkpt lat="43.46497" lon="1.48488">
        <ele>202</ele>
        <time>2018-11-17T12:04:56Z</time>
      </trkpt>
      <trkpt lat="43.46502" lon="1.48488">
        <ele>202</ele>
        <time>2018-11-17T12:04:56Z</time>
      </trkpt>
      <trkpt lat="43.46507" lon="1.48487">
        <ele>202</ele>
        <time>2018-11-17T12:04:56Z</time>
      </trkpt>
      <trkpt lat="43.46511" lon="1.48486">
        <ele>202</ele>
        <time>2018-11-17T12:05:12Z</time>
      </trkpt>
      <trkpt lat="43.46516" lon="1.48483">
        <ele>202</ele>
        <time>2018-11-17T12:05:12Z</time>
      </trkpt>
      <trkpt lat="43.46521" lon="1.48478">
        <ele>202</ele>
        <time>2018-11-17T12:05:12Z</time>
      </trkpt>
      <trkpt lat="43.46525" lon="1.48474">
        <ele>202</ele>
        <time>2018-11-17T12:05:12Z</time>
      </trkpt>
      <trkpt lat="43.46529" lon="1.4847">
        <ele>202</ele>
        <time>2018-11-17T12:05:28Z</time>
      </trkpt>
      <trkpt lat="43.46529" lon="1.48469">
        <ele>202</ele>
        <time>2018-11-17T12:05:28Z</time>
      </trkpt>
      <trkpt lat="43.46533" lon="1.48466">
        <ele>202</ele>
        <time>2018-11-17T12:05:28Z</time>
      </trkpt>
      <trkpt lat="43.46536" lon="1.48461">
        <ele>202</ele>
        <time>2018-11-17T12:05:28Z</time>
      </trkpt>
      <trkpt lat="43.46539" lon="1.48456">
        <ele>206</ele>
        <time>2018-11-17T12:05:44Z</time>
      </trkpt>
      <trkpt lat="43.46542" lon="1.48452">
        <ele>205</ele>
        <time>2018-11-17T12:05:44Z</time>
      </trkpt>
      <trkpt lat="43.46546" lon="1.48446">
        <ele>205</ele>
        <time>2018-11-17T12:05:44Z</time>
      </trkpt>
      <trkpt lat="43.4655" lon="1.48441">
        <ele>205</ele>
        <time>2018-11-17T12:05:44Z</time>
      </trkpt>
      <trkpt lat="43.46554" lon="1.48436">
        <ele>205</ele>
        <time>2018-11-17T12:06:00Z</time>
      </trkpt>
      <trkpt lat="43.46557" lon="1.48431">
        <ele>205</ele>
        <time>2018-11-17T12:06:00Z</time>
      </trkpt>
      <trkpt lat="43.46561" lon="1.48427">
        <ele>205</ele>
        <time>2018-11-17T12:06:00Z</time>
      </trkpt>
      <trkpt lat="43.46567" lon="1.48423">
        <ele>205</ele>
        <time>2018-11-17T12:06:00Z</time>
      </trkpt>
      <trkpt lat="43.46572" lon="1.48419">
        <ele>205</ele>
        <time>2018-11-17T12:06:16Z</time>
      </trkpt>
      <trkpt lat="43.46577" lon="1.48415">
        <ele>205</ele>
        <time>2018-11-17T12:06:16Z</time>
      </trkpt>
      <trkpt lat="43.46583" lon="1.48411">
        <ele>205</ele>
        <time>2018-11-17T12:06:16Z</time>
      </trkpt>
      <trkpt lat="43.46586" lon="1.48407">
        <ele>205</ele>
        <time>2018-11-17T12:06:16Z</time>
      </trkpt>
      <trkpt lat="43.46591" lon="1.48404">
        <ele>205</ele>
        <time>2018-11-17T12:06:32Z</time>
      </trkpt>
      <trkpt lat="43.46594" lon="1.484">
        <ele>205</ele>
        <time>2018-11-17T12:06:32Z</time>
      </trkpt>
      <trkpt lat="43.46598" lon="1.48397">
        <ele>205</ele>
        <time>2018-11-17T12:06:32Z</time>
      </trkpt>
      <trkpt lat="43.46601" lon="1.48394">
        <ele>205</ele>
        <time>2018-11-17T12:06:32Z</time>
      </trkpt>
      <trkpt lat="43.46606" lon="1.4839">
        <ele>205</ele>
        <time>2018-11-17T12:06:48Z</time>
      </trkpt>
      <trkpt lat="43.46609" lon="1.48388">
        <ele>205</ele>
        <time>2018-11-17T12:06:48Z</time>
      </trkpt>
      <trkpt lat="43.46616" lon="1.48383">
        <ele>205</ele>
        <time>2018-11-17T12:06:48Z</time>
      </trkpt>
      <trkpt lat="43.46618" lon="1.48381">
        <ele>205</ele>
        <time>2018-11-17T12:06:48Z</time>
      </trkpt>
      <trkpt lat="43.46622" lon="1.48379">
        <ele>205</ele>
        <time>2018-11-17T12:07:04Z</time>
      </trkpt>
      <trkpt lat="43.46627" lon="1.48375">
        <ele>203</ele>
        <time>2018-11-17T12:07:04Z</time>
      </trkpt>
      <trkpt lat="43.46631" lon="1.48372">
        <ele>203</ele>
        <time>2018-11-17T12:07:04Z</time>
      </trkpt>
      <trkpt lat="43.46635" lon="1.4837">
        <ele>203</ele>
        <time>2018-11-17T12:07:04Z</time>
      </trkpt>
      <trkpt lat="43.4664" lon="1.48367">
        <ele>203</ele>
        <time>2018-11-17T12:07:20Z</time>
      </trkpt>
      <trkpt lat="43.46644" lon="1.48366">
        <ele>203</ele>
        <time>2018-11-17T12:07:20Z</time>
      </trkpt>
      <trkpt lat="43.46651" lon="1.48363">
        <ele>203</ele>
        <time>2018-11-17T12:07:20Z</time>
      </trkpt>
      <trkpt lat="43.46654" lon="1.48361">
        <ele>203</ele>
        <time>2018-11-17T12:07:20Z</time>
      </trkpt>
      <trkpt lat="43.4666" lon="1.48361">
        <ele>203</ele>
        <time>2018-11-17T12:07:36Z</time>
      </trkpt>
      <trkpt lat="43.46664" lon="1.4836">
        <ele>203</ele>
        <time>2018-11-17T12:07:36Z</time>
      </trkpt>
      <trkpt lat="43.4667" lon="1.48359">
        <ele>203</ele>
        <time>2018-11-17T12:07:36Z</time>
      </trkpt>
      <trkpt lat="43.46677" lon="1.48357">
        <ele>203</ele>
        <time>2018-11-17T12:07:36Z</time>
      </trkpt>
      <trkpt lat="43.46682" lon="1.48356">
        <ele>203</ele>
        <time>2018-11-17T12:07:52Z</time>
      </trkpt>
      <trkpt lat="43.46687" lon="1.48354">
        <ele>203</ele>
        <time>2018-11-17T12:07:52Z</time>
      </trkpt>
      <trkpt lat="43.46691" lon="1.48352">
        <ele>203</ele>
        <time>2018-11-17T12:07:52Z</time>
      </trkpt>
      <trkpt lat="43.46695" lon="1.48353">
        <ele>203</ele>
        <time>2018-11-17T12:07:52Z</time>
      </trkpt>
      <trkpt lat="43.46697" lon="1.48363">
        <ele>203</ele>
        <time>2018-11-17T12:08:28Z</time>
      </trkpt>
      <trkpt lat="43.46697" lon="1.48364">
        <ele>203</ele>
        <time>2018-11-17T12:08:28Z</time>
      </trkpt>
      <trkpt lat="43.46697" lon="1.48367">
        <ele>203</ele>
        <time>2018-11-17T12:08:28Z</time>
      </trkpt>
      <trkpt lat="43.46698" lon="1.48371">
        <ele>203</ele>
        <time>2018-11-17T12:08:28Z</time>
      </trkpt>
      <trkpt lat="43.467" lon="1.48374">
        <ele>203</ele>
        <time>2018-11-17T12:08:28Z</time>
      </trkpt>
      <trkpt lat="43.46703" lon="1.48381">
        <ele>203</ele>
        <time>2018-11-17T12:11:28Z</time>
      </trkpt>
      <trkpt lat="43.46704" lon="1.48381">
        <ele>203</ele>
        <time>2018-11-17T12:11:28Z</time>
      </trkpt>
      <trkpt lat="43.46704" lon="1.48381">
        <ele>203</ele>
        <time>2018-11-17T12:11:28Z</time>
      </trkpt>
      <trkpt lat="43.46705" lon="1.48385">
        <ele>203</ele>
        <time>2018-11-17T12:11:28Z</time>
      </trkpt>
      <trkpt lat="43.46707" lon="1.48386">
        <ele>203</ele>
        <time>2018-11-17T12:11:28Z</time>
      </trkpt>
      <trkpt lat="43.46707" lon="1.48385">
        <ele>203</ele>
        <time>2018-11-17T12:11:44Z</time>
      </trkpt>
      <trkpt lat="43.46709" lon="1.48388">
        <ele>203</ele>
        <time>2018-11-17T12:11:44Z</time>
      </trkpt>
      <trkpt lat="43.46711" lon="1.48393">
        <ele>203</ele>
        <time>2018-11-17T12:11:44Z</time>
      </trkpt>
      <trkpt lat="43.46713" lon="1.48399">
        <ele>203</ele>
        <time>2018-11-17T12:11:44Z</time>
      </trkpt>
      <trkpt lat="43.46714" lon="1.48403">
        <ele>203</ele>
        <time>2018-11-17T12:12:00Z</time>
      </trkpt>
      <trkpt lat="43.46716" lon="1.48409">
        <ele>203</ele>
        <time>2018-11-17T12:12:00Z</time>
      </trkpt>
      <trkpt lat="43.46719" lon="1.48415">
        <ele>203</ele>
        <time>2018-11-17T12:12:00Z</time>
      </trkpt>
      <trkpt lat="43.46721" lon="1.4842">
        <ele>203</ele>
        <time>2018-11-17T12:12:00Z</time>
      </trkpt>
      <trkpt lat="43.46723" lon="1.48425">
        <ele>203</ele>
        <time>2018-11-17T12:12:16Z</time>
      </trkpt>
      <trkpt lat="43.46725" lon="1.4843">
        <ele>203</ele>
        <time>2018-11-17T12:12:16Z</time>
      </trkpt>
      <trkpt lat="43.46726" lon="1.48437">
        <ele>203</ele>
        <time>2018-11-17T12:12:16Z</time>
      </trkpt>
      <trkpt lat="43.46727" lon="1.48443">
        <ele>203</ele>
        <time>2018-11-17T12:12:16Z</time>
      </trkpt>
      <trkpt lat="43.46727" lon="1.4845">
        <ele>203</ele>
        <time>2018-11-17T12:12:32Z</time>
      </trkpt>
      <trkpt lat="43.46726" lon="1.48456">
        <ele>203</ele>
        <time>2018-11-17T12:12:32Z</time>
      </trkpt>
      <trkpt lat="43.46725" lon="1.48462">
        <ele>210</ele>
        <time>2018-11-17T12:12:32Z</time>
      </trkpt>
      <trkpt lat="43.46723" lon="1.48469">
        <ele>210</ele>
        <time>2018-11-17T12:12:32Z</time>
      </trkpt>
      <trkpt lat="43.4672" lon="1.48475">
        <ele>210</ele>
        <time>2018-11-17T12:12:48Z</time>
      </trkpt>
      <trkpt lat="43.46719" lon="1.4848">
        <ele>210</ele>
        <time>2018-11-17T12:12:48Z</time>
      </trkpt>
      <trkpt lat="43.46717" lon="1.48486">
        <ele>210</ele>
        <time>2018-11-17T12:12:48Z</time>
      </trkpt>
      <trkpt lat="43.46715" lon="1.48492">
        <ele>210</ele>
        <time>2018-11-17T12:12:48Z</time>
      </trkpt>
      <trkpt lat="43.46714" lon="1.48499">
        <ele>210</ele>
        <time>2018-11-17T12:13:04Z</time>
      </trkpt>
      <trkpt lat="43.46713" lon="1.48503">
        <ele>210</ele>
        <time>2018-11-17T12:13:04Z</time>
      </trkpt>
      <trkpt lat="43.4671" lon="1.4851">
        <ele>210</ele>
        <time>2018-11-17T12:13:04Z</time>
      </trkpt>
      <trkpt lat="43.46708" lon="1.48514">
        <ele>206</ele>
        <time>2018-11-17T12:13:04Z</time>
      </trkpt>
      <trkpt lat="43.46707" lon="1.48519">
        <ele>206</ele>
        <time>2018-11-17T12:13:20Z</time>
      </trkpt>
      <trkpt lat="43.46705" lon="1.48525">
        <ele>206</ele>
        <time>2018-11-17T12:13:20Z</time>
      </trkpt>
      <trkpt lat="43.46704" lon="1.48531">
        <ele>206</ele>
        <time>2018-11-17T12:13:20Z</time>
      </trkpt>
      <trkpt lat="43.46702" lon="1.48538">
        <ele>206</ele>
        <time>2018-11-17T12:13:20Z</time>
      </trkpt>
      <trkpt lat="43.467" lon="1.48545">
        <ele>211</ele>
        <time>2018-11-17T12:13:36Z</time>
      </trkpt>
      <trkpt lat="43.46698" lon="1.48551">
        <ele>211</ele>
        <time>2018-11-17T12:13:36Z</time>
      </trkpt>
      <trkpt lat="43.46697" lon="1.48556">
        <ele>211</ele>
        <time>2018-11-17T12:13:36Z</time>
      </trkpt>
      <trkpt lat="43.46695" lon="1.48561">
        <ele>211</ele>
        <time>2018-11-17T12:13:36Z</time>
      </trkpt>
      <trkpt lat="43.46695" lon="1.48566">
        <ele>211</ele>
        <time>2018-11-17T12:13:52Z</time>
      </trkpt>
      <trkpt lat="43.46693" lon="1.48572">
        <ele>211</ele>
        <time>2018-11-17T12:13:52Z</time>
      </trkpt>
      <trkpt lat="43.46692" lon="1.48578">
        <ele>211</ele>
        <time>2018-11-17T12:13:52Z</time>
      </trkpt>
      <trkpt lat="43.4669" lon="1.48584">
        <ele>211</ele>
        <time>2018-11-17T12:13:52Z</time>
      </trkpt>
      <trkpt lat="43.4669" lon="1.48584">
        <ele>211</ele>
        <time>2018-11-17T12:14:08Z</time>
      </trkpt>
      <trkpt lat="43.46688" lon="1.48588">
        <ele>211</ele>
        <time>2018-11-17T12:14:08Z</time>
      </trkpt>
      <trkpt lat="43.46684" lon="1.48593">
        <ele>211</ele>
        <time>2018-11-17T12:14:08Z</time>
      </trkpt>
      <trkpt lat="43.46681" lon="1.48598">
        <ele>211</ele>
        <time>2018-11-17T12:14:08Z</time>
      </trkpt>
      <trkpt lat="43.46678" lon="1.48604">
        <ele>211</ele>
        <time>2018-11-17T12:14:24Z</time>
      </trkpt>
      <trkpt lat="43.46674" lon="1.48609">
        <ele>211</ele>
        <time>2018-11-17T12:14:24Z</time>
      </trkpt>
      <trkpt lat="43.4667" lon="1.48615">
        <ele>211</ele>
        <time>2018-11-17T12:14:24Z</time>
      </trkpt>
      <trkpt lat="43.46666" lon="1.4862">
        <ele>211</ele>
        <time>2018-11-17T12:14:24Z</time>
      </trkpt>
      <trkpt lat="43.46664" lon="1.48627">
        <ele>219</ele>
        <time>2018-11-17T12:14:40Z</time>
      </trkpt>
      <trkpt lat="43.46664" lon="1.48631">
        <ele>219</ele>
        <time>2018-11-17T12:14:40Z</time>
      </trkpt>
      <trkpt lat="43.46663" lon="1.48637">
        <ele>219</ele>
        <time>2018-11-17T12:14:40Z</time>
      </trkpt>
      <trkpt lat="43.4666" lon="1.48644">
        <ele>219</ele>
        <time>2018-11-17T12:14:40Z</time>
      </trkpt>
      <trkpt lat="43.46659" lon="1.48651">
        <ele>219</ele>
        <time>2018-11-17T12:14:56Z</time>
      </trkpt>
      <trkpt lat="43.46658" lon="1.48658">
        <ele>219</ele>
        <time>2018-11-17T12:14:56Z</time>
      </trkpt>
      <trkpt lat="43.46659" lon="1.48663">
        <ele>219</ele>
        <time>2018-11-17T12:14:56Z</time>
      </trkpt>
      <trkpt lat="43.46659" lon="1.48668">
        <ele>219</ele>
        <time>2018-11-17T12:14:56Z</time>
      </trkpt>
      <trkpt lat="43.46663" lon="1.48676">
        <ele>219</ele>
        <time>2018-11-17T12:15:32Z</time>
      </trkpt>
      <trkpt lat="43.46662" lon="1.48678">
        <ele>219</ele>
        <time>2018-11-17T12:15:32Z</time>
      </trkpt>
      <trkpt lat="43.46662" lon="1.48682">
        <ele>219</ele>
        <time>2018-11-17T12:15:32Z</time>
      </trkpt>
      <trkpt lat="43.46661" lon="1.48683">
        <ele>219</ele>
        <time>2018-11-17T12:15:32Z</time>
      </trkpt>
      <trkpt lat="43.46661" lon="1.48686">
        <ele>219</ele>
        <time>2018-11-17T12:15:32Z</time>
      </trkpt>
      <trkpt lat="43.4666" lon="1.48694">
        <ele>219</ele>
        <time>2018-11-17T12:15:48Z</time>
      </trkpt>
      <trkpt lat="43.4666" lon="1.48705">
        <ele>219</ele>
        <time>2018-11-17T12:15:48Z</time>
      </trkpt>
      <trkpt lat="43.46661" lon="1.48712">
        <ele>225</ele>
        <time>2018-11-17T12:15:48Z</time>
      </trkpt>
      <trkpt lat="43.46661" lon="1.48719">
        <ele>225</ele>
        <time>2018-11-17T12:15:48Z</time>
      </trkpt>
      <trkpt lat="43.46661" lon="1.48724">
        <ele>225</ele>
        <time>2018-11-17T12:16:04Z</time>
      </trkpt>
      <trkpt lat="43.46662" lon="1.48729">
        <ele>225</ele>
        <time>2018-11-17T12:16:04Z</time>
      </trkpt>
      <trkpt lat="43.46661" lon="1.48734">
        <ele>225</ele>
        <time>2018-11-17T12:16:04Z</time>
      </trkpt>
      <trkpt lat="43.46662" lon="1.48739">
        <ele>225</ele>
        <time>2018-11-17T12:16:04Z</time>
      </trkpt>
      <trkpt lat="43.46661" lon="1.48744">
        <ele>225</ele>
        <time>2018-11-17T12:16:20Z</time>
      </trkpt>
      <trkpt lat="43.4666" lon="1.48751">
        <ele>225</ele>
        <time>2018-11-17T12:16:20Z</time>
      </trkpt>
      <trkpt lat="43.4666" lon="1.48758">
        <ele>225</ele>
        <time>2018-11-17T12:16:20Z</time>
      </trkpt>
      <trkpt lat="43.46661" lon="1.48765">
        <ele>225</ele>
        <time>2018-11-17T12:16:20Z</time>
      </trkpt>
      <trkpt lat="43.46662" lon="1.4877">
        <ele>225</ele>
        <time>2018-11-17T12:16:40Z</time>
      </trkpt>
      <trkpt lat="43.46661" lon="1.48774">
        <ele>225</ele>
        <time>2018-11-17T12:16:40Z</time>
      </trkpt>
      <trkpt lat="43.4666" lon="1.48777">
        <ele>225</ele>
        <time>2018-11-17T12:16:40Z</time>
      </trkpt>
      <trkpt lat="43.4666" lon="1.48782">
        <ele>225</ele>
        <time>2018-11-17T12:16:40Z</time>
      </trkpt>
      <trkpt lat="43.46661" lon="1.48787">
        <ele>225</ele>
        <time>2018-11-17T12:16:40Z</time>
      </trkpt>
      <trkpt lat="43.4666" lon="1.48794">
        <ele>231</ele>
        <time>2018-11-17T12:16:56Z</time>
      </trkpt>
      <trkpt lat="43.46658" lon="1.48803">
        <ele>231</ele>
        <time>2018-11-17T12:16:56Z</time>
      </trkpt>
      <trkpt lat="43.46657" lon="1.48808">
        <ele>231</ele>
        <time>2018-11-17T12:16:56Z</time>
      </trkpt>
      <trkpt lat="43.46655" lon="1.48816">
        <ele>231</ele>
        <time>2018-11-17T12:16:56Z</time>
      </trkpt>
      <trkpt lat="43.46653" lon="1.48825">
        <ele>231</ele>
        <time>2018-11-17T12:17:12Z</time>
      </trkpt>
      <trkpt lat="43.46652" lon="1.48832">
        <ele>231</ele>
        <time>2018-11-17T12:17:12Z</time>
      </trkpt>
      <trkpt lat="43.46652" lon="1.48837">
        <ele>231</ele>
        <time>2018-11-17T12:17:12Z</time>
      </trkpt>
      <trkpt lat="43.46649" lon="1.48845">
        <ele>231</ele>
        <time>2018-11-17T12:17:12Z</time>
      </trkpt>
      <trkpt lat="43.46648" lon="1.48851">
        <ele>231</ele>
        <time>2018-11-17T12:17:28Z</time>
      </trkpt>
      <trkpt lat="43.46648" lon="1.48857">
        <ele>231</ele>
        <time>2018-11-17T12:17:28Z</time>
      </trkpt>
      <trkpt lat="43.46648" lon="1.48861">
        <ele>231</ele>
        <time>2018-11-17T12:17:28Z</time>
      </trkpt>
      <trkpt lat="43.46646" lon="1.48867">
        <ele>231</ele>
        <time>2018-11-17T12:17:28Z</time>
      </trkpt>
      <trkpt lat="43.46644" lon="1.48874">
        <ele>231</ele>
        <time>2018-11-17T12:17:44Z</time>
      </trkpt>
      <trkpt lat="43.46642" lon="1.48878">
        <ele>241</ele>
        <time>2018-11-17T12:17:44Z</time>
      </trkpt>
      <trkpt lat="43.46641" lon="1.48883">
        <ele>241</ele>
        <time>2018-11-17T12:17:44Z</time>
      </trkpt>
      <trkpt lat="43.4664" lon="1.48885">
        <ele>241</ele>
        <time>2018-11-17T12:17:44Z</time>
      </trkpt>
      <trkpt lat="43.46638" lon="1.48889">
        <ele>241</ele>
        <time>2018-11-17T12:18:00Z</time>
      </trkpt>
      <trkpt lat="43.46637" lon="1.48892">
        <ele>241</ele>
        <time>2018-11-17T12:18:00Z</time>
      </trkpt>
      <trkpt lat="43.46636" lon="1.48897">
        <ele>241</ele>
        <time>2018-11-17T12:18:00Z</time>
      </trkpt>
      <trkpt lat="43.46634" lon="1.48902">
        <ele>241</ele>
        <time>2018-11-17T12:18:00Z</time>
      </trkpt>
      <trkpt lat="43.46633" lon="1.48907">
        <ele>241</ele>
        <time>2018-11-17T12:18:16Z</time>
      </trkpt>
      <trkpt lat="43.46633" lon="1.48913">
        <ele>241</ele>
        <time>2018-11-17T12:18:16Z</time>
      </trkpt>
      <trkpt lat="43.46631" lon="1.48918">
        <ele>241</ele>
        <time>2018-11-17T12:18:16Z</time>
      </trkpt>
      <trkpt lat="43.46629" lon="1.48923">
        <ele>241</ele>
        <time>2018-11-17T12:18:16Z</time>
      </trkpt>
      <trkpt lat="43.46625" lon="1.48929">
        <ele>241</ele>
        <time>2018-11-17T12:18:32Z</time>
      </trkpt>
      <trkpt lat="43.46625" lon="1.48933">
        <ele>236</ele>
        <time>2018-11-17T12:18:32Z</time>
      </trkpt>
      <trkpt lat="43.46623" lon="1.4894">
        <ele>236</ele>
        <time>2018-11-17T12:18:32Z</time>
      </trkpt>
      <trkpt lat="43.46623" lon="1.48944">
        <ele>236</ele>
        <time>2018-11-17T12:18:32Z</time>
      </trkpt>
      <trkpt lat="43.46622" lon="1.48948">
        <ele>236</ele>
        <time>2018-11-17T12:18:48Z</time>
      </trkpt>
      <trkpt lat="43.46621" lon="1.48953">
        <ele>236</ele>
        <time>2018-11-17T12:18:48Z</time>
      </trkpt>
      <trkpt lat="43.4662" lon="1.48958">
        <ele>244</ele>
        <time>2018-11-17T12:18:48Z</time>
      </trkpt>
      <trkpt lat="43.46619" lon="1.48964">
        <ele>244</ele>
        <time>2018-11-17T12:18:48Z</time>
      </trkpt>
      <trkpt lat="43.46618" lon="1.4897">
        <ele>244</ele>
        <time>2018-11-17T12:19:04Z</time>
      </trkpt>
      <trkpt lat="43.46617" lon="1.48977">
        <ele>244</ele>
        <time>2018-11-17T12:19:04Z</time>
      </trkpt>
      <trkpt lat="43.46616" lon="1.48983">
        <ele>244</ele>
        <time>2018-11-17T12:19:04Z</time>
      </trkpt>
      <trkpt lat="43.46615" lon="1.48987">
        <ele>244</ele>
        <time>2018-11-17T12:19:04Z</time>
      </trkpt>
      <trkpt lat="43.46616" lon="1.48993">
        <ele>244</ele>
        <time>2018-11-17T12:19:20Z</time>
      </trkpt>
      <trkpt lat="43.46616" lon="1.48998">
        <ele>244</ele>
        <time>2018-11-17T12:19:20Z</time>
      </trkpt>
      <trkpt lat="43.46617" lon="1.49002">
        <ele>244</ele>
        <time>2018-11-17T12:19:20Z</time>
      </trkpt>
      <trkpt lat="43.46621" lon="1.49004">
        <ele>244</ele>
        <time>2018-11-17T12:19:20Z</time>
      </trkpt>
      <trkpt lat="43.46624" lon="1.49007">
        <ele>244</ele>
        <time>2018-11-17T12:19:36Z</time>
      </trkpt>
      <trkpt lat="43.46628" lon="1.49007">
        <ele>248</ele>
        <time>2018-11-17T12:19:36Z</time>
      </trkpt>
      <trkpt lat="43.46632" lon="1.49008">
        <ele>248</ele>
        <time>2018-11-17T12:19:36Z</time>
      </trkpt>
      <trkpt lat="43.46636" lon="1.49008">
        <ele>248</ele>
        <time>2018-11-17T12:19:36Z</time>
      </trkpt>
      <trkpt lat="43.4664" lon="1.49008">
        <ele>248</ele>
        <time>2018-11-17T12:19:52Z</time>
      </trkpt>
      <trkpt lat="43.46644" lon="1.49006">
        <ele>248</ele>
        <time>2018-11-17T12:19:52Z</time>
      </trkpt>
      <trkpt lat="43.46649" lon="1.49005">
        <ele>248</ele>
        <time>2018-11-17T12:19:52Z</time>
      </trkpt>
      <trkpt lat="43.46654" lon="1.49003">
        <ele>248</ele>
        <time>2018-11-17T12:19:52Z</time>
      </trkpt>
      <trkpt lat="43.46659" lon="1.49">
        <ele>248</ele>
        <time>2018-11-17T12:20:08Z</time>
      </trkpt>
      <trkpt lat="43.46662" lon="1.48998">
        <ele>248</ele>
        <time>2018-11-17T12:20:08Z</time>
      </trkpt>
      <trkpt lat="43.46667" lon="1.48995">
        <ele>248</ele>
        <time>2018-11-17T12:20:08Z</time>
      </trkpt>
      <trkpt lat="43.4667" lon="1.4899">
        <ele>248</ele>
        <time>2018-11-17T12:20:08Z</time>
      </trkpt>
      <trkpt lat="43.46673" lon="1.48987">
        <ele>248</ele>
        <time>2018-11-17T12:20:24Z</time>
      </trkpt>
      <trkpt lat="43.46677" lon="1.48984">
        <ele>248</ele>
        <time>2018-11-17T12:20:24Z</time>
      </trkpt>
      <trkpt lat="43.46681" lon="1.48981">
        <ele>248</ele>
        <time>2018-11-17T12:20:24Z</time>
      </trkpt>
      <trkpt lat="43.46685" lon="1.48979">
        <ele>248</ele>
        <time>2018-11-17T12:20:24Z</time>
      </trkpt>
      <trkpt lat="43.46688" lon="1.48976">
        <ele>248</ele>
        <time>2018-11-17T12:20:40Z</time>
      </trkpt>
      <trkpt lat="43.46691" lon="1.48975">
        <ele>248</ele>
        <time>2018-11-17T12:20:40Z</time>
      </trkpt>
      <trkpt lat="43.46694" lon="1.48979">
        <ele>248</ele>
        <time>2018-11-17T12:20:40Z</time>
      </trkpt>
      <trkpt lat="43.46699" lon="1.48982">
        <ele>248</ele>
        <time>2018-11-17T12:20:40Z</time>
      </trkpt>
      <trkpt lat="43.46704" lon="1.48983">
        <ele>248</ele>
        <time>2018-11-17T12:20:56Z</time>
      </trkpt>
      <trkpt lat="43.46708" lon="1.48984">
        <ele>247</ele>
        <time>2018-11-17T12:20:56Z</time>
      </trkpt>
      <trkpt lat="43.46713" lon="1.48985">
        <ele>247</ele>
        <time>2018-11-17T12:20:56Z</time>
      </trkpt>
      <trkpt lat="43.46717" lon="1.48985">
        <ele>247</ele>
        <time>2018-11-17T12:20:56Z</time>
      </trkpt>
      <trkpt lat="43.46721" lon="1.48985">
        <ele>247</ele>
        <time>2018-11-17T12:21:12Z</time>
      </trkpt>
      <trkpt lat="43.46725" lon="1.48982">
        <ele>247</ele>
        <time>2018-11-17T12:21:12Z</time>
      </trkpt>
      <trkpt lat="43.46729" lon="1.48981">
        <ele>247</ele>
        <time>2018-11-17T12:21:12Z</time>
      </trkpt>
      <trkpt lat="43.46732" lon="1.48981">
        <ele>247</ele>
        <time>2018-11-17T12:21:12Z</time>
      </trkpt>
      <trkpt lat="43.46736" lon="1.48979">
        <ele>247</ele>
        <time>2018-11-17T12:21:28Z</time>
      </trkpt>
      <trkpt lat="43.4674" lon="1.48979">
        <ele>247</ele>
        <time>2018-11-17T12:21:28Z</time>
      </trkpt>
      <trkpt lat="43.46744" lon="1.48979">
        <ele>247</ele>
        <time>2018-11-17T12:21:28Z</time>
      </trkpt>
      <trkpt lat="43.46748" lon="1.48981">
        <ele>247</ele>
        <time>2018-11-17T12:21:28Z</time>
      </trkpt>
      <trkpt lat="43.46751" lon="1.48984">
        <ele>247</ele>
        <time>2018-11-17T12:21:44Z</time>
      </trkpt>
      <trkpt lat="43.46755" lon="1.48985">
        <ele>247</ele>
        <time>2018-11-17T12:21:44Z</time>
      </trkpt>
      <trkpt lat="43.46759" lon="1.4899">
        <ele>247</ele>
        <time>2018-11-17T12:21:44Z</time>
      </trkpt>
      <trkpt lat="43.46763" lon="1.48993">
        <ele>247</ele>
        <time>2018-11-17T12:21:44Z</time>
      </trkpt>
      <trkpt lat="43.46767" lon="1.48996">
        <ele>247</ele>
        <time>2018-11-17T12:22:00Z</time>
      </trkpt>
      <trkpt lat="43.4677" lon="1.48999">
        <ele>247</ele>
        <time>2018-11-17T12:22:00Z</time>
      </trkpt>
      <trkpt lat="43.46774" lon="1.49">
        <ele>247</ele>
        <time>2018-11-17T12:22:00Z</time>
      </trkpt>
      <trkpt lat="43.46777" lon="1.49003">
        <ele>247</ele>
        <time>2018-11-17T12:22:00Z</time>
      </trkpt>
      <trkpt lat="43.46781" lon="1.49004">
        <ele>247</ele>
        <time>2018-11-17T12:22:16Z</time>
      </trkpt>
      <trkpt lat="43.46784" lon="1.49005">
        <ele>247</ele>
        <time>2018-11-17T12:22:16Z</time>
      </trkpt>
      <trkpt lat="43.46787" lon="1.49006">
        <ele>247</ele>
        <time>2018-11-17T12:22:16Z</time>
      </trkpt>
      <trkpt lat="43.46789" lon="1.49009">
        <ele>247</ele>
        <time>2018-11-17T12:22:16Z</time>
      </trkpt>
      <trkpt lat="43.46792" lon="1.49011">
        <ele>233</ele>
        <time>2018-11-17T12:22:32Z</time>
      </trkpt>
      <trkpt lat="43.46796" lon="1.49013">
        <ele>233</ele>
        <time>2018-11-17T12:22:32Z</time>
      </trkpt>
      <trkpt lat="43.46799" lon="1.49014">
        <ele>233</ele>
        <time>2018-11-17T12:22:32Z</time>
      </trkpt>
      <trkpt lat="43.46803" lon="1.49016">
        <ele>233</ele>
        <time>2018-11-17T12:22:32Z</time>
      </trkpt>
      <trkpt lat="43.46806" lon="1.49017">
        <ele>233</ele>
        <time>2018-11-17T12:22:48Z</time>
      </trkpt>
      <trkpt lat="43.4681" lon="1.49018">
        <ele>233</ele>
        <time>2018-11-17T12:22:48Z</time>
      </trkpt>
      <trkpt lat="43.46814" lon="1.49018">
        <ele>233</ele>
        <time>2018-11-17T12:22:48Z</time>
      </trkpt>
      <trkpt lat="43.46817" lon="1.4902">
        <ele>233</ele>
        <time>2018-11-17T12:22:48Z</time>
      </trkpt>
      <trkpt lat="43.46821" lon="1.49023">
        <ele>233</ele>
        <time>2018-11-17T12:23:04Z</time>
      </trkpt>
      <trkpt lat="43.46823" lon="1.49025">
        <ele>233</ele>
        <time>2018-11-17T12:23:04Z</time>
      </trkpt>
      <trkpt lat="43.46827" lon="1.49026">
        <ele>233</ele>
        <time>2018-11-17T12:23:04Z</time>
      </trkpt>
      <trkpt lat="43.4683" lon="1.49028">
        <ele>233</ele>
        <time>2018-11-17T12:23:04Z</time>
      </trkpt>
      <trkpt lat="43.46834" lon="1.49031">
        <ele>233</ele>
        <time>2018-11-17T12:23:20Z</time>
      </trkpt>
      <trkpt lat="43.46837" lon="1.49032">
        <ele>233</ele>
        <time>2018-11-17T12:23:20Z</time>
      </trkpt>
      <trkpt lat="43.46841" lon="1.49036">
        <ele>233</ele>
        <time>2018-11-17T12:23:20Z</time>
      </trkpt>
      <trkpt lat="43.46844" lon="1.49038">
        <ele>233</ele>
        <time>2018-11-17T12:23:20Z</time>
      </trkpt>
      <trkpt lat="43.46848" lon="1.4904">
        <ele>233</ele>
        <time>2018-11-17T12:23:36Z</time>
      </trkpt>
      <trkpt lat="43.46851" lon="1.49042">
        <ele>230</ele>
        <time>2018-11-17T12:23:36Z</time>
      </trkpt>
      <trkpt lat="43.46855" lon="1.49044">
        <ele>230</ele>
        <time>2018-11-17T12:23:36Z</time>
      </trkpt>
      <trkpt lat="43.46858" lon="1.49046">
        <ele>230</ele>
        <time>2018-11-17T12:23:36Z</time>
      </trkpt>
      <trkpt lat="43.46863" lon="1.49048">
        <ele>230</ele>
        <time>2018-11-17T12:23:52Z</time>
      </trkpt>
      <trkpt lat="43.46867" lon="1.4905">
        <ele>230</ele>
        <time>2018-11-17T12:23:52Z</time>
      </trkpt>
      <trkpt lat="43.4687" lon="1.49053">
        <ele>230</ele>
        <time>2018-11-17T12:23:52Z</time>
      </trkpt>
      <trkpt lat="43.46874" lon="1.49056">
        <ele>230</ele>
        <time>2018-11-17T12:23:52Z</time>
      </trkpt>
      <trkpt lat="43.46878" lon="1.49059">
        <ele>222</ele>
        <time>2018-11-17T12:24:08Z</time>
      </trkpt>
      <trkpt lat="43.46882" lon="1.4906">
        <ele>222</ele>
        <time>2018-11-17T12:24:08Z</time>
      </trkpt>
      <trkpt lat="43.46887" lon="1.49064">
        <ele>222</ele>
        <time>2018-11-17T12:24:08Z</time>
      </trkpt>
      <trkpt lat="43.46891" lon="1.49064">
        <ele>222</ele>
        <time>2018-11-17T12:24:08Z</time>
      </trkpt>
      <trkpt lat="43.46896" lon="1.49066">
        <ele>222</ele>
        <time>2018-11-17T12:24:24Z</time>
      </trkpt>
      <trkpt lat="43.469" lon="1.49068">
        <ele>222</ele>
        <time>2018-11-17T12:24:24Z</time>
      </trkpt>
      <trkpt lat="43.46903" lon="1.4907">
        <ele>222</ele>
        <time>2018-11-17T12:24:24Z</time>
      </trkpt>
      <trkpt lat="43.46907" lon="1.49071">
        <ele>222</ele>
        <time>2018-11-17T12:24:24Z</time>
      </trkpt>
      <trkpt lat="43.46912" lon="1.4907">
        <ele>222</ele>
        <time>2018-11-17T12:24:40Z</time>
      </trkpt>
      <trkpt lat="43.46916" lon="1.49072">
        <ele>222</ele>
        <time>2018-11-17T12:24:40Z</time>
      </trkpt>
      <trkpt lat="43.4692" lon="1.49073">
        <ele>222</ele>
        <time>2018-11-17T12:24:40Z</time>
      </trkpt>
      <trkpt lat="43.46924" lon="1.49074">
        <ele>222</ele>
        <time>2018-11-17T12:24:40Z</time>
      </trkpt>
      <trkpt lat="43.46928" lon="1.49073">
        <ele>222</ele>
        <time>2018-11-17T12:24:56Z</time>
      </trkpt>
      <trkpt lat="43.46932" lon="1.49071">
        <ele>222</ele>
        <time>2018-11-17T12:24:56Z</time>
      </trkpt>
      <trkpt lat="43.46937" lon="1.49072">
        <ele>222</ele>
        <time>2018-11-17T12:24:56Z</time>
      </trkpt>
      <trkpt lat="43.46941" lon="1.49071">
        <ele>222</ele>
        <time>2018-11-17T12:24:56Z</time>
      </trkpt>
      <trkpt lat="43.46945" lon="1.4907">
        <ele>222</ele>
        <time>2018-11-17T12:25:12Z</time>
      </trkpt>
      <trkpt lat="43.46949" lon="1.49068">
        <ele>222</ele>
        <time>2018-11-17T12:25:12Z</time>
      </trkpt>
      <trkpt lat="43.46953" lon="1.49066">
        <ele>222</ele>
        <time>2018-11-17T12:25:12Z</time>
      </trkpt>
      <trkpt lat="43.46957" lon="1.49071">
        <ele>222</ele>
        <time>2018-11-17T12:25:12Z</time>
      </trkpt>
      <trkpt lat="43.46961" lon="1.49071">
        <ele>218</ele>
        <time>2018-11-17T12:25:28Z</time>
      </trkpt>
      <trkpt lat="43.46964" lon="1.4907">
        <ele>218</ele>
        <time>2018-11-17T12:25:28Z</time>
      </trkpt>
      <trkpt lat="43.46968" lon="1.4907">
        <ele>218</ele>
        <time>2018-11-17T12:25:28Z</time>
      </trkpt>
      <trkpt lat="43.46972" lon="1.4907">
        <ele>218</ele>
        <time>2018-11-17T12:25:28Z</time>
      </trkpt>
      <trkpt lat="43.46976" lon="1.49072">
        <ele>218</ele>
        <time>2018-11-17T12:25:44Z</time>
      </trkpt>
      <trkpt lat="43.46981" lon="1.49074">
        <ele>218</ele>
        <time>2018-11-17T12:25:44Z</time>
      </trkpt>
      <trkpt lat="43.46986" lon="1.49073">
        <ele>218</ele>
        <time>2018-11-17T12:25:44Z</time>
      </trkpt>
      <trkpt lat="43.4699" lon="1.49074">
        <ele>218</ele>
        <time>2018-11-17T12:25:44Z</time>
      </trkpt>
      <trkpt lat="43.46994" lon="1.49076">
        <ele>218</ele>
        <time>2018-11-17T12:26:00Z</time>
      </trkpt>
      <trkpt lat="43.46998" lon="1.49076">
        <ele>218</ele>
        <time>2018-11-17T12:26:00Z</time>
      </trkpt>
      <trkpt lat="43.47002" lon="1.49076">
        <ele>218</ele>
        <time>2018-11-17T12:26:00Z</time>
      </trkpt>
      <trkpt lat="43.47006" lon="1.49077">
        <ele>218</ele>
        <time>2018-11-17T12:26:00Z</time>
      </trkpt>
      <trkpt lat="43.47011" lon="1.49075">
        <ele>218</ele>
        <time>2018-11-17T12:26:16Z</time>
      </trkpt>
      <trkpt lat="43.47016" lon="1.49072">
        <ele>218</ele>
        <time>2018-11-17T12:26:16Z</time>
      </trkpt>
      <trkpt lat="43.47021" lon="1.49072">
        <ele>218</ele>
        <time>2018-11-17T12:26:16Z</time>
      </trkpt>
      <trkpt lat="43.47024" lon="1.49073">
        <ele>218</ele>
        <time>2018-11-17T12:26:16Z</time>
      </trkpt>
      <trkpt lat="43.47028" lon="1.49073">
        <ele>218</ele>
        <time>2018-11-17T12:26:32Z</time>
      </trkpt>
      <trkpt lat="43.47032" lon="1.49074">
        <ele>218</ele>
        <time>2018-11-17T12:26:32Z</time>
      </trkpt>
      <trkpt lat="43.47037" lon="1.49076">
        <ele>218</ele>
        <time>2018-11-17T12:26:32Z</time>
      </trkpt>
      <trkpt lat="43.47041" lon="1.49074">
        <ele>218</ele>
        <time>2018-11-17T12:26:32Z</time>
      </trkpt>
      <trkpt lat="43.47045" lon="1.49073">
        <ele>212</ele>
        <time>2018-11-17T12:26:48Z</time>
      </trkpt>
      <trkpt lat="43.47049" lon="1.49074">
        <ele>212</ele>
        <time>2018-11-17T12:26:48Z</time>
      </trkpt>
      <trkpt lat="43.47053" lon="1.49074">
        <ele>212</ele>
        <time>2018-11-17T12:26:48Z</time>
      </trkpt>
      <trkpt lat="43.47057" lon="1.49075">
        <ele>212</ele>
        <time>2018-11-17T12:26:48Z</time>
      </trkpt>
      <trkpt lat="43.47062" lon="1.49074">
        <ele>212</ele>
        <time>2018-11-17T12:27:04Z</time>
      </trkpt>
      <trkpt lat="43.47064" lon="1.49074">
        <ele>212</ele>
        <time>2018-11-17T12:27:04Z</time>
      </trkpt>
      <trkpt lat="43.47068" lon="1.49076">
        <ele>212</ele>
        <time>2018-11-17T12:27:04Z</time>
      </trkpt>
      <trkpt lat="43.47073" lon="1.49078">
        <ele>212</ele>
        <time>2018-11-17T12:27:04Z</time>
      </trkpt>
      <trkpt lat="43.47077" lon="1.4908">
        <ele>212</ele>
        <time>2018-11-17T12:27:20Z</time>
      </trkpt>
      <trkpt lat="43.4708" lon="1.49079">
        <ele>212</ele>
        <time>2018-11-17T12:27:20Z</time>
      </trkpt>
      <trkpt lat="43.47085" lon="1.4908">
        <ele>212</ele>
        <time>2018-11-17T12:27:20Z</time>
      </trkpt>
      <trkpt lat="43.47089" lon="1.49082">
        <ele>212</ele>
        <time>2018-11-17T12:27:20Z</time>
      </trkpt>
      <trkpt lat="43.47094" lon="1.49083">
        <ele>212</ele>
        <time>2018-11-17T12:27:36Z</time>
      </trkpt>
      <trkpt lat="43.47099" lon="1.49082">
        <ele>212</ele>
        <time>2018-11-17T12:27:36Z</time>
      </trkpt>
      <trkpt lat="43.47104" lon="1.49082">
        <ele>212</ele>
        <time>2018-11-17T12:27:36Z</time>
      </trkpt>
      <trkpt lat="43.47108" lon="1.49082">
        <ele>212</ele>
        <time>2018-11-17T12:27:36Z</time>
      </trkpt>
      <trkpt lat="43.47113" lon="1.49082">
        <ele>212</ele>
        <time>2018-11-17T12:27:52Z</time>
      </trkpt>
      <trkpt lat="43.47117" lon="1.49081">
        <ele>212</ele>
        <time>2018-11-17T12:27:52Z</time>
      </trkpt>
      <trkpt lat="43.4712" lon="1.4908">
        <ele>212</ele>
        <time>2018-11-17T12:27:52Z</time>
      </trkpt>
      <trkpt lat="43.47124" lon="1.49082">
        <ele>212</ele>
        <time>2018-11-17T12:27:52Z</time>
      </trkpt>
      <trkpt lat="43.47128" lon="1.49085">
        <ele>208</ele>
        <time>2018-11-17T12:28:08Z</time>
      </trkpt>
      <trkpt lat="43.47132" lon="1.49087">
        <ele>208</ele>
        <time>2018-11-17T12:28:08Z</time>
      </trkpt>
      <trkpt lat="43.47135" lon="1.49088">
        <ele>208</ele>
        <time>2018-11-17T12:28:08Z</time>
      </trkpt>
      <trkpt lat="43.47139" lon="1.49089">
        <ele>208</ele>
        <time>2018-11-17T12:28:08Z</time>
      </trkpt>
      <trkpt lat="43.47143" lon="1.49089">
        <ele>208</ele>
        <time>2018-11-17T12:28:24Z</time>
      </trkpt>
      <trkpt lat="43.47147" lon="1.49091">
        <ele>208</ele>
        <time>2018-11-17T12:28:24Z</time>
      </trkpt>
      <trkpt lat="43.4715" lon="1.49093">
        <ele>208</ele>
        <time>2018-11-17T12:28:24Z</time>
      </trkpt>
      <trkpt lat="43.47153" lon="1.49095">
        <ele>208</ele>
        <time>2018-11-17T12:28:24Z</time>
      </trkpt>
      <trkpt lat="43.47155" lon="1.49094">
        <ele>208</ele>
        <time>2018-11-17T12:28:40Z</time>
      </trkpt>
      <trkpt lat="43.47159" lon="1.49095">
        <ele>208</ele>
        <time>2018-11-17T12:28:40Z</time>
      </trkpt>
      <trkpt lat="43.47163" lon="1.49097">
        <ele>208</ele>
        <time>2018-11-17T12:28:40Z</time>
      </trkpt>
      <trkpt lat="43.47167" lon="1.49099">
        <ele>208</ele>
        <time>2018-11-17T12:28:40Z</time>
      </trkpt>
      <trkpt lat="43.47171" lon="1.491">
        <ele>208</ele>
        <time>2018-11-17T12:28:56Z</time>
      </trkpt>
      <trkpt lat="43.47174" lon="1.49096">
        <ele>208</ele>
        <time>2018-11-17T12:28:56Z</time>
      </trkpt>
      <trkpt lat="43.47177" lon="1.49094">
        <ele>208</ele>
        <time>2018-11-17T12:28:56Z</time>
      </trkpt>
      <trkpt lat="43.47182" lon="1.49094">
        <ele>208</ele>
        <time>2018-11-17T12:28:56Z</time>
      </trkpt>
      <trkpt lat="43.47187" lon="1.49094">
        <ele>208</ele>
        <time>2018-11-17T12:29:12Z</time>
      </trkpt>
      <trkpt lat="43.47191" lon="1.49095">
        <ele>208</ele>
        <time>2018-11-17T12:29:12Z</time>
      </trkpt>
      <trkpt lat="43.47195" lon="1.49096">
        <ele>208</ele>
        <time>2018-11-17T12:29:12Z</time>
      </trkpt>
      <trkpt lat="43.47199" lon="1.49098">
        <ele>208</ele>
        <time>2018-11-17T12:29:12Z</time>
      </trkpt>
      <trkpt lat="43.47204" lon="1.49099">
        <ele>208</ele>
        <time>2018-11-17T12:29:28Z</time>
      </trkpt>
      <trkpt lat="43.47208" lon="1.49102">
        <ele>204</ele>
        <time>2018-11-17T12:29:28Z</time>
      </trkpt>
      <trkpt lat="43.47212" lon="1.49107">
        <ele>204</ele>
        <time>2018-11-17T12:29:28Z</time>
      </trkpt>
      <trkpt lat="43.47215" lon="1.49112">
        <ele>204</ele>
        <time>2018-11-17T12:29:28Z</time>
      </trkpt>
      <trkpt lat="43.47219" lon="1.49119">
        <ele>204</ele>
        <time>2018-11-17T12:29:44Z</time>
      </trkpt>
      <trkpt lat="43.47223" lon="1.49121">
        <ele>204</ele>
        <time>2018-11-17T12:29:44Z</time>
      </trkpt>
      <trkpt lat="43.47228" lon="1.49118">
        <ele>204</ele>
        <time>2018-11-17T12:29:44Z</time>
      </trkpt>
      <trkpt lat="43.47232" lon="1.49116">
        <ele>204</ele>
        <time>2018-11-17T12:29:44Z</time>
      </trkpt>
      <trkpt lat="43.47236" lon="1.49116">
        <ele>204</ele>
        <time>2018-11-17T12:30:00Z</time>
      </trkpt>
      <trkpt lat="43.47239" lon="1.49114">
        <ele>204</ele>
        <time>2018-11-17T12:30:00Z</time>
      </trkpt>
      <trkpt lat="43.47242" lon="1.49113">
        <ele>204</ele>
        <time>2018-11-17T12:30:00Z</time>
      </trkpt>
      <trkpt lat="43.47247" lon="1.49113">
        <ele>204</ele>
        <time>2018-11-17T12:30:00Z</time>
      </trkpt>
      <trkpt lat="43.4725" lon="1.49116">
        <ele>204</ele>
        <time>2018-11-17T12:30:16Z</time>
      </trkpt>
      <trkpt lat="43.47253" lon="1.49119">
        <ele>204</ele>
        <time>2018-11-17T12:30:16Z</time>
      </trkpt>
      <trkpt lat="43.47257" lon="1.49123">
        <ele>204</ele>
        <time>2018-11-17T12:30:16Z</time>
      </trkpt>
      <trkpt lat="43.47259" lon="1.49128">
        <ele>205</ele>
        <time>2018-11-17T12:30:16Z</time>
      </trkpt>
      <trkpt lat="43.47262" lon="1.49133">
        <ele>205</ele>
        <time>2018-11-17T12:30:32Z</time>
      </trkpt>
      <trkpt lat="43.47265" lon="1.49137">
        <ele>205</ele>
        <time>2018-11-17T12:30:32Z</time>
      </trkpt>
      <trkpt lat="43.47268" lon="1.49141">
        <ele>205</ele>
        <time>2018-11-17T12:30:32Z</time>
      </trkpt>
      <trkpt lat="43.47269" lon="1.49146">
        <ele>205</ele>
        <time>2018-11-17T12:30:32Z</time>
      </trkpt>
      <trkpt lat="43.4727" lon="1.49151">
        <ele>205</ele>
        <time>2018-11-17T12:30:48Z</time>
      </trkpt>
      <trkpt lat="43.47272" lon="1.49156">
        <ele>205</ele>
        <time>2018-11-17T12:30:48Z</time>
      </trkpt>
      <trkpt lat="43.47275" lon="1.49159">
        <ele>205</ele>
        <time>2018-11-17T12:30:48Z</time>
      </trkpt>
      <trkpt lat="43.47278" lon="1.49165">
        <ele>205</ele>
        <time>2018-11-17T12:30:48Z</time>
      </trkpt>
      <trkpt lat="43.47281" lon="1.49169">
        <ele>205</ele>
        <time>2018-11-17T12:31:04Z</time>
      </trkpt>
      <trkpt lat="43.47285" lon="1.49173">
        <ele>205</ele>
        <time>2018-11-17T12:31:04Z</time>
      </trkpt>
      <trkpt lat="43.47288" lon="1.49177">
        <ele>205</ele>
        <time>2018-11-17T12:31:04Z</time>
      </trkpt>
      <trkpt lat="43.47291" lon="1.49182">
        <ele>205</ele>
        <time>2018-11-17T12:31:04Z</time>
      </trkpt>
      <trkpt lat="43.47292" lon="1.49185">
        <ele>212</ele>
        <time>2018-11-17T12:31:20Z</time>
      </trkpt>
      <trkpt lat="43.47294" lon="1.4919">
        <ele>212</ele>
        <time>2018-11-17T12:31:20Z</time>
      </trkpt>
      <trkpt lat="43.47295" lon="1.49196">
        <ele>212</ele>
        <time>2018-11-17T12:31:20Z</time>
      </trkpt>
      <trkpt lat="43.47296" lon="1.49202">
        <ele>212</ele>
        <time>2018-11-17T12:31:20Z</time>
      </trkpt>
      <trkpt lat="43.47297" lon="1.49206">
        <ele>212</ele>
        <time>2018-11-17T12:31:36Z</time>
      </trkpt>
      <trkpt lat="43.47299" lon="1.49211">
        <ele>218</ele>
        <time>2018-11-17T12:31:36Z</time>
      </trkpt>
      <trkpt lat="43.47302" lon="1.49214">
        <ele>218</ele>
        <time>2018-11-17T12:31:36Z</time>
      </trkpt>
      <trkpt lat="43.47304" lon="1.49218">
        <ele>218</ele>
        <time>2018-11-17T12:31:36Z</time>
      </trkpt>
      <trkpt lat="43.47307" lon="1.4922">
        <ele>218</ele>
        <time>2018-11-17T12:31:52Z</time>
      </trkpt>
      <trkpt lat="43.47308" lon="1.49223">
        <ele>218</ele>
        <time>2018-11-17T12:31:52Z</time>
      </trkpt>
      <trkpt lat="43.47312" lon="1.49228">
        <ele>218</ele>
        <time>2018-11-17T12:31:52Z</time>
      </trkpt>
      <trkpt lat="43.47314" lon="1.49233">
        <ele>218</ele>
        <time>2018-11-17T12:31:52Z</time>
      </trkpt>
      <trkpt lat="43.47317" lon="1.49236">
        <ele>218</ele>
        <time>2018-11-17T12:32:08Z</time>
      </trkpt>
      <trkpt lat="43.47318" lon="1.49239">
        <ele>218</ele>
        <time>2018-11-17T12:32:08Z</time>
      </trkpt>
      <trkpt lat="43.4732" lon="1.49245">
        <ele>218</ele>
        <time>2018-11-17T12:32:08Z</time>
      </trkpt>
      <trkpt lat="43.47321" lon="1.49251">
        <ele>218</ele>
        <time>2018-11-17T12:32:08Z</time>
      </trkpt>
      <trkpt lat="43.47324" lon="1.49254">
        <ele>218</ele>
        <time>2018-11-17T12:32:24Z</time>
      </trkpt>
      <trkpt lat="43.47325" lon="1.49259">
        <ele>218</ele>
        <time>2018-11-17T12:32:24Z</time>
      </trkpt>
      <trkpt lat="43.47326" lon="1.49265">
        <ele>218</ele>
        <time>2018-11-17T12:32:24Z</time>
      </trkpt>
      <trkpt lat="43.47328" lon="1.49271">
        <ele>218</ele>
        <time>2018-11-17T12:32:24Z</time>
      </trkpt>
      <trkpt lat="43.4733" lon="1.49276">
        <ele>218</ele>
        <time>2018-11-17T12:32:40Z</time>
      </trkpt>
      <trkpt lat="43.47333" lon="1.4928">
        <ele>218</ele>
        <time>2018-11-17T12:32:40Z</time>
      </trkpt>
      <trkpt lat="43.47335" lon="1.49285">
        <ele>218</ele>
        <time>2018-11-17T12:32:40Z</time>
      </trkpt>
      <trkpt lat="43.47336" lon="1.49291">
        <ele>218</ele>
        <time>2018-11-17T12:32:40Z</time>
      </trkpt>
      <trkpt lat="43.47337" lon="1.49296">
        <ele>226</ele>
        <time>2018-11-17T12:32:56Z</time>
      </trkpt>
      <trkpt lat="43.47339" lon="1.493">
        <ele>226</ele>
        <time>2018-11-17T12:32:56Z</time>
      </trkpt>
      <trkpt lat="43.4734" lon="1.49304">
        <ele>226</ele>
        <time>2018-11-17T12:32:56Z</time>
      </trkpt>
      <trkpt lat="43.47341" lon="1.4931">
        <ele>226</ele>
        <time>2018-11-17T12:32:56Z</time>
      </trkpt>
      <trkpt lat="43.47343" lon="1.49315">
        <ele>226</ele>
        <time>2018-11-17T12:33:12Z</time>
      </trkpt>
      <trkpt lat="43.47344" lon="1.49319">
        <ele>226</ele>
        <time>2018-11-17T12:33:12Z</time>
      </trkpt>
      <trkpt lat="43.47345" lon="1.49326">
        <ele>226</ele>
        <time>2018-11-17T12:33:12Z</time>
      </trkpt>
      <trkpt lat="43.47345" lon="1.49332">
        <ele>226</ele>
        <time>2018-11-17T12:33:12Z</time>
      </trkpt>
      <trkpt lat="43.47346" lon="1.49338">
        <ele>226</ele>
        <time>2018-11-17T12:33:28Z</time>
      </trkpt>
      <trkpt lat="43.47349" lon="1.49342">
        <ele>226</ele>
        <time>2018-11-17T12:33:28Z</time>
      </trkpt>
      <trkpt lat="43.47351" lon="1.49345">
        <ele>226</ele>
        <time>2018-11-17T12:33:28Z</time>
      </trkpt>
      <trkpt lat="43.47352" lon="1.49349">
        <ele>226</ele>
        <time>2018-11-17T12:33:28Z</time>
      </trkpt>
      <trkpt lat="43.47352" lon="1.49352">
        <ele>226</ele>
        <time>2018-11-17T12:33:44Z</time>
      </trkpt>
      <trkpt lat="43.47356" lon="1.49354">
        <ele>226</ele>
        <time>2018-11-17T12:33:44Z</time>
      </trkpt>
      <trkpt lat="43.47354" lon="1.4936">
        <ele>226</ele>
        <time>2018-11-17T12:33:44Z</time>
      </trkpt>
      <trkpt lat="43.4735" lon="1.49367">
        <ele>226</ele>
        <time>2018-11-17T12:33:44Z</time>
      </trkpt>
      <trkpt lat="43.47347" lon="1.49373">
        <ele>226</ele>
        <time>2018-11-17T12:34:00Z</time>
      </trkpt>
      <trkpt lat="43.47344" lon="1.49378">
        <ele>233</ele>
        <time>2018-11-17T12:34:00Z</time>
      </trkpt>
      <trkpt lat="43.4734" lon="1.49383">
        <ele>233</ele>
        <time>2018-11-17T12:34:00Z</time>
      </trkpt>
      <trkpt lat="43.47337" lon="1.49388">
        <ele>233</ele>
        <time>2018-11-17T12:34:00Z</time>
      </trkpt>
      <trkpt lat="43.47334" lon="1.49392">
        <ele>233</ele>
        <time>2018-11-17T12:34:16Z</time>
      </trkpt>
      <trkpt lat="43.47334" lon="1.49397">
        <ele>233</ele>
        <time>2018-11-17T12:34:16Z</time>
      </trkpt>
      <trkpt lat="43.47333" lon="1.49402">
        <ele>233</ele>
        <time>2018-11-17T12:34:16Z</time>
      </trkpt>
      <trkpt lat="43.47329" lon="1.49407">
        <ele>233</ele>
        <time>2018-11-17T12:34:16Z</time>
      </trkpt>
      <trkpt lat="43.47326" lon="1.49411">
        <ele>233</ele>
        <time>2018-11-17T12:34:32Z</time>
      </trkpt>
      <trkpt lat="43.47327" lon="1.49416">
        <ele>233</ele>
        <time>2018-11-17T12:34:32Z</time>
      </trkpt>
      <trkpt lat="43.47327" lon="1.49421">
        <ele>233</ele>
        <time>2018-11-17T12:34:32Z</time>
      </trkpt>
      <trkpt lat="43.47328" lon="1.49426">
        <ele>233</ele>
        <time>2018-11-17T12:34:32Z</time>
      </trkpt>
      <trkpt lat="43.47328" lon="1.49431">
        <ele>233</ele>
        <time>2018-11-17T12:34:48Z</time>
      </trkpt>
      <trkpt lat="43.47328" lon="1.49437">
        <ele>233</ele>
        <time>2018-11-17T12:34:48Z</time>
      </trkpt>
      <trkpt lat="43.47329" lon="1.49442">
        <ele>233</ele>
        <time>2018-11-17T12:34:48Z</time>
      </trkpt>
      <trkpt lat="43.47328" lon="1.49448">
        <ele>233</ele>
        <time>2018-11-17T12:34:48Z</time>
      </trkpt>
      <trkpt lat="43.4733" lon="1.49453">
        <ele>233</ele>
        <time>2018-11-17T12:35:04Z</time>
      </trkpt>
      <trkpt lat="43.47332" lon="1.49456">
        <ele>233</ele>
        <time>2018-11-17T12:35:04Z</time>
      </trkpt>
      <trkpt lat="43.47333" lon="1.4946">
        <ele>237</ele>
        <time>2018-11-17T12:35:04Z</time>
      </trkpt>
      <trkpt lat="43.47335" lon="1.49465">
        <ele>237</ele>
        <time>2018-11-17T12:35:04Z</time>
      </trkpt>
      <trkpt lat="43.47337" lon="1.49468">
        <ele>237</ele>
        <time>2018-11-17T12:35:20Z</time>
      </trkpt>
      <trkpt lat="43.47341" lon="1.49471">
        <ele>237</ele>
        <time>2018-11-17T12:35:20Z</time>
      </trkpt>
      <trkpt lat="43.47343" lon="1.49475">
        <ele>237</ele>
        <time>2018-11-17T12:35:20Z</time>
      </trkpt>
      <trkpt lat="43.47344" lon="1.49478">
        <ele>237</ele>
        <time>2018-11-17T12:35:20Z</time>
      </trkpt>
      <trkpt lat="43.47346" lon="1.49482">
        <ele>237</ele>
        <time>2018-11-17T12:35:36Z</time>
      </trkpt>
      <trkpt lat="43.47348" lon="1.49487">
        <ele>237</ele>
        <time>2018-11-17T12:35:36Z</time>
      </trkpt>
      <trkpt lat="43.4735" lon="1.49492">
        <ele>237</ele>
        <time>2018-11-17T12:35:36Z</time>
      </trkpt>
      <trkpt lat="43.47351" lon="1.49498">
        <ele>237</ele>
        <time>2018-11-17T12:35:36Z</time>
      </trkpt>
      <trkpt lat="43.4735" lon="1.49504">
        <ele>237</ele>
        <time>2018-11-17T12:35:52Z</time>
      </trkpt>
      <trkpt lat="43.4735" lon="1.49511">
        <ele>237</ele>
        <time>2018-11-17T12:35:52Z</time>
      </trkpt>
      <trkpt lat="43.4735" lon="1.49518">
        <ele>237</ele>
        <time>2018-11-17T12:35:52Z</time>
      </trkpt>
      <trkpt lat="43.47351" lon="1.49525">
        <ele>237</ele>
        <time>2018-11-17T12:35:52Z</time>
      </trkpt>
      <trkpt lat="43.47352" lon="1.4953">
        <ele>237</ele>
        <time>2018-11-17T12:36:08Z</time>
      </trkpt>
      <trkpt lat="43.47351" lon="1.49537">
        <ele>237</ele>
        <time>2018-11-17T12:36:08Z</time>
      </trkpt>
      <trkpt lat="43.47351" lon="1.49543">
        <ele>240</ele>
        <time>2018-11-17T12:36:08Z</time>
      </trkpt>
      <trkpt lat="43.47351" lon="1.4955">
        <ele>240</ele>
        <time>2018-11-17T12:36:08Z</time>
      </trkpt>
      <trkpt lat="43.47351" lon="1.49556">
        <ele>240</ele>
        <time>2018-11-17T12:36:24Z</time>
      </trkpt>
      <trkpt lat="43.47351" lon="1.49562">
        <ele>240</ele>
        <time>2018-11-17T12:36:24Z</time>
      </trkpt>
      <trkpt lat="43.47352" lon="1.49568">
        <ele>240</ele>
        <time>2018-11-17T12:36:24Z</time>
      </trkpt>
      <trkpt lat="43.47352" lon="1.49574">
        <ele>240</ele>
        <time>2018-11-17T12:36:24Z</time>
      </trkpt>
      <trkpt lat="43.47352" lon="1.49581">
        <ele>240</ele>
        <time>2018-11-17T12:36:40Z</time>
      </trkpt>
      <trkpt lat="43.47352" lon="1.49587">
        <ele>240</ele>
        <time>2018-11-17T12:36:40Z</time>
      </trkpt>
      <trkpt lat="43.47351" lon="1.49594">
        <ele>240</ele>
        <time>2018-11-17T12:36:40Z</time>
      </trkpt>
      <trkpt lat="43.4735" lon="1.49601">
        <ele>240</ele>
        <time>2018-11-17T12:36:40Z</time>
      </trkpt>
      <trkpt lat="43.47348" lon="1.49607">
        <ele>240</ele>
        <time>2018-11-17T12:36:56Z</time>
      </trkpt>
      <trkpt lat="43.47348" lon="1.49614">
        <ele>240</ele>
        <time>2018-11-17T12:36:56Z</time>
      </trkpt>
      <trkpt lat="43.47346" lon="1.49622">
        <ele>240</ele>
        <time>2018-11-17T12:36:56Z</time>
      </trkpt>
      <trkpt lat="43.47347" lon="1.49627">
        <ele>241</ele>
        <time>2018-11-17T12:36:56Z</time>
      </trkpt>
      <trkpt lat="43.47347" lon="1.49632">
        <ele>241</ele>
        <time>2018-11-17T12:37:12Z</time>
      </trkpt>
      <trkpt lat="43.47345" lon="1.49636">
        <ele>241</ele>
        <time>2018-11-17T12:37:12Z</time>
      </trkpt>
      <trkpt lat="43.47344" lon="1.4964">
        <ele>241</ele>
        <time>2018-11-17T12:37:12Z</time>
      </trkpt>
      <trkpt lat="43.47343" lon="1.49646">
        <ele>241</ele>
        <time>2018-11-17T12:37:12Z</time>
      </trkpt>
      <trkpt lat="43.47342" lon="1.49652">
        <ele>241</ele>
        <time>2018-11-17T12:37:28Z</time>
      </trkpt>
      <trkpt lat="43.4734" lon="1.49658">
        <ele>241</ele>
        <time>2018-11-17T12:37:28Z</time>
      </trkpt>
      <trkpt lat="43.47339" lon="1.49663">
        <ele>241</ele>
        <time>2018-11-17T12:37:28Z</time>
      </trkpt>
      <trkpt lat="43.47338" lon="1.49669">
        <ele>241</ele>
        <time>2018-11-17T12:37:28Z</time>
      </trkpt>
      <trkpt lat="43.47337" lon="1.49675">
        <ele>241</ele>
        <time>2018-11-17T12:37:44Z</time>
      </trkpt>
      <trkpt lat="43.47336" lon="1.4968">
        <ele>241</ele>
        <time>2018-11-17T12:37:44Z</time>
      </trkpt>
      <trkpt lat="43.47335" lon="1.49686">
        <ele>241</ele>
        <time>2018-11-17T12:37:44Z</time>
      </trkpt>
      <trkpt lat="43.47334" lon="1.49692">
        <ele>241</ele>
        <time>2018-11-17T12:37:44Z</time>
      </trkpt>
      <trkpt lat="43.47333" lon="1.49697">
        <ele>241</ele>
        <time>2018-11-17T12:38:00Z</time>
      </trkpt>
      <trkpt lat="43.47331" lon="1.49703">
        <ele>241</ele>
        <time>2018-11-17T12:38:00Z</time>
      </trkpt>
      <trkpt lat="43.47329" lon="1.49708">
        <ele>241</ele>
        <time>2018-11-17T12:38:00Z</time>
      </trkpt>
      <trkpt lat="43.47327" lon="1.49713">
        <ele>242</ele>
        <time>2018-11-17T12:38:00Z</time>
      </trkpt>
    </trkseg>
  </trk>
</gpx>